GFSGBSN_925_thetae_000.txt.gz
Theta_e
317 319 318 316 315 318 316 315 314 313 313 313 313 313 312 313 311 311 311 312 313 314 313 314 314 314 316 316 316 316 314 313 316 320 321 319 326 329 334 332 329 329 328 328 327 327 327
316 317 317 316 315 314 313 316 315 313 313 312 313 313 312 313 313 309 309 309 313 313 314 313 314 313 315 316 313 313 314 314 313 318 320 318 324 326 327 331 331 329 328 328 327 328 328
315 316 316 317 315 314 313 313 314 312 312 312 313 313 312 312 312 313 310 310 312 313 313 313 312 313 314 313 311 311 311 312 313 314 319 319 320 328 327 332 330 329 331 330 329 329 329
314 315 316 316 316 316 314 313 312 312 313 312 313 314 313 312 311 311 311 311 311 312 312 311 311 313 312 311 311 311 311 312 313 313 316 318 319 324 330 329 331 333 332 334 329 330 329
314 316 316 316 316 316 315 314 313 315 314 312 312 313 312 313 312 310 310 311 312 311 311 311 311 311 312 310 311 311 311 311 314 314 314 317 319 325 330 332 334 334 336 333 330 329 328
314 315 315 315 315 315 315 315 314 311 314 312 312 312 312 312 311 310 310 312 313 311 311 310 311 311 310 311 311 310 310 310 314 316 318 320 321 328 331 331 338 334 333 331 331 328 324
313 313 314 315 315 314 314 314 313 312 313 312 310 311 311 311 311 309 309 311 310 312 310 310 310 309 311 309 311 311 311 311 313 316 320 320 323 327 331 331 329 327 330 332 328 325 325
313 313 314 315 315 314 315 315 313 310 311 311 310 311 310 310 311 310 310 313 311 310 312 309 309 309 311 310 312 311 311 312 314 317 319 320 323 325 328 329 330 329 329 330 328 323 324
313 313 314 315 315 315 314 315 314 313 309 311 310 310 310 311 311 308 312 313 311 308 310 310 309 310 310 310 313 313 312 312 313 315 319 320 322 324 329 330 332 330 329 328 329 326 325
313 314 314 314 315 315 315 315 314 314 313 308 309 309 309 310 308 311 313 311 309 307 310 311 311 309 311 311 312 310 311 311 315 316 318 317 320 327 329 331 330 331 328 328 329 333 335
313 313 314 314 315 316 315 315 315 315 314 312 309 308 309 308 312 312 311 309 307 307 318 311 311 309 309 311 311 312 312 311 315 317 315 318 323 323 330 329 328 329 327 329 329 331 331
312 312 313 314 315 315 316 316 316 315 316 314 312 309 307 310 311 311 310 308 306 312 316 314 311 312 312 311 311 313 313 311 314 315 315 316 323 322 329 327 328 325 326 326 325 327 334
313 313 312 313 314 315 316 316 316 316 316 315 314 309 308 310 312 312 309 308 313 317 312 316 314 313 312 311 310 313 314 314 317 321 320 315 316 328 328 330 323 327 330 337 337 335 334
313 313 313 313 314 316 316 315 316 316 315 315 314 312 309 309 310 312 308 311 318 315 315 312 313 313 313 312 312 314 314 313 314 319 317 321 330 328 328 328 327 327 330 331 334 334 330
309 314 314 314 315 316 315 315 316 316 315 314 313 310 309 310 311 310 309 315 317 318 313 314 313 315 313 312 312 315 313 312 316 315 319 322 324 324 327 324 325 328 331 325 325 323 327
305 311 313 314 315 316 315 315 315 316 315 314 310 308 310 309 311 310 309 317 316 315 312 314 312 313 314 313 315 316 312 311 315 317 319 319 325 324 321 325 320 327 326 329 326 331 331
303 307 313 314 315 315 314 315 315 315 314 314 310 312 312 311 311 310 314 315 317 315 314 311 312 312 313 313 316 315 313 315 314 318 318 321 323 319 324 326 327 327 329 329 326 325 329
304 307 312 314 315 315 314 314 314 315 314 310 311 317 313 312 315 313 315 315 316 319 315 311 312 312 312 313 315 315 314 318 313 320 321 321 322 327 323 317 321 325 326 326 330 326 323
304 304 308 314 315 314 314 313 314 314 314 308 313 316 314 312 318 316 317 317 316 320 317 314 317 316 314 314 317 317 317 314 317 320 323 320 322 326 325 321 316 323 323 327 324 320 324
304 303 305 313 315 314 313 313 313 313 314 311 313 320 317 315 316 319 319 318 322 320 318 320 319 319 317 316 316 318 319 320 322 319 321 318 322 322 326 325 323 325 322 324 326 327 325
305 303 304 308 314 314 313 313 312 313 313 310 311 318 317 318 317 317 319 320 320 324 322 323 321 320 318 319 321 322 321 322 321 322 322 321 323 322 321 321 322 322 323 320 322 324 325
304 303 305 306 312 314 313 312 311 312 312 310 313 314 312 318 317 320 319 321 320 323 321 321 324 320 320 320 320 324 323 324 324 323 323 321 323 317 319 319 320 321 321 323 323 323 322
302 302 304 306 310 314 313 312 311 311 312 309 308 307 311 315 314 320 320 322 319 319 319 319 321 320 321 321 320 321 321 322 322 323 324 322 321 321 323 316 317 322 321 320 320 319 320
301 303 303 305 307 314 312 311 310 310 311 309 307 308 312 315 315 315 317 320 321 320 323 315 314 321 316 311 314 318 318 317 320 318 322 322 319 319 320 316 325 320 314 318 320 320 319
301 302 303 305 307 314 312 311 309 309 311 310 308 309 311 315 313 312 314 317 312 311 311 311 309 308 310 312 320 321 318 320 315 311 314 320 322 323 321 325 318 315 314 314 318 320 315
300 302 301 302 304 312 312 310 309 309 311 311 310 307 307 309 312 309 310 315 318 316 310 308 306 306 309 314 324 326 329 325 321 316 310 314 321 324 318 320 322 316 314 312 314 317 313
300 301 300 302 303 310 312 311 309 309 311 311 309 307 307 309 309 307 312 315 311 312 311 310 309 311 311 317 321 325 325 318 323 322 322 318 317 325 323 325 319 315 314 314 319 320 313
299 300 300 301 303 307 312 311 309 309 311 311 309 308 309 309 310 309 307 307 308 312 316 309 315 313 315 322 321 318 320 315 316 316 320 321 320 319 321 324 325 312 312 318 316 313 312
299 300 300 301 302 304 312 310 309 309 310 311 309 307 307 308 311 307 307 307 306 307 307 304 315 312 316 317 316 315 315 313 316 318 311 318 319 320 318 319 312 310 312 310 312 311 310

GFSGBSN_925_thetae_003.txt.gz
Theta_e
317 316 317 318 317 315 316 317 315 313 313 313 313 314 313 313 313 313 313 313 312 312 314 314 314 315 316 318 318 318 314 314 317 321 322 322 320 324 332 330 330 330 328 327 327 327 327
317 315 316 317 317 316 314 314 316 316 314 313 313 314 314 313 314 313 312 312 313 312 311 313 313 313 316 317 314 315 316 315 315 319 321 322 321 320 326 330 330 330 329 328 328 328 328
318 315 314 316 317 317 315 314 312 315 313 313 313 313 314 312 313 313 314 313 313 309 310 311 313 314 314 314 312 313 313 312 313 314 318 320 320 322 325 329 328 330 331 329 328 328 328
316 314 314 315 316 317 316 316 313 312 311 312 313 313 314 313 312 312 312 314 312 311 311 312 311 313 315 311 312 312 312 312 312 313 314 317 320 320 324 327 330 331 333 335 329 329 328
314 314 314 316 316 316 316 316 315 314 313 314 314 313 314 313 311 313 311 312 312 312 312 312 312 313 313 311 311 311 312 312 312 314 314 315 319 322 323 330 333 334 337 335 332 329 329
315 314 315 315 315 315 315 315 315 315 315 313 314 312 310 311 311 311 310 311 313 313 312 312 312 314 312 312 311 311 311 311 312 313 316 317 320 323 325 330 335 336 336 333 335 329 330
315 313 314 314 314 315 315 314 314 314 313 313 313 312 310 310 311 312 310 310 311 312 312 313 312 312 312 311 311 312 311 311 312 313 317 318 322 324 324 325 330 331 334 333 332 329 330
314 312 313 313 314 315 315 314 315 315 314 311 313 311 310 310 310 311 311 311 311 311 314 311 311 311 310 311 313 312 311 313 313 315 314 318 322 319 320 323 330 332 333 333 330 327 327
314 311 312 314 313 315 315 315 314 314 314 313 311 310 309 309 310 312 312 310 311 309 312 309 311 311 310 310 312 313 312 313 313 314 314 318 319 318 319 321 331 331 334 333 331 329 326
315 312 312 314 314 315 315 315 315 314 314 313 310 310 308 310 311 311 311 311 311 309 310 313 312 311 310 311 313 311 312 312 312 314 314 316 316 320 320 325 326 335 330 328 329 331 332
308 312 313 313 314 314 315 316 315 315 315 314 311 308 308 309 312 313 311 310 308 308 319 313 313 309 311 311 311 311 311 313 313 314 314 315 318 320 322 323 325 333 330 328 330 332 334
308 308 313 313 313 313 314 315 316 315 315 314 312 309 307 310 311 311 310 308 307 312 318 314 312 312 312 312 312 312 311 312 312 313 315 314 316 319 322 324 325 329 331 331 330 331 333
304 305 308 314 312 312 314 315 316 316 316 315 313 311 308 310 311 310 307 308 314 318 312 315 314 313 313 313 313 313 313 314 316 317 321 316 314 315 320 323 325 331 333 337 334 335 332
305 304 305 307 313 312 313 315 316 316 316 315 315 312 309 310 311 309 308 310 318 315 314 313 313 313 316 312 312 313 314 316 313 314 318 319 320 317 317 325 328 331 332 330 332 332 330
302 303 303 305 308 313 313 316 316 316 316 315 314 312 311 309 311 309 310 314 317 317 315 315 315 315 316 312 309 310 313 317 312 313 322 320 321 320 322 327 325 327 335 326 329 328 330
303 305 303 304 310 313 314 316 315 316 316 315 311 309 310 311 310 310 311 316 317 316 312 314 316 314 315 314 311 313 314 314 312 311 313 319 324 321 328 326 324 329 328 331 329 331 331
303 303 303 304 307 313 314 316 315 315 315 314 310 312 313 311 312 311 313 314 316 316 314 315 313 312 313 312 312 313 314 312 311 313 314 320 320 321 327 329 329 329 332 330 328 328 330
303 303 305 304 305 309 314 315 315 315 316 313 312 315 313 311 314 313 314 313 314 316 316 316 311 312 312 311 313 314 313 312 311 313 318 320 322 327 325 321 325 329 330 329 331 330 327
302 303 305 303 302 305 315 315 315 315 315 310 314 315 313 311 317 315 313 314 314 316 319 315 314 313 312 313 314 314 314 312 313 314 323 322 325 331 329 324 324 328 326 328 328 326 328
301 302 305 304 305 305 314 314 314 315 314 310 313 318 315 313 315 318 316 317 317 316 318 315 315 315 314 314 314 315 316 314 316 314 321 320 323 326 327 326 327 329 328 326 326 328 326
300 302 303 303 304 306 312 314 313 314 314 311 312 317 317 318 316 316 318 317 317 321 319 315 320 318 317 315 316 319 315 317 315 319 318 322 325 323 322 323 325 326 327 327 328 328 327
300 301 301 303 303 304 309 314 313 313 313 310 313 313 316 319 316 317 317 318 319 318 321 321 324 320 319 318 315 317 317 318 321 320 321 320 326 322 324 322 323 325 325 326 326 327 326
299 300 302 301 303 305 306 313 312 312 312 311 311 312 313 317 319 319 320 318 319 317 320 320 322 322 321 319 317 319 318 320 322 322 325 323 325 323 325 322 323 325 324 324 324 323 324
298 300 301 301 301 304 305 313 312 311 312 310 309 311 314 314 314 317 318 319 319 318 319 320 320 321 321 318 319 320 321 316 322 323 322 324 324 322 324 321 327 322 317 321 322 323 323
298 299 300 301 301 302 304 311 312 311 311 311 308 309 314 315 314 315 315 320 315 317 318 315 316 316 315 318 322 324 323 320 316 312 322 322 323 326 328 329 327 324 316 319 322 322 321
297 299 300 301 300 302 304 306 312 310 310 310 310 310 310 313 313 313 317 317 317 315 312 311 309 309 312 318 323 327 328 325 321 318 314 321 322 327 325 324 327 318 317 314 318 321 319
297 298 299 301 299 301 303 304 311 309 309 310 310 311 310 313 312 310 314 317 316 315 316 311 313 314 315 317 324 328 327 324 326 325 320 323 325 327 326 329 325 317 316 315 319 323 314
296 298 299 300 299 301 303 304 311 310 309 310 309 310 310 313 313 309 309 310 312 314 318 311 317 317 320 323 323 321 323 322 324 324 322 323 322 327 325 329 327 316 316 319 318 315 315
296 298 299 300 299 300 302 304 311 309 309 310 309 308 307 311 313 308 309 308 307 308 310 312 316 318 321 321 319 318 319 316 321 323 317 325 322 322 322 324 315 314 315 313 315 315 314

GFSGBSN_925_thetae_006.txt.gz
Theta_e
317 316 318 315 317 318 317 315 315 316 315 315 314 314 314 314 314 314 313 313 314 314 315 314 315 315 316 317 318 318 315 315 317 321 322 322 323 321 325 329 328 330 329 327 327 326 326
316 317 317 316 314 317 317 316 315 313 316 316 315 314 314 314 314 314 314 313 313 314 314 313 313 314 316 316 314 315 316 316 316 317 321 321 322 321 320 325 328 329 329 330 328 326 326
315 315 316 316 314 315 317 317 316 314 312 316 315 314 313 314 313 314 313 314 314 314 314 314 313 314 315 315 313 313 314 315 314 314 316 319 320 322 321 322 325 328 331 330 329 328 327
317 317 315 316 314 315 316 317 316 316 313 313 315 314 313 313 314 312 312 312 313 313 313 312 312 314 314 313 313 313 312 312 312 312 313 315 315 320 322 322 325 330 330 333 330 329 328
318 317 315 315 314 314 317 316 316 316 315 313 313 314 313 312 313 312 312 310 311 312 312 312 313 313 312 312 312 312 312 312 312 312 314 313 314 319 322 323 327 330 333 334 333 329 328
318 316 315 313 315 315 316 315 315 315 315 315 314 313 314 310 312 311 312 310 311 312 312 313 312 313 312 312 312 311 312 312 312 312 313 316 316 319 321 324 327 328 334 331 334 330 329
314 317 315 313 313 314 314 315 315 315 314 315 314 312 313 310 310 312 311 311 312 312 312 312 312 312 312 312 312 311 311 312 312 313 314 315 319 321 320 321 322 325 328 334 330 330 330
312 313 316 314 313 313 314 315 315 314 315 315 313 312 312 309 310 311 312 311 312 311 314 312 312 312 312 312 313 312 311 313 313 314 313 315 319 317 317 319 322 324 328 332 329 329 329
308 311 314 316 313 312 313 314 315 314 314 315 313 311 311 309 310 311 312 311 310 311 312 311 312 312 312 311 313 313 312 312 313 314 313 315 315 316 316 317 321 324 327 332 332 330 328
306 307 310 310 314 313 313 314 315 315 315 315 314 311 309 309 310 311 312 312 311 310 312 312 311 313 312 311 312 311 312 313 313 313 313 314 314 314 317 317 318 323 324 328 331 333 335
304 306 307 308 308 313 313 314 314 315 315 315 314 310 309 308 313 312 311 311 311 309 318 313 313 310 311 312 312 311 310 313 314 312 312 315 313 314 315 318 318 322 322 328 330 333 333
303 305 305 308 306 307 312 314 314 315 315 315 314 310 308 309 310 311 310 310 308 313 316 315 312 313 314 312 312 311 312 312 312 313 312 312 313 314 315 315 317 319 322 325 333 331 338
303 304 305 307 306 305 306 313 313 315 316 316 314 311 308 310 310 310 309 308 313 317 313 316 314 313 312 314 313 312 313 313 313 314 315 314 315 315 314 318 319 322 326 330 335 332 333
302 303 304 306 304 304 306 312 313 314 316 316 315 312 309 309 311 309 308 311 316 314 314 313 313 313 316 314 314 313 313 314 312 313 315 315 315 316 314 315 322 324 326 330 338 337 329
301 303 304 305 305 302 306 313 313 314 316 316 315 313 310 310 311 308 310 313 315 316 316 316 314 315 316 315 314 313 313 314 312 312 315 321 317 316 315 314 322 324 323 320 334 324 328
301 302 304 304 305 302 306 310 313 315 316 316 314 312 311 310 310 309 311 313 314 314 313 314 318 312 315 314 312 312 312 312 313 313 311 313 320 318 319 319 321 324 323 328 333 330 333
301 302 302 303 305 302 304 306 313 315 316 316 311 312 312 311 310 311 313 313 313 312 313 315 315 314 313 313 312 310 311 311 312 313 312 313 316 320 318 327 326 330 331 332 333 329 330
300 301 302 303 304 303 305 305 309 316 316 313 311 315 312 311 314 314 314 313 313 315 315 316 315 316 311 313 312 311 312 314 312 311 313 314 317 322 322 321 324 328 330 331 331 330 326
298 300 302 303 303 304 304 307 311 315 315 311 313 316 313 312 316 315 313 314 313 316 318 317 316 313 312 312 311 311 314 313 312 315 316 316 319 325 323 326 326 330 330 329 328 326 328
297 299 301 302 302 304 303 304 313 315 315 313 313 317 315 313 313 316 315 316 314 313 314 315 316 314 313 312 311 317 314 315 315 313 320 321 323 322 330 329 328 331 331 328 327 328 326
296 298 300 301 303 302 304 305 309 315 315 312 312 316 315 316 315 315 317 316 316 317 317 317 317 315 316 315 314 313 315 315 316 315 317 317 327 325 323 326 327 328 328 327 327 325 327
296 298 299 301 302 301 303 304 305 315 314 310 313 313 315 318 313 315 315 318 317 316 318 320 317 319 319 315 314 315 314 315 314 317 317 318 324 324 323 322 325 327 327 326 326 325 325
295 296 299 300 301 301 302 302 304 314 313 311 311 312 313 316 318 318 318 317 318 316 316 316 318 316 321 318 316 314 314 315 318 319 320 322 324 324 322 322 322 324 323 324 325 324 324
296 296 299 300 301 301 302 301 304 313 314 312 310 311 314 315 313 317 318 318 319 318 318 319 319 320 321 317 318 318 318 317 317 319 320 322 324 324 321 322 325 320 316 318 322 322 320
295 295 298 299 300 301 301 302 304 306 312 312 308 310 314 316 315 313 313 318 318 316 319 318 320 317 316 317 322 324 324 323 317 314 316 320 323 325 326 325 324 322 316 319 320 321 320
295 295 297 299 300 301 301 301 304 306 312 312 309 309 310 313 314 312 315 317 317 316 316 316 310 309 314 318 323 326 325 324 323 319 317 322 322 326 321 324 327 318 316 314 317 320 314
295 295 297 299 300 301 300 301 302 306 311 311 310 310 310 313 312 311 312 316 316 314 315 312 312 313 315 318 325 323 326 321 325 324 323 325 324 326 326 326 323 317 314 314 319 320 313
294 295 296 298 299 300 300 300 302 304 311 310 310 310 310 312 312 310 310 311 314 314 316 312 315 316 318 321 324 323 323 324 323 320 323 324 324 325 324 327 326 315 315 319 317 314 314
295 295 296 298 299 300 300 301 303 304 310 309 309 310 310 310 312 309 309 308 309 310 312 311 316 318 320 322 321 319 319 315 322 326 319 324 322 323 322 322 316 314 314 313 314 312 313

GFSGBSN_925_thetae_009.txt.gz
Theta_e
317 316 315 315 318 317 315 317 317 315 315 316 316 315 314 315 314 313 314 313 313 314 313 314 314 314 316 318 318 317 315 316 318 319 322 322 322 321 321 322 325 327 327 328 328 327 326
320 318 316 315 314 317 315 315 317 316 315 315 316 316 314 314 314 312 313 313 313 313 314 311 313 314 315 316 313 314 316 316 316 319 320 321 321 320 320 319 320 323 325 327 327 327 325
316 320 319 318 315 315 315 314 316 317 316 314 316 316 313 312 313 312 313 314 314 314 312 311 311 313 315 314 313 313 314 316 316 314 313 319 321 321 322 322 321 325 329 327 328 327 328
314 316 319 318 317 314 315 314 316 317 317 315 315 315 313 311 311 313 311 312 313 313 312 312 310 314 314 312 312 312 312 313 313 314 313 312 314 315 321 320 321 325 327 331 327 328 327
308 312 315 317 317 315 314 315 315 317 316 316 315 315 314 312 311 313 312 312 310 311 312 311 311 313 313 311 312 312 312 312 312 312 312 312 313 314 318 322 323 323 327 328 330 326 328
306 308 313 314 317 316 316 315 315 316 316 316 316 314 313 313 309 312 311 312 310 312 312 313 313 313 312 312 311 312 312 312 312 311 312 314 314 315 316 322 323 323 325 324 329 327 328
304 305 308 311 315 317 315 315 315 315 315 315 315 315 313 314 309 311 311 310 310 311 313 313 312 311 312 312 311 312 311 311 312 312 312 312 316 317 316 317 319 318 320 325 325 326 328
303 304 304 308 310 312 316 314 313 314 315 315 315 315 312 313 309 310 312 311 310 310 313 312 313 312 311 312 313 312 311 312 312 314 311 313 315 315 315 316 318 320 322 323 322 324 328
301 303 304 305 308 310 310 314 313 314 315 314 315 314 312 312 309 311 311 311 310 310 311 312 313 313 313 312 313 313 312 311 312 313 313 314 313 313 316 316 318 320 321 321 322 324 326
302 301 304 304 306 307 309 312 314 313 315 314 315 314 312 310 310 310 310 310 311 311 313 313 310 313 312 312 313 312 312 312 313 313 313 313 312 312 315 317 316 318 317 320 322 325 331
300 301 302 303 305 306 308 308 312 314 314 315 315 313 311 307 309 310 311 311 311 310 313 311 312 310 311 312 312 312 311 313 314 313 313 313 313 313 314 314 315 317 316 318 322 326 327
299 300 302 303 305 305 307 307 309 313 314 315 315 313 310 310 310 311 311 311 309 312 310 315 312 312 313 313 313 312 311 311 312 315 313 312 310 312 312 312 313 315 318 320 323 324 330
298 300 301 303 304 305 306 306 309 311 314 315 315 313 309 309 310 310 309 308 314 313 310 315 314 312 312 313 313 313 313 314 316 316 314 313 313 312 314 315 315 315 317 323 325 326 327
298 299 301 302 303 305 306 305 308 310 313 315 315 313 309 309 310 309 308 311 313 312 312 313 313 312 315 312 314 313 312 315 314 311 312 310 309 312 313 315 315 316 316 321 323 325 324
298 299 302 302 302 303 305 305 304 308 313 315 315 312 310 310 310 308 307 311 311 312 315 316 314 315 315 314 313 315 313 313 312 311 309 315 313 313 313 314 315 315 319 317 325 328 331
297 298 300 301 302 303 303 302 303 305 313 315 315 312 310 310 309 308 311 310 311 313 314 314 317 314 313 312 314 313 313 312 312 311 309 313 315 312 314 313 315 316 318 322 323 331 336
296 297 298 301 301 302 303 302 303 309 309 315 313 313 311 310 308 310 313 311 312 312 313 314 316 315 312 312 311 312 310 311 312 312 310 313 313 313 313 318 319 317 321 322 323 323 334
296 297 298 300 300 303 303 304 304 305 308 314 312 316 311 309 313 312 314 311 312 313 313 314 314 315 314 311 311 310 310 309 312 312 313 313 316 317 316 319 316 320 323 321 322 325 327
296 297 297 299 300 302 301 302 304 306 311 312 314 315 311 310 313 314 313 313 312 313 315 316 316 316 314 313 315 311 312 312 312 313 314 314 316 318 323 323 322 322 324 325 323 323 328
297 297 297 298 300 301 301 303 303 305 313 312 313 317 314 313 313 314 314 315 315 312 313 315 317 315 315 314 312 314 311 314 312 312 313 313 316 321 328 327 325 327 325 325 324 329 322
297 296 296 297 300 301 301 301 303 304 312 312 313 316 313 315 314 315 315 315 316 315 314 315 316 316 315 313 312 313 315 314 314 317 313 313 317 314 317 319 324 325 325 324 320 325 322
296 296 296 297 300 300 302 301 302 304 309 312 313 314 313 313 313 314 315 318 318 315 315 319 318 316 314 316 312 313 315 314 314 316 314 313 319 321 328 326 328 328 327 327 326 325 324
296 295 296 296 299 300 302 301 300 303 310 312 311 311 314 317 315 315 315 314 316 316 315 315 317 317 318 316 316 312 315 311 312 317 317 319 321 325 323 325 327 328 327 326 325 324 324
296 295 296 296 298 300 301 301 301 301 305 309 311 312 314 317 316 317 316 315 316 317 317 316 316 316 317 317 316 317 318 314 315 316 316 318 321 322 321 318 322 318 315 320 323 323 321
296 295 296 296 298 300 301 301 300 302 304 310 310 312 314 317 315 315 313 313 315 317 318 317 316 312 316 318 321 323 322 321 318 314 317 319 320 323 323 322 321 317 315 317 320 321 318
296 295 295 296 298 299 300 301 300 302 303 309 310 311 311 314 315 313 312 314 314 314 315 316 310 309 317 320 322 324 326 324 324 321 318 320 319 323 313 320 326 317 315 313 315 320 313
296 296 295 295 297 299 300 301 300 302 304 308 310 310 310 313 312 313 313 314 314 314 315 313 312 314 315 320 323 319 322 318 322 324 324 325 323 323 323 323 319 316 314 313 320 318 313
296 296 295 295 296 298 300 301 302 302 304 307 310 310 310 312 311 309 308 312 312 313 315 313 316 315 318 321 322 323 322 320 320 319 323 324 324 326 324 325 324 314 314 315 313 313 311
296 296 295 295 296 298 299 301 302 301 304 306 309 310 310 310 312 310 309 309 311 312 313 312 315 317 317 320 319 320 318 317 318 324 318 324 321 323 322 321 315 312 314 313 311 310 310

GFSGBSN_925_thetae_012.txt.gz
Theta_e
315 316 318 320 318 316 316 318 315 317 317 316 315 316 315 314 315 314 313 313 311 313 313 313 313 314 316 318 318 316 316 318 323 325 324 322 321 321 320 320 321 323 324 326 327 327 327
311 312 314 317 320 317 316 316 316 315 317 316 315 315 316 314 314 313 311 313 311 312 312 312 313 314 315 314 312 315 316 316 318 319 320 321 321 319 320 319 319 319 320 323 324 325 326
307 309 310 313 316 318 317 315 316 314 316 317 316 315 315 313 313 313 311 313 314 313 312 312 312 312 314 313 312 313 313 315 316 315 316 320 321 321 321 322 319 321 324 324 323 325 327
306 307 307 309 312 314 317 316 314 315 315 317 316 315 315 313 311 313 312 313 312 314 312 312 311 313 312 311 311 311 312 312 315 315 314 313 312 314 318 319 319 322 322 326 324 325 326
303 305 305 306 308 312 315 317 315 314 314 316 316 316 314 313 311 311 313 312 311 310 312 311 311 312 311 311 312 310 312 312 312 312 313 312 312 315 315 322 322 321 323 322 325 323 327
302 302 302 305 306 307 311 312 316 315 314 316 316 316 315 313 312 311 313 312 310 312 312 314 312 313 312 312 311 311 312 312 311 311 311 313 313 313 314 321 323 322 322 320 321 325 326
302 301 303 303 304 305 307 310 313 315 314 315 315 316 315 313 313 310 312 310 308 310 313 314 313 312 309 311 311 311 312 311 311 311 312 311 315 315 313 314 317 318 318 318 318 319 321
300 300 302 302 303 305 305 308 310 312 314 314 315 315 315 313 313 310 311 308 308 309 312 312 313 311 311 312 313 312 311 311 313 315 311 313 315 313 312 313 316 316 318 320 318 318 320
298 298 300 302 302 303 305 306 307 309 314 313 315 315 315 312 312 311 311 311 310 310 310 311 312 312 313 312 313 314 311 311 312 314 313 313 311 311 313 315 317 317 317 316 317 318 318
299 299 298 301 302 303 304 306 306 309 310 313 314 315 315 313 311 311 311 310 310 310 310 311 311 313 312 313 314 312 311 312 313 314 312 312 311 312 313 315 315 317 316 318 319 321 322
299 299 298 300 302 302 304 305 306 308 308 313 314 314 313 311 307 310 310 310 310 310 300 308 311 310 311 314 313 312 312 312 314 313 312 314 312 313 313 312 314 316 314 315 317 319 320
298 298 299 300 302 302 303 305 306 307 305 312 314 314 313 309 309 309 310 310 310 302 302 313 311 312 313 313 313 312 312 312 313 314 313 312 310 312 312 311 311 314 316 317 317 319 322
298 297 298 300 301 303 303 303 304 306 307 310 311 314 311 308 311 310 311 308 308 300 308 314 313 312 311 313 313 313 314 314 315 316 314 313 313 311 314 315 313 313 314 316 317 319 320
298 298 298 298 300 301 301 303 306 306 306 309 308 314 310 310 311 311 309 308 301 307 311 312 311 312 313 312 313 312 314 313 313 313 315 315 313 313 312 313 314 315 315 315 315 317 317
298 298 297 298 299 300 300 304 304 305 305 307 308 313 310 309 311 309 309 309 304 309 313 313 312 314 315 313 313 313 314 312 310 311 313 313 311 311 311 311 312 314 315 313 316 319 322
298 297 297 298 298 300 301 302 304 304 304 307 307 312 310 309 310 308 310 308 309 312 314 313 315 313 313 312 313 312 312 310 311 311 309 308 309 310 311 312 312 313 313 316 315 317 321
298 298 298 297 298 299 300 302 302 305 304 306 308 312 310 310 308 309 311 310 310 313 313 314 316 318 313 311 311 311 310 310 310 310 310 309 311 313 311 313 314 314 314 315 313 317 327
298 298 297 297 298 298 301 303 301 303 304 305 312 310 310 309 312 310 313 311 311 312 312 313 313 315 314 310 311 309 310 309 310 310 311 311 315 314 312 311 314 313 313 314 317 315 320
298 298 297 296 297 298 301 303 302 304 304 310 313 313 309 309 313 311 312 312 312 313 314 314 316 315 313 312 312 310 310 309 313 312 313 314 315 316 316 315 314 318 314 315 316 320 323
298 298 297 296 297 298 300 301 301 302 303 308 310 313 312 311 312 313 313 313 314 313 313 315 316 315 315 316 311 312 312 312 311 313 314 313 315 316 317 323 318 322 319 316 316 322 320
298 297 297 296 297 298 300 301 301 301 303 306 312 315 312 312 313 313 313 314 314 315 313 314 314 316 316 314 311 313 312 311 313 315 314 313 316 313 315 316 318 322 321 321 323 321 320
298 297 297 296 297 298 300 301 301 301 304 310 314 315 312 312 312 315 314 316 316 316 316 317 315 316 314 315 312 312 311 313 314 314 313 313 314 314 322 320 319 325 322 323 324 320 319
297 297 297 296 296 298 300 300 301 300 303 308 311 311 313 313 313 314 315 315 315 315 314 314 316 317 317 315 313 314 311 313 314 315 315 315 314 322 326 325 326 329 325 324 317 316 317
297 297 297 296 295 297 299 300 302 300 302 304 310 309 314 317 314 315 315 314 314 314 315 315 315 316 314 315 315 315 317 316 312 315 314 317 321 321 326 326 323 318 320 320 321 324 323
297 297 297 297 295 296 299 300 302 300 301 304 308 311 312 316 316 315 315 313 313 313 315 316 315 315 311 315 320 321 319 320 318 315 317 317 320 321 323 321 319 318 315 320 324 323 317
296 297 297 297 296 296 298 300 301 300 301 305 309 311 310 315 315 315 314 314 314 312 314 315 312 310 313 318 321 321 324 320 321 320 316 317 318 322 313 319 325 318 314 312 314 320 313
297 297 297 296 296 296 297 299 301 300 301 305 309 310 310 314 312 312 313 314 311 313 314 313 313 315 314 320 322 322 321 318 323 320 323 323 322 322 319 322 317 315 314 312 321 317 313
296 297 297 295 296 296 297 299 300 300 301 304 308 310 311 312 311 310 309 312 311 311 314 313 315 315 317 321 321 322 320 316 318 317 321 323 324 323 320 322 318 314 313 315 311 311 310
296 296 297 296 296 296 297 299 300 300 301 303 308 311 311 310 311 310 309 309 310 310 312 312 315 316 318 320 318 321 320 315 316 320 316 322 321 322 319 317 313 311 314 312 309 309 308

GFSGBSN_925_thetae_015.txt.gz
Theta_e
308 308 309 310 312 315 317 319 315 316 315 317 317 316 316 315 315 315 314 314 313 313 313 312 313 314 317 317 317 316 317 321 324 326 324 322 321 320 320 319 319 321 322 323 323 326 326
306 306 307 307 309 311 314 315 319 315 316 314 317 317 316 315 315 314 314 314 314 313 313 311 312 314 315 311 310 315 316 316 321 325 323 322 321 319 320 319 319 318 319 319 321 323 323
304 304 304 305 307 307 309 312 315 317 314 314 316 317 316 314 314 313 313 313 314 313 312 311 311 313 314 312 312 312 313 314 315 319 318 321 321 321 321 322 319 319 321 320 321 321 323
303 304 303 305 303 306 307 309 311 312 317 315 315 317 316 315 314 313 312 313 313 315 313 312 311 313 311 310 311 312 312 312 314 315 314 313 320 316 317 318 319 321 320 323 320 321 322
301 302 302 302 303 303 305 307 307 311 312 315 314 315 316 316 314 311 312 311 312 311 313 312 311 311 310 309 312 310 311 312 311 313 313 313 312 314 315 320 322 321 321 321 320 321 324
301 300 300 301 302 303 303 305 306 308 310 312 314 314 316 316 313 311 310 313 312 311 312 313 312 312 310 311 311 311 311 312 311 310 311 312 314 315 316 319 319 319 321 320 320 322 321
300 299 300 299 300 301 303 303 305 307 308 311 314 314 316 316 313 311 312 311 307 308 312 315 313 313 310 311 311 311 311 311 310 310 312 311 315 318 316 314 315 316 318 318 316 317 317
300 300 299 301 299 301 302 303 304 305 307 308 310 314 315 316 313 311 312 307 307 308 311 311 312 311 311 311 313 312 311 312 312 313 310 313 313 311 311 311 312 314 316 317 315 316 317
299 299 300 299 299 301 302 303 303 304 306 308 309 313 314 315 313 312 311 309 309 309 309 310 311 312 312 312 313 313 311 310 312 313 312 313 312 311 312 312 314 314 315 315 315 313 314
299 299 299 299 299 301 302 302 303 305 306 308 306 311 314 315 314 312 311 310 310 310 300 307 311 312 312 312 314 312 311 312 313 314 314 314 313 312 311 312 313 314 313 315 316 316 316
299 299 299 298 299 300 302 303 303 304 305 305 305 310 314 314 311 310 309 310 310 305 301 307 310 310 312 313 313 312 312 312 314 313 312 314 312 311 312 312 312 314 313 314 316 318 317
300 299 299 298 298 300 301 302 302 303 306 306 306 308 314 311 310 310 309 310 310 301 301 312 310 312 313 313 313 312 313 313 313 315 313 311 310 311 311 311 311 313 314 315 316 316 318
300 300 299 298 298 299 301 301 301 304 306 306 306 305 312 309 309 309 310 308 306 301 308 312 312 312 311 312 313 314 313 315 316 317 315 314 314 311 312 312 311 311 314 318 319 320 317
299 299 299 298 299 300 299 301 302 304 305 306 306 306 306 310 309 309 309 308 304 306 310 311 311 311 312 311 313 313 314 313 313 313 314 315 315 314 311 312 314 313 313 316 316 316 313
300 299 299 299 299 299 299 301 302 302 305 305 306 307 305 310 308 309 310 309 305 306 311 312 312 313 313 312 313 312 312 311 311 310 312 311 312 310 311 311 312 315 316 312 314 314 320
300 299 299 298 298 298 299 301 302 303 305 305 306 305 308 310 309 309 310 307 305 310 312 311 312 312 313 311 312 311 310 309 311 309 310 310 311 309 310 310 310 312 311 316 316 317 316
299 299 299 298 298 297 298 301 301 303 304 304 306 307 309 309 309 310 312 306 308 312 312 313 312 314 312 311 311 311 309 309 310 310 310 311 308 308 309 312 312 313 313 313 313 312 312
299 299 299 298 297 297 298 301 302 303 303 306 307 306 310 309 311 311 312 309 309 313 312 313 313 313 314 310 311 309 309 309 308 310 312 310 312 312 310 311 311 312 312 312 317 309 311
299 299 299 298 297 298 298 301 302 302 303 304 309 309 309 309 311 311 311 311 311 313 313 313 314 313 314 311 312 309 309 308 309 310 311 312 314 314 316 314 312 314 313 312 312 314 313
298 298 298 298 297 297 298 300 302 302 302 304 310 307 310 310 311 310 312 311 312 311 312 313 314 314 315 314 310 311 311 310 310 310 314 312 314 315 316 318 314 315 314 313 312 313 313
298 298 298 298 297 296 298 300 301 302 302 305 308 310 308 310 311 310 309 313 313 315 312 313 315 315 317 314 314 313 312 312 313 314 314 313 313 313 314 314 314 317 315 314 314 313 313
298 297 298 297 297 296 297 299 301 301 301 307 311 313 311 310 311 312 311 313 315 313 315 315 316 315 314 318 311 310 311 312 314 315 314 313 312 313 315 315 315 318 316 317 315 314 314
297 297 298 298 297 296 296 298 301 301 301 304 305 311 311 311 312 314 315 313 314 315 314 314 315 315 317 316 313 312 311 312 314 315 315 313 313 317 323 322 320 321 317 319 316 317 317
297 297 298 297 297 296 296 298 300 302 301 303 305 306 315 314 312 313 314 313 314 314 315 314 314 316 314 312 313 313 312 313 312 313 313 316 316 316 322 320 328 321 322 319 319 319 317
297 297 297 297 296 296 296 298 300 301 301 303 305 309 312 315 313 313 314 314 313 313 314 313 314 313 313 314 317 319 318 317 316 312 313 314 319 323 324 320 321 320 323 322 320 319 318
297 297 297 297 296 296 296 297 299 301 301 302 305 308 310 314 316 314 314 313 315 314 314 315 312 311 314 317 319 321 321 318 318 319 314 316 316 321 320 320 324 316 315 317 317 322 317
297 297 297 297 297 296 297 297 299 300 301 302 304 308 309 312 311 311 314 314 312 311 312 312 312 314 313 318 321 319 319 317 320 319 319 322 322 322 320 322 316 315 313 310 320 317 311
297 297 296 297 297 296 297 297 298 300 300 302 304 308 310 312 311 311 310 312 311 310 313 312 314 315 316 320 320 320 318 316 316 315 319 319 318 317 319 320 318 312 312 314 311 310 310
297 297 296 296 297 297 297 296 298 299 300 300 305 307 310 311 311 309 309 309 310 310 311 311 314 315 316 318 317 316 320 314 314 318 314 320 318 320 316 315 312 311 312 311 308 309 307

GFSGBSN_925_thetae_018.txt.gz
Theta_e
306 306 306 306 306 306 308 310 311 313 316 317 316 316 319 317 315 315 315 314 314 314 313 312 313 314 317 317 318 316 317 321 323 325 323 322 320 318 319 318 318 321 321 322 321 321 322
303 304 305 304 304 306 305 307 309 310 312 315 317 315 316 317 315 315 314 313 314 314 313 313 313 314 314 312 310 314 315 317 324 324 322 322 321 318 319 319 318 317 318 318 318 320 320
303 303 302 302 303 304 304 305 306 308 310 312 314 316 315 316 315 314 312 313 312 313 312 311 312 313 313 312 311 312 312 315 318 323 319 322 319 320 320 321 318 319 320 318 318 319 319
302 302 302 302 301 302 303 303 304 305 308 310 313 314 314 316 316 314 312 313 312 313 313 312 312 312 309 310 311 312 312 312 314 316 313 315 321 319 318 315 318 321 320 321 317 318 319
302 301 301 301 301 302 301 302 304 304 305 308 310 311 315 315 316 314 311 311 312 311 314 312 312 310 309 309 311 310 311 311 313 314 314 313 314 313 314 317 318 320 320 320 319 317 320
300 300 300 301 301 300 300 301 303 304 304 306 308 310 313 314 316 314 310 312 312 310 311 312 311 311 309 310 311 311 311 311 310 309 310 312 314 314 316 318 317 318 320 320 320 317 316
301 300 301 300 300 300 300 302 303 303 304 304 307 308 310 314 315 314 311 312 308 308 311 314 313 312 310 310 311 311 311 311 310 310 312 310 315 318 316 314 315 316 317 317 316 315 316
300 301 301 301 300 300 299 301 303 303 304 304 306 307 307 312 316 313 311 309 308 307 309 310 312 311 311 311 312 311 311 312 312 313 310 313 313 312 312 312 314 315 315 315 312 313 314
301 301 301 301 300 299 299 301 302 303 304 304 305 306 307 311 316 313 311 309 309 309 307 308 310 313 312 312 313 313 310 310 312 312 312 313 312 311 312 312 313 312 313 313 312 312 312
301 301 301 300 300 299 299 301 302 302 303 303 305 306 307 308 315 312 311 309 309 308 299 305 311 311 312 312 313 312 311 311 311 313 313 313 312 311 311 312 311 314 311 313 314 314 314
301 301 301 300 299 299 299 301 302 302 301 302 306 306 307 308 313 311 311 310 309 304 303 307 311 310 312 312 312 311 311 312 314 312 313 314 312 312 313 312 310 312 311 313 314 315 315
301 301 301 300 300 299 300 300 300 301 302 304 305 307 307 305 310 311 310 310 308 301 302 311 310 313 315 313 313 311 313 312 312 314 313 311 309 311 310 310 310 311 311 313 314 315 317
301 301 301 300 300 299 299 300 300 302 303 305 306 306 304 304 311 310 310 307 308 306 308 311 311 311 312 313 313 313 314 316 316 316 316 314 314 312 311 311 310 312 316 317 318 318 315
301 300 300 300 300 299 298 299 300 303 303 304 305 305 304 305 309 309 309 304 307 307 309 310 309 310 311 310 312 313 314 315 314 314 315 315 309 312 311 312 311 312 313 316 317 312 311
300 300 300 300 299 299 298 299 300 303 302 303 305 306 305 307 309 309 308 309 308 306 310 311 311 311 312 312 312 312 314 313 311 313 315 311 309 310 311 310 311 315 314 311 315 314 317
300 300 299 299 299 299 297 298 301 302 302 303 305 303 304 305 309 308 309 308 306 307 310 310 311 311 312 312 313 313 309 308 310 309 308 309 312 308 310 310 311 313 312 316 314 316 316
299 299 299 299 299 298 298 298 301 303 302 304 305 305 303 305 308 309 311 307 306 311 310 311 311 311 312 312 312 310 308 307 309 308 308 310 310 307 309 311 311 313 314 314 313 316 314
298 299 299 299 299 298 297 298 301 302 303 302 305 306 306 308 309 311 311 306 309 312 311 312 311 312 311 310 310 308 309 307 307 308 311 310 313 312 311 309 310 310 311 312 313 308 310
298 298 298 298 298 298 296 298 300 302 303 302 307 307 309 307 310 311 310 310 310 313 313 312 313 312 313 312 312 309 308 308 308 309 311 310 313 314 313 312 311 313 312 311 311 313 311
298 298 298 298 298 298 297 298 300 302 302 304 308 308 308 309 309 311 310 311 311 310 312 312 314 314 313 315 310 311 309 309 308 309 311 311 314 314 315 315 314 315 315 313 313 314 311
298 298 298 298 298 298 297 297 299 302 301 304 307 308 306 308 309 310 309 309 312 314 311 312 314 312 316 316 314 313 310 310 310 310 313 313 314 313 313 314 313 316 315 314 314 312 311
298 298 298 298 298 297 297 297 299 301 301 304 309 311 308 307 310 309 310 310 310 312 313 314 313 314 315 317 313 311 312 312 312 313 314 314 315 313 314 313 313 315 317 315 315 313 312
298 298 298 298 298 297 296 297 298 301 301 301 302 304 310 310 312 310 310 311 313 312 313 313 313 314 316 316 313 313 312 311 312 315 315 314 312 316 317 316 319 321 315 316 314 314 312
298 298 298 298 298 297 296 297 298 300 302 302 303 305 312 312 311 312 312 311 314 313 314 313 313 315 314 313 313 313 311 311 312 312 313 315 314 315 317 319 328 322 319 315 314 315 313
297 297 298 297 297 297 296 297 298 300 301 302 303 306 313 312 311 311 314 313 312 313 314 314 313 313 313 314 317 315 318 316 315 315 313 313 316 321 324 323 321 319 322 320 318 318 314
297 297 297 297 297 297 296 297 298 299 300 301 302 305 310 313 311 310 311 313 314 315 314 313 311 310 314 316 318 319 316 318 317 316 310 311 312 317 320 323 323 315 318 317 318 325 317
297 297 297 297 297 297 297 297 297 299 300 301 302 305 309 313 312 311 313 314 312 312 313 312 312 313 314 316 319 319 321 316 318 318 321 320 320 322 320 321 316 314 311 315 323 319 309
297 297 297 297 297 297 297 297 297 299 300 300 301 306 308 311 310 310 310 310 310 311 314 311 313 314 315 318 319 318 319 316 315 313 316 316 318 318 316 319 316 311 311 314 311 308 309
297 297 297 297 297 297 297 297 296 299 300 300 301 302 307 310 311 309 309 309 310 310 311 311 312 314 315 318 317 317 320 314 312 316 312 318 316 317 314 314 310 310 311 310 307 308 307

GFSGBSN_925_thetae_021.txt.gz
Theta_e
304 305 304 304 303 303 304 305 305 306 307 311 313 314 317 317 318 317 313 314 314 314 314 313 312 313 315 318 319 316 316 318 322 325 323 321 318 317 319 318 318 322 321 321 321 319 320
303 304 303 303 303 303 302 303 303 304 305 307 311 312 314 316 316 316 314 312 312 314 313 313 311 314 313 313 311 312 316 318 323 324 323 321 321 317 318 319 318 317 318 318 318 319 319
304 302 302 302 302 303 303 303 302 302 304 305 306 310 312 315 315 316 315 310 312 312 313 311 312 313 312 311 310 311 313 316 322 323 322 321 320 319 318 320 318 319 321 318 318 319 320
302 302 301 302 301 302 301 301 301 303 304 305 305 308 310 312 315 316 314 312 311 312 313 312 312 312 310 309 311 310 312 313 316 315 317 321 320 320 319 315 316 320 320 320 317 318 318
301 302 301 301 302 302 302 301 300 303 304 304 305 305 308 310 313 315 315 312 311 312 313 313 311 309 309 308 311 310 311 311 313 313 313 318 314 313 314 317 317 318 319 320 318 317 319
301 302 301 302 302 302 301 301 300 302 303 304 305 305 306 308 311 314 315 311 311 311 313 313 311 310 309 310 310 310 311 311 310 310 311 312 313 315 316 317 317 316 319 318 318 316 316
304 303 302 302 302 301 300 300 300 302 303 304 304 305 306 307 309 314 314 312 309 310 311 312 311 310 310 310 310 310 311 310 309 310 314 311 316 317 316 315 314 315 317 318 316 315 315
303 303 302 302 302 301 301 300 300 301 302 303 304 303 304 305 309 311 312 311 310 308 309 309 311 311 310 311 311 310 310 311 311 313 310 313 315 313 312 314 315 316 317 318 315 312 313
302 303 303 302 302 301 301 300 300 301 302 302 303 303 303 305 308 309 311 310 309 308 306 307 309 312 311 311 312 312 310 310 311 312 311 313 311 310 312 313 314 314 315 314 314 312 312
303 303 302 302 301 301 301 300 300 301 301 302 301 303 304 306 307 309 311 309 309 308 300 305 310 310 312 312 312 311 310 311 311 314 313 312 311 311 311 312 312 314 311 313 313 313 313
303 302 302 301 301 301 301 300 300 300 301 302 301 304 305 306 308 311 310 309 308 305 302 306 310 310 311 312 309 311 310 311 313 313 312 313 312 312 313 312 310 312 310 311 312 314 313
301 301 301 301 301 300 301 300 300 300 301 301 304 305 305 305 306 305 309 308 306 305 305 311 310 313 314 312 313 311 312 312 311 313 313 310 309 310 311 310 310 312 312 312 313 315 318
300 301 301 301 300 300 300 300 299 300 302 304 303 305 305 305 305 308 309 308 309 305 308 311 311 313 314 313 314 313 315 315 316 315 316 315 314 312 311 311 310 312 316 317 316 318 316
299 299 300 300 300 300 300 299 299 300 302 303 301 304 305 303 303 309 309 307 309 307 308 309 310 311 312 312 312 314 314 316 314 314 315 313 310 313 312 312 312 312 313 315 316 314 313
299 299 299 300 300 299 299 299 298 300 302 303 302 305 305 303 304 308 307 310 307 306 309 311 310 311 311 310 311 312 313 314 313 314 316 312 311 308 310 310 311 314 314 311 314 313 316
298 299 299 299 299 299 299 298 298 300 302 303 303 304 304 305 306 307 308 311 305 308 309 310 312 310 312 311 312 312 311 308 311 312 310 308 312 306 309 310 311 313 311 314 314 314 315
299 299 299 299 299 299 298 298 298 300 302 302 304 305 304 307 309 305 311 307 307 310 309 310 311 311 310 312 311 312 308 307 308 307 309 308 310 307 309 312 311 313 314 315 313 315 315
299 299 299 299 299 298 298 298 298 300 302 302 303 307 305 307 304 303 308 307 311 311 311 311 310 310 310 309 311 310 308 306 306 307 310 309 311 311 308 309 310 311 312 312 315 313 313
299 299 299 298 299 298 298 297 298 300 302 303 304 307 308 306 309 309 309 310 311 312 312 312 312 311 311 310 311 309 307 307 307 308 309 310 312 311 310 312 310 312 312 312 312 313 314
299 299 298 298 299 298 298 297 298 300 301 304 304 307 302 307 307 310 309 310 311 310 311 312 313 312 313 314 310 310 308 308 307 309 310 310 311 309 312 314 314 314 313 312 312 314 312
299 299 298 298 298 298 297 297 298 300 301 303 307 308 305 308 310 309 308 309 311 312 311 311 313 312 314 316 315 313 308 309 308 309 311 311 314 313 313 312 312 313 314 314 314 312 313
299 298 298 299 298 298 298 297 298 299 301 302 305 308 306 306 309 309 310 308 309 312 311 313 313 314 312 316 315 312 311 310 311 308 312 312 314 314 316 315 315 314 314 314 314 313 312
298 298 298 298 298 298 298 296 298 299 302 301 301 301 307 309 308 309 309 309 309 311 311 312 312 313 314 314 314 313 312 310 311 314 313 315 313 316 317 316 317 321 320 316 315 314 313
297 298 298 298 297 298 298 297 298 299 301 301 301 302 308 311 310 310 309 310 311 310 314 313 312 314 314 312 313 313 313 313 312 312 312 315 315 315 317 319 327 321 318 317 315 314 313
298 297 298 298 297 297 298 297 298 298 301 300 301 303 310 312 311 309 309 309 310 311 314 313 313 312 312 314 316 317 314 316 314 312 313 312 316 319 322 323 321 319 317 319 316 318 312
298 298 297 298 297 297 298 297 298 297 300 300 301 304 307 312 310 309 312 311 312 312 314 313 311 309 312 315 317 320 315 315 315 314 308 312 314 318 318 323 325 317 314 317 317 322 315
297 298 297 298 298 297 298 297 297 297 300 300 301 303 304 313 310 308 310 312 312 312 314 312 312 314 312 316 319 318 316 315 317 317 316 317 317 318 319 322 317 313 311 315 320 317 309
297 297 297 297 297 297 297 297 296 297 299 300 300 303 302 311 310 310 310 310 309 310 314 312 313 312 315 316 317 317 316 313 315 312 314 315 316 318 318 319 316 310 314 315 311 308 308
296 296 296 297 297 296 297 297 296 297 299 300 300 299 300 306 309 309 309 309 310 310 312 311 313 313 314 316 316 317 316 313 311 316 311 317 314 315 313 313 310 310 309 309 306 306 307

GFSGBSN_925_thetae_024.txt.gz
Theta_e
305 304 304 303 304 304 304 303 303 303 303 304 306 307 310 312 315 317 318 316 315 313 313 313 311 313 315 320 320 316 316 317 322 325 323 322 322 321 323 321 322 323 321 321 322 323 322
304 303 303 303 304 304 304 303 302 302 303 305 305 306 307 311 312 316 317 315 315 315 312 313 311 313 313 318 312 314 316 316 322 324 324 322 322 320 321 321 321 320 321 321 321 321 320
302 302 303 303 303 304 304 303 303 302 301 304 305 304 306 308 311 314 316 316 315 314 312 312 311 314 314 312 311 311 313 318 321 324 323 322 320 321 322 323 321 321 322 321 320 320 320
303 303 303 303 303 303 303 303 302 302 301 304 305 305 306 306 309 310 315 316 314 313 313 313 312 312 313 310 312 311 313 316 319 319 322 322 319 319 320 318 319 320 321 323 320 320 320
304 305 304 303 303 303 303 302 302 301 301 303 304 305 306 306 307 308 313 316 312 312 313 314 312 311 313 309 311 311 312 316 314 314 318 320 319 318 318 320 321 319 321 322 321 318 319
305 303 304 304 304 303 303 302 302 301 301 302 303 304 305 305 306 307 310 316 312 312 314 312 311 313 311 312 311 311 311 314 314 315 316 317 317 318 318 320 323 320 321 319 319 318 318
303 304 304 304 304 303 303 303 302 302 301 301 303 303 304 304 304 306 308 315 312 313 313 314 313 312 311 311 311 311 311 311 313 316 318 316 318 319 318 316 317 317 318 319 318 317 317
304 304 304 303 303 302 302 302 302 301 302 302 302 303 303 303 304 305 307 312 310 310 313 312 312 312 311 311 312 312 311 313 315 318 316 316 318 316 314 315 316 316 316 317 316 315 315
304 304 303 303 303 302 302 302 302 301 301 302 302 303 302 302 304 305 306 311 310 309 311 311 312 313 312 312 313 313 312 313 314 315 316 316 314 312 314 315 316 315 316 315 315 315 314
302 302 302 302 302 302 301 301 301 301 300 301 302 301 302 304 304 305 308 308 310 305 316 311 312 311 312 312 314 312 311 313 314 315 315 315 313 313 314 315 315 317 314 314 314 314 316
300 302 301 301 301 301 301 301 301 301 300 301 303 303 304 304 305 308 309 310 308 307 319 310 311 311 311 312 312 313 311 312 314 314 314 315 314 314 314 313 313 314 312 312 313 314 314
301 301 301 301 301 301 300 301 300 300 299 301 302 302 304 305 305 306 309 308 306 311 315 312 311 314 314 312 312 313 313 312 312 313 313 313 311 313 313 313 312 312 313 313 313 315 319
300 300 300 300 300 300 300 300 300 299 300 301 302 302 304 305 305 307 307 306 310 318 309 312 311 314 313 313 314 314 314 315 315 316 316 314 314 312 311 313 312 313 315 316 317 319 316
300 301 300 300 300 300 300 300 299 299 300 302 303 301 304 305 304 306 306 307 317 311 312 310 312 313 314 312 313 313 315 316 314 314 315 315 318 314 313 312 313 313 313 316 315 315 313
301 301 300 300 300 299 300 299 299 299 300 301 303 303 305 305 304 303 305 314 314 310 310 311 311 313 313 311 312 313 314 313 313 313 315 316 312 310 312 312 311 314 316 313 315 314 316
300 300 300 299 299 299 299 299 298 299 301 302 301 304 305 304 304 305 308 314 308 310 310 311 313 311 312 312 313 312 312 312 312 312 312 312 314 309 311 311 312 314 312 315 316 315 315
300 300 300 299 299 299 299 299 298 300 301 301 301 303 304 305 306 306 313 311 311 310 310 311 312 312 312 312 312 312 312 309 310 312 313 311 310 311 311 312 312 313 315 316 314 316 314
300 300 300 299 299 299 299 298 298 299 301 302 303 307 304 305 305 304 312 309 311 311 312 312 311 311 312 312 313 312 312 310 309 311 314 311 311 312 312 310 310 311 312 312 316 316 316
300 300 299 299 299 299 299 297 298 300 301 303 304 305 306 307 311 311 309 312 312 312 313 312 312 312 311 312 314 311 311 309 309 310 311 311 313 314 315 314 311 312 311 312 314 315 318
299 299 299 299 299 298 299 297 298 300 301 304 303 307 304 307 309 310 312 312 313 312 312 313 312 313 313 313 311 312 311 310 309 310 310 311 313 314 317 318 317 316 314 314 314 316 316
298 299 299 298 299 298 299 297 298 300 301 301 306 307 306 310 311 310 310 312 313 313 312 312 314 314 314 315 314 313 312 311 310 310 311 311 314 313 313 313 314 315 315 315 315 314 315
299 297 298 298 298 298 298 298 298 299 301 301 304 305 307 309 309 309 309 311 312 313 313 314 314 314 314 315 314 314 313 313 313 311 312 312 315 316 316 314 316 318 318 317 317 316 315
298 298 298 298 298 297 298 298 298 299 301 301 301 301 304 309 310 311 311 309 311 312 312 313 313 313 314 314 312 313 312 312 312 313 313 314 315 316 319 316 317 323 321 320 319 316 316
299 298 298 298 298 297 298 298 298 298 300 300 301 302 306 311 310 311 310 310 310 311 315 313 313 313 314 313 313 314 314 315 315 314 313 315 316 315 318 318 327 323 318 317 320 318 316
298 298 298 298 298 298 298 298 298 298 300 300 301 301 306 312 310 310 310 311 312 312 313 313 313 312 312 314 315 316 316 317 316 316 316 315 315 320 321 323 320 322 319 321 318 321 315
297 297 297 297 297 297 297 298 298 297 300 300 301 302 305 311 311 310 311 310 312 312 312 313 312 311 313 315 316 320 318 316 318 316 312 315 315 318 320 322 324 322 316 318 315 321 314
296 296 296 296 297 297 297 298 297 297 299 300 300 301 302 310 312 310 311 313 313 313 315 313 313 314 313 316 316 320 317 316 319 319 317 317 317 319 320 322 320 316 313 316 321 319 312
296 296 296 296 296 297 297 296 296 296 298 299 299 299 300 304 310 310 310 312 313 314 315 312 313 313 315 316 318 318 319 316 318 317 318 320 320 321 320 321 322 313 317 320 315 313 311
296 296 295 295 294 294 294 295 295 296 297 298 299 298 298 301 310 309 309 309 310 311 313 311 313 314 314 315 315 317 319 317 316 319 313 320 318 321 320 320 315 313 315 312 310 311 310

GFSGBSN_925_thetae_027.txt.gz
Theta_e
304 304 304 305 305 305 304 304 305 304 303 303 303 305 307 307 309 312 314 317 318 316 315 314 311 311 315 320 322 319 318 319 324 325 324 323 322 321 322 321 320 323 323 322 322 323 324
304 304 304 304 304 305 305 304 304 303 303 304 303 305 306 306 307 309 313 315 318 317 315 314 311 312 316 319 315 317 316 317 321 325 325 323 323 321 323 322 322 322 322 322 322 322 322
305 305 306 305 305 305 305 304 304 304 303 303 303 304 306 306 307 308 311 313 317 316 315 314 311 314 314 314 312 312 314 317 322 323 325 323 322 322 323 323 321 322 324 323 323 322 322
306 306 305 304 305 305 305 305 304 304 303 303 302 304 305 306 307 308 309 310 315 315 315 314 312 313 316 313 313 312 314 319 321 323 324 323 321 321 322 320 321 322 322 325 322 321 321
305 305 305 305 306 305 305 304 304 304 303 303 302 302 304 305 306 306 307 308 310 316 314 314 313 313 316 310 311 312 313 318 318 321 323 322 321 320 319 322 323 323 325 324 323 321 320
305 304 305 305 305 305 304 304 303 303 303 303 302 303 302 304 305 305 305 306 309 316 314 313 313 314 313 313 312 311 313 317 316 320 321 322 318 319 320 322 328 324 324 322 321 320 319
305 305 305 304 305 304 304 303 303 303 302 302 302 303 303 304 304 305 305 305 315 315 314 315 314 314 314 312 311 312 314 316 316 319 320 319 320 323 322 321 320 319 319 320 320 319 318
304 302 302 303 303 303 303 302 302 302 302 302 302 302 303 303 303 303 304 304 308 311 316 314 313 313 312 312 313 313 314 316 317 319 317 318 320 318 317 317 317 318 319 319 317 316 316
301 303 303 303 301 302 302 302 302 302 302 302 301 302 303 302 301 304 304 305 303 309 314 314 313 314 313 313 314 314 314 315 317 317 318 320 317 315 316 317 318 318 318 317 317 315 315
302 302 302 301 301 301 302 301 301 301 302 301 301 302 302 303 305 305 305 305 304 309 315 314 315 314 313 314 315 313 313 314 315 316 316 317 315 314 316 317 316 318 316 316 316 316 319
302 301 302 302 301 301 301 301 301 301 301 300 301 303 304 304 304 306 307 306 304 308 323 313 313 311 313 314 314 314 312 313 315 316 315 317 315 315 315 315 314 315 314 314 315 315 315
301 302 302 301 301 301 301 300 300 300 300 300 302 303 304 304 306 306 307 304 306 312 322 313 312 313 314 312 314 313 313 313 313 313 314 314 313 314 314 314 314 313 313 313 314 314 317
301 302 301 301 300 300 300 300 300 300 300 301 302 303 304 304 306 306 307 305 309 317 311 313 312 313 314 313 314 314 315 315 316 317 317 314 314 312 312 314 313 314 315 317 320 320 318
301 301 301 301 300 300 300 300 300 299 300 301 302 303 305 306 306 305 304 308 316 314 312 310 313 314 315 313 314 314 315 316 313 313 315 315 320 315 313 314 315 315 314 316 318 318 317
300 301 301 301 300 300 300 300 299 299 300 301 302 303 306 306 306 304 305 313 318 313 311 313 313 315 316 312 314 314 314 315 313 313 317 317 316 312 314 313 312 314 315 313 315 314 316
300 301 301 300 300 300 299 300 298 300 300 302 302 303 305 306 305 305 308 314 312 311 311 313 314 312 314 313 314 313 314 314 313 313 313 315 317 311 313 312 312 313 313 315 316 316 317
300 301 300 300 300 299 300 299 298 300 302 302 302 303 306 305 304 307 314 314 312 311 311 313 313 312 311 313 313 313 314 312 313 313 313 312 313 313 311 312 313 313 314 314 314 318 317
300 300 300 300 300 299 299 299 299 301 302 303 303 306 306 305 306 305 313 312 310 312 312 312 312 313 312 312 314 314 314 312 311 312 313 312 312 314 313 311 310 312 313 313 318 316 316
300 300 299 299 299 299 299 299 299 301 303 304 305 304 304 306 312 313 311 313 312 313 313 313 313 312 312 313 315 313 313 310 310 312 313 312 314 315 318 315 312 313 312 312 315 316 318
299 300 299 299 299 298 299 299 299 300 303 304 305 309 307 308 311 312 314 314 314 313 314 313 314 312 313 314 313 314 313 311 310 310 311 312 313 314 319 317 317 318 315 315 316 318 317
299 299 299 299 299 298 299 299 299 300 301 302 304 308 307 312 312 312 313 313 313 314 313 313 314 314 314 315 314 314 313 312 311 311 311 312 316 315 314 313 314 315 316 316 317 317 318
299 299 299 299 299 298 299 299 299 300 301 302 304 305 304 310 311 312 312 314 313 313 313 314 315 314 314 315 315 315 314 314 314 312 312 312 316 316 315 313 315 319 317 317 319 319 319
299 298 299 299 299 298 299 299 298 299 301 302 302 302 304 310 310 312 312 312 313 312 314 314 314 314 314 314 313 313 312 313 313 314 313 314 315 316 317 316 317 323 321 320 321 320 318
298 298 298 298 298 298 298 298 298 298 301 302 301 302 306 311 310 311 311 311 311 312 314 313 313 314 314 313 314 314 314 314 314 314 313 314 316 316 320 318 326 322 319 319 320 319 316
297 297 297 297 297 297 297 298 298 298 300 300 301 302 305 312 310 311 311 311 311 312 313 313 314 313 312 314 316 316 318 317 316 316 316 314 315 319 321 319 318 320 320 319 321 321 316
297 297 297 297 297 298 298 298 297 297 299 300 301 301 304 308 312 310 311 311 313 313 314 313 313 313 313 315 316 317 320 317 319 318 314 314 316 318 319 322 323 321 317 315 317 323 315
298 297 296 296 295 295 295 296 296 296 297 299 300 299 301 307 312 311 311 313 312 313 315 314 314 314 313 316 317 317 317 316 319 318 318 318 318 319 319 322 319 318 316 317 324 321 314
297 297 296 296 295 295 295 295 295 296 296 297 300 299 299 303 304 311 310 312 313 314 315 314 314 313 314 317 317 316 316 317 317 317 319 319 319 318 320 321 323 315 318 321 318 316 314
297 297 296 296 295 295 295 295 295 296 295 296 298 297 297 300 304 309 311 310 311 312 315 313 314 314 315 316 316 316 318 317 317 318 316 320 319 322 321 322 319 318 317 316 314 313 313

GFSGBSN_925_thetae_030.txt.gz
Theta_e
306 306 306 306 307 306 305 306 306 306 306 305 305 305 304 305 307 307 308 311 314 318 316 316 314 312 314 318 320 321 321 324 325 325 325 324 321 321 322 320 321 322 322 321 321 322 322
306 307 308 307 305 305 306 307 306 306 305 305 305 305 304 305 306 307 308 310 312 315 318 316 313 312 316 318 317 318 317 317 321 325 325 324 321 320 320 320 320 320 321 321 321 320 321
308 306 306 306 307 306 307 306 306 306 305 305 305 305 304 304 305 306 307 309 309 313 318 316 314 313 313 316 313 314 316 317 320 323 325 325 322 322 323 323 322 321 323 322 321 321 322
309 305 306 306 308 307 306 306 306 305 305 304 304 304 304 303 304 306 307 307 308 309 314 315 315 313 315 314 314 313 313 316 320 322 324 324 321 321 322 320 321 323 323 325 321 321 321
305 306 306 305 304 304 305 305 305 304 304 304 304 304 304 303 304 304 305 306 306 307 313 313 314 314 315 312 312 314 313 317 320 323 323 322 321 322 320 322 324 322 324 323 323 321 321
308 305 303 304 304 304 304 303 303 303 303 303 303 303 303 303 304 303 304 305 304 305 314 313 313 315 313 314 311 312 313 318 318 323 323 322 318 321 321 323 327 324 324 322 322 321 320
304 303 304 303 304 303 303 303 303 303 303 303 303 303 302 303 304 304 304 304 309 315 316 314 314 314 313 313 312 312 313 316 317 321 322 323 322 324 321 321 321 323 321 319 318 318 317
303 303 303 303 303 303 302 302 302 302 302 302 303 302 302 302 303 303 303 304 305 307 316 314 314 314 313 312 314 313 315 317 318 322 319 319 321 320 321 321 320 319 319 318 317 316 315
303 303 303 303 303 302 302 302 302 301 301 302 302 301 302 304 304 303 303 303 304 303 311 314 315 314 313 313 315 315 316 316 317 318 319 318 317 316 317 318 318 317 318 317 316 315 314
303 303 303 303 302 302 301 301 301 301 301 301 301 302 303 304 304 304 305 306 305 302 310 317 316 314 313 314 315 314 315 316 317 318 318 318 316 315 316 318 317 318 316 316 316 316 316
303 302 303 302 302 301 301 301 301 301 301 301 301 303 303 303 304 304 305 305 303 302 319 315 314 313 313 315 315 315 313 314 316 317 316 317 316 316 315 316 315 316 314 314 315 315 314
301 302 302 302 302 301 301 301 301 300 300 301 302 302 303 304 304 305 306 303 302 305 317 316 312 315 316 315 315 313 314 313 314 315 315 315 313 314 315 314 314 313 314 314 314 315 316
301 302 302 302 301 301 301 300 300 299 300 301 302 303 303 305 305 306 305 305 308 311 312 315 315 315 314 315 315 315 315 315 316 316 317 315 314 313 313 315 314 315 315 315 317 317 313
301 302 302 302 301 301 300 300 300 299 300 301 303 303 304 305 305 305 304 307 310 316 315 310 314 314 314 313 315 315 316 316 314 313 317 316 318 315 312 313 315 315 315 314 317 317 316
301 301 301 301 301 300 300 301 299 300 301 302 303 302 304 306 306 305 307 309 311 314 311 313 314 314 315 313 314 315 314 314 313 313 317 316 316 314 313 313 313 314 314 312 314 312 311
300 301 301 301 300 300 300 301 299 300 302 304 304 302 306 305 304 305 308 313 312 311 311 313 315 314 315 314 314 315 315 313 312 313 312 315 317 313 314 312 311 312 312 315 314 310 314
301 301 300 300 300 300 299 300 299 302 303 304 301 305 305 305 305 308 311 310 312 312 312 313 312 313 313 313 313 313 312 313 312 312 312 313 313 313 311 312 313 313 314 314 313 316 314
300 300 300 300 300 299 299 300 300 301 303 304 303 306 304 304 306 308 311 311 312 313 312 312 312 311 312 312 313 312 314 313 312 312 314 312 312 311 312 310 310 312 312 311 310 310 312
301 300 300 299 300 299 299 300 300 301 304 304 305 303 304 305 311 312 310 313 313 314 313 313 313 312 311 312 313 314 314 310 310 312 313 312 312 310 315 313 311 311 312 312 312 313 314
300 300 299 299 300 299 299 299 299 301 303 304 307 308 309 310 312 311 314 314 315 314 314 313 312 312 312 313 314 314 313 311 310 312 312 312 313 311 313 315 314 313 314 313 314 317 315
299 299 299 299 299 299 299 299 298 300 302 304 304 308 306 313 314 313 313 313 314 314 314 314 314 314 314 314 314 314 313 312 311 312 311 312 314 309 312 312 312 312 313 314 315 316 318
299 299 298 299 299 298 298 299 298 299 302 303 305 305 305 311 312 312 313 313 313 314 314 314 315 314 314 314 315 314 312 313 313 311 311 311 313 311 311 312 313 314 314 315 317 319 319
299 298 298 297 297 298 298 299 298 299 301 303 302 303 305 310 311 312 313 313 313 313 314 314 314 314 316 315 314 313 312 313 314 312 312 315 313 315 309 315 316 320 318 321 320 319 320
298 298 298 298 298 298 298 299 298 298 299 301 301 302 306 312 311 312 311 311 313 314 314 313 313 315 314 313 314 313 313 314 313 313 312 314 315 315 314 316 324 321 319 318 320 319 319
298 298 297 297 296 296 297 297 297 297 298 299 301 302 305 311 310 311 311 311 312 313 312 313 314 312 312 314 316 317 317 317 316 314 314 313 315 317 318 318 316 316 320 318 319 319 317
299 298 297 297 296 296 296 295 296 296 297 297 301 299 302 307 312 312 311 311 312 312 313 314 313 312 312 315 316 316 318 319 320 317 314 315 314 317 317 320 320 320 316 315 316 324 316
299 297 297 297 296 296 296 296 296 296 296 296 300 299 301 306 309 310 311 312 311 312 315 314 314 314 313 316 316 316 317 316 317 320 319 318 318 319 319 320 317 315 316 317 323 321 314
299 296 297 297 297 296 296 296 296 296 296 296 297 299 298 302 303 307 312 312 311 314 315 314 314 313 313 316 316 316 315 315 316 316 317 316 317 318 319 320 319 315 316 320 316 313 313
299 297 297 296 296 296 296 296 296 295 296 296 296 297 297 299 303 304 307 310 310 311 314 313 314 314 314 316 315 315 317 315 316 318 315 317 317 319 317 318 316 317 317 314 311 311 310

GFSGBSN_925_thetae_033.txt.gz
Theta_e
308 309 307 307 307 306 308 308 308 307 307 307 306 306 306 305 304 305 306 308 308 312 315 318 316 315 314 317 318 320 320 324 325 324 324 324 322 320 321 319 319 320 320 320 319 319 319
309 310 307 307 308 309 307 306 307 307 307 306 306 305 305 305 305 304 305 307 308 311 311 315 316 314 315 318 314 318 321 324 324 324 324 324 321 317 319 319 317 318 319 320 319 319 319
307 306 309 306 306 305 305 306 306 305 305 305 305 305 305 305 304 304 305 307 307 309 309 312 315 314 313 315 314 318 317 317 319 323 324 324 323 321 320 322 320 319 321 320 320 320 320
306 308 304 304 305 305 305 305 304 304 304 304 304 304 304 304 304 304 304 305 306 307 307 311 316 313 314 311 313 313 315 316 317 321 323 323 321 320 320 318 320 321 321 324 320 320 320
308 305 305 305 305 305 304 304 304 304 304 304 303 303 304 304 303 304 303 305 305 306 307 310 315 313 314 313 313 313 312 314 318 322 323 322 321 321 320 321 323 321 322 322 322 318 320
304 304 304 304 305 305 304 304 303 303 303 303 303 303 303 303 303 304 304 304 301 305 306 307 312 312 313 313 312 313 312 314 320 322 322 321 320 323 322 323 325 323 322 320 321 319 319
305 304 304 305 304 304 303 303 302 302 302 302 302 303 303 303 303 303 303 303 303 309 307 315 313 314 313 313 311 313 312 316 320 322 325 322 323 325 320 319 320 321 322 318 316 315 315
304 304 304 304 304 303 303 302 302 302 302 302 302 302 302 303 304 304 304 303 303 304 307 309 312 313 312 312 313 313 313 317 319 322 317 320 322 321 320 320 322 320 318 316 315 314 314
304 303 303 304 303 303 302 302 302 301 301 301 301 302 303 303 304 303 302 303 303 303 305 313 314 314 313 313 314 314 316 316 319 320 319 318 316 318 319 319 319 316 316 316 316 313 312
303 302 303 303 303 302 302 302 301 301 301 301 301 302 303 304 304 304 303 304 303 303 307 315 317 315 313 314 315 313 316 316 317 319 318 318 315 314 316 318 316 317 313 314 315 313 314
302 301 303 303 302 302 302 301 301 301 300 301 302 302 303 303 303 304 304 304 303 302 311 314 316 313 313 315 314 315 314 314 317 318 317 319 317 315 314 315 314 315 313 313 313 313 310
302 301 303 303 302 301 301 300 301 300 300 301 302 303 304 303 304 304 304 302 302 305 309 315 314 315 315 315 315 314 314 313 313 317 315 314 312 313 314 313 312 312 312 312 312 311 306
301 302 302 302 302 301 300 301 301 300 301 302 303 304 304 304 305 305 302 302 302 303 307 313 317 315 315 316 314 315 315 316 315 316 315 315 314 312 312 313 312 313 310 305 308 314 310
301 302 301 301 301 301 300 300 301 301 303 303 304 303 305 305 305 304 304 305 305 310 313 315 314 314 316 315 315 315 315 314 313 312 310 310 310 312 311 312 313 313 311 306 312 313 313
301 301 301 301 301 301 299 300 301 302 303 304 303 303 306 306 305 304 306 305 308 314 312 315 314 314 315 314 315 315 315 314 312 312 312 311 314 312 311 311 312 314 310 310 311 309 303
300 301 301 300 301 300 299 300 300 301 303 303 302 303 304 305 304 304 307 313 310 311 313 312 314 314 315 314 314 314 314 312 312 310 310 314 315 313 313 312 312 310 310 311 304 305 311
300 300 301 300 300 300 300 300 300 302 303 303 302 305 303 305 305 306 309 309 313 311 312 313 312 314 312 314 313 314 312 312 311 311 311 312 312 311 312 312 311 312 313 312 310 307 310
301 300 300 300 300 300 300 300 300 302 304 304 301 306 304 305 305 306 308 307 312 312 312 312 309 310 311 312 313 312 312 310 310 311 312 311 311 309 309 308 309 309 310 309 306 305 308
300 299 299 300 300 300 299 300 299 302 304 304 305 304 304 305 310 309 312 313 314 314 313 313 312 311 310 311 311 310 312 309 311 312 313 311 310 303 314 309 309 310 310 310 309 310 311
300 299 299 298 298 298 298 300 299 301 303 304 305 306 304 307 308 311 313 313 315 313 313 311 310 309 311 313 311 312 312 310 310 312 313 310 310 304 309 311 310 307 312 310 311 314 313
300 299 299 298 299 299 298 299 298 300 302 303 301 305 305 304 308 312 313 313 313 314 312 312 313 311 312 315 313 313 312 310 309 311 310 310 310 305 308 310 310 308 311 312 313 313 315
300 299 298 298 298 298 299 299 298 299 302 302 304 304 303 306 309 310 312 312 314 314 313 313 314 314 314 314 314 313 313 311 311 309 309 309 306 310 310 310 311 312 312 312 313 313 314
300 299 298 298 297 296 296 297 298 298 300 302 301 302 305 306 308 311 312 313 313 313 312 312 313 315 316 315 312 311 311 311 309 309 310 313 312 304 304 310 313 319 315 315 318 318 319
299 299 298 298 297 296 296 296 296 297 298 300 301 302 305 308 307 311 310 311 313 312 313 313 312 315 314 312 312 311 311 312 312 311 308 313 313 313 312 312 319 320 317 317 318 318 318
299 299 298 298 297 296 296 296 296 296 297 297 300 300 304 308 309 310 310 311 311 310 313 314 312 311 310 313 314 315 315 316 315 313 313 312 314 316 317 316 315 316 320 318 319 318 317
298 300 297 298 297 297 296 296 296 296 296 296 300 299 301 306 309 308 311 309 310 312 312 314 312 310 311 313 314 315 318 317 317 316 313 312 313 317 316 317 319 318 316 315 316 323 315
298 300 297 297 297 296 296 296 296 296 296 296 298 298 300 305 307 305 310 310 310 311 313 314 313 313 311 312 314 311 314 314 317 318 317 318 318 317 318 320 315 313 314 315 322 318 313
297 300 297 297 297 297 296 296 295 296 295 296 296 297 297 301 301 304 308 312 311 312 314 312 311 312 312 314 314 314 312 312 314 315 316 315 317 318 319 320 318 312 315 319 315 312 312
297 299 297 296 296 296 295 296 296 295 295 295 296 296 297 297 300 301 302 305 308 310 309 312 312 311 314 315 315 313 314 313 313 316 313 317 313 316 316 314 311 315 314 311 309 308 308

GFSGBSN_925_thetae_036.txt.gz
Theta_e
308 308 308 310 306 306 307 306 307 307 306 306 306 306 306 306 306 306 305 304 305 307 310 313 315 317 314 314 315 318 320 323 325 325 323 321 321 320 321 319 319 319 319 319 319 319 318
307 307 308 306 306 305 307 306 306 305 305 305 305 305 305 305 305 305 305 304 305 307 309 311 313 316 313 313 312 318 320 324 324 324 323 322 322 318 318 319 319 318 318 319 319 319 318
308 308 307 305 305 307 306 306 305 305 304 304 304 304 305 305 305 304 305 305 305 307 308 309 311 314 313 311 312 315 322 323 323 323 323 324 323 319 317 321 316 319 320 319 319 319 320
307 306 306 305 306 306 306 305 304 304 304 304 304 304 304 304 304 304 303 303 304 305 307 308 309 313 313 310 313 315 318 318 321 322 322 322 323 319 320 318 319 320 319 322 319 319 318
305 306 305 304 306 305 304 304 303 303 303 303 303 303 303 303 304 304 304 304 305 306 306 307 308 313 312 310 312 313 315 315 316 321 322 322 321 321 319 319 319 320 321 321 321 318 319
306 304 305 305 305 304 304 304 303 303 303 303 303 302 303 303 303 302 303 304 303 305 305 307 308 312 311 314 313 312 312 314 319 321 322 321 322 323 321 320 322 322 321 319 320 318 316
305 305 304 305 305 304 304 303 303 302 302 302 302 302 302 303 303 303 304 302 300 305 307 308 311 312 312 312 313 313 312 313 320 321 324 321 324 326 325 321 319 319 322 321 316 315 313
305 304 303 305 304 304 303 303 302 302 302 302 301 301 302 303 304 304 304 302 302 303 306 306 307 310 312 311 314 314 312 319 321 323 321 321 324 322 322 322 323 322 318 317 314 314 314
303 302 303 304 304 303 302 302 302 302 302 301 301 302 303 303 303 304 303 302 302 302 305 306 306 310 312 312 314 314 314 317 319 320 320 322 319 320 322 322 322 317 316 315 315 312 311
302 302 302 303 303 303 302 301 301 303 301 301 301 302 303 303 303 303 302 304 302 302 307 311 312 315 313 313 314 314 316 316 317 319 317 317 313 320 320 320 315 317 313 314 314 313 314
302 302 303 303 302 302 302 300 301 302 302 303 303 303 304 304 304 304 304 304 303 302 312 311 315 313 312 314 314 315 314 314 317 318 316 317 316 314 315 316 314 315 312 312 312 311 309
302 302 302 301 302 302 301 300 302 302 303 304 305 305 305 304 303 304 304 303 302 303 311 311 313 315 315 314 314 315 315 313 315 317 314 313 312 313 313 312 312 311 311 309 309 308 305
302 302 302 302 302 302 300 301 301 302 304 304 304 304 304 304 305 304 302 301 299 305 305 312 317 315 315 315 316 316 316 315 317 319 318 315 313 312 311 313 312 309 308 306 305 310 310
301 301 302 300 301 302 300 301 301 303 304 302 304 305 305 304 305 303 303 305 303 306 306 311 315 314 317 315 316 316 316 315 313 311 311 313 317 312 311 312 313 312 309 306 309 311 311
301 301 301 301 300 301 300 301 301 303 304 303 304 304 305 305 303 303 305 305 306 309 309 316 314 316 315 314 316 315 315 315 312 311 311 309 312 311 310 311 311 313 309 308 309 307 303
301 301 300 301 300 301 300 300 300 303 304 303 303 303 304 305 303 304 307 310 309 309 313 312 313 312 314 314 315 315 314 312 312 310 310 311 313 312 312 311 311 311 309 308 300 300 308
301 300 300 300 300 299 299 300 300 303 304 304 302 302 304 304 305 306 309 308 312 312 312 312 313 311 312 313 312 313 312 311 310 310 310 311 308 310 312 311 311 311 311 310 307 304 307
301 300 299 299 298 299 299 300 300 302 304 304 300 299 303 304 304 303 308 309 311 313 312 311 309 310 310 312 312 312 311 309 309 309 311 311 308 304 312 309 308 309 309 308 303 302 305
301 299 299 299 299 299 300 299 299 302 304 304 302 301 304 305 311 312 312 313 314 314 313 312 310 310 309 310 312 309 310 308 309 310 311 310 305 303 312 308 308 310 309 308 307 307 301
300 299 299 298 298 297 298 299 299 301 302 304 301 300 301 306 305 309 311 312 313 311 312 308 309 308 310 311 309 312 311 310 311 312 314 310 307 304 307 308 305 304 310 309 308 307 308
300 299 299 298 298 297 297 297 298 300 302 303 299 305 304 304 307 309 310 311 313 314 311 310 310 310 313 314 312 313 311 309 310 312 311 308 304 301 306 308 308 308 309 310 308 310 309
300 300 299 298 298 297 296 296 297 299 302 302 302 305 304 305 306 309 309 311 313 313 312 313 314 314 313 315 313 312 311 309 310 309 309 306 305 306 307 309 309 307 309 309 310 310 311
299 300 299 298 298 297 296 296 297 298 300 302 302 302 304 306 307 309 309 312 312 311 311 312 313 315 316 315 312 310 308 308 308 308 309 309 306 307 308 307 310 313 313 312 312 311 312
298 300 298 298 298 297 296 296 296 297 297 298 300 301 305 306 306 309 310 312 312 312 312 312 311 313 313 311 311 309 309 309 308 308 309 311 311 307 307 307 315 317 315 314 314 316 316
298 299 299 298 298 297 296 296 296 296 297 296 300 300 304 306 307 309 310 311 310 310 313 312 311 310 309 312 313 314 314 316 314 312 310 312 313 314 313 311 315 318 317 318 318 317 316
298 299 300 297 298 298 297 296 296 296 296 295 299 298 300 304 305 306 310 308 311 310 312 313 311 309 310 312 313 316 318 316 318 317 312 312 312 313 316 318 320 316 315 314 315 319 315
297 298 300 297 297 297 297 296 296 296 296 295 296 297 299 303 304 305 309 310 309 309 310 313 313 312 309 310 313 311 313 314 318 317 318 317 317 317 314 318 315 311 311 314 321 316 314
297 297 299 298 296 297 297 296 296 295 295 295 295 297 297 300 300 302 306 311 309 309 312 310 309 311 308 311 311 312 311 311 313 314 315 315 316 318 318 320 317 310 315 319 314 311 311
297 297 298 299 297 296 297 297 297 296 295 296 295 295 296 297 297 299 300 303 305 309 311 310 311 310 313 312 312 313 313 311 311 313 310 316 312 313 314 314 311 311 313 311 308 308 307

GFSGBSN_925_thetae_039.txt.gz
Theta_e
307 309 309 307 306 306 308 308 307 306 306 305 305 305 305 306 306 306 306 306 306 305 306 308 311 314 315 313 313 316 320 322 323 324 323 321 320 319 321 319 319 319 319 319 319 319 318
307 308 306 307 305 307 307 307 306 305 305 304 304 304 304 305 305 305 305 305 305 305 306 308 311 312 314 312 309 309 315 322 323 324 322 320 319 318 319 318 319 318 318 319 318 318 318
308 306 307 306 306 307 306 305 305 304 304 304 304 304 303 304 304 304 304 305 305 305 306 307 309 311 314 312 311 313 313 323 324 323 322 321 320 318 317 319 316 318 320 319 318 319 319
307 307 306 305 306 306 306 305 304 304 304 303 303 303 303 303 304 304 304 304 303 303 305 307 308 309 315 312 312 314 320 322 322 323 322 322 322 319 319 317 318 319 318 321 318 318 317
306 306 306 305 306 306 305 305 304 304 303 303 303 303 303 303 303 304 302 304 305 305 305 306 307 308 314 311 311 313 315 318 321 321 322 321 320 320 318 318 319 318 319 321 320 317 318
306 305 304 304 306 305 305 304 303 304 303 303 303 302 302 302 303 302 302 303 303 304 304 305 307 312 312 313 311 312 312 315 319 321 322 322 322 321 318 319 323 322 320 318 319 317 316
305 305 304 303 305 304 304 303 303 302 304 304 302 301 302 303 303 304 304 303 301 304 305 304 308 310 312 312 311 312 312 315 319 320 325 323 326 325 322 319 318 317 320 320 318 315 313
304 304 303 304 304 304 303 303 301 302 303 302 302 302 303 303 304 304 304 302 302 303 305 305 306 310 310 313 314 313 312 318 320 324 321 323 325 322 322 322 323 323 321 319 315 313 313
304 303 304 303 303 303 303 303 301 302 303 303 303 303 303 304 304 303 303 302 302 302 303 306 304 308 310 312 314 314 313 318 320 323 321 322 321 322 321 323 324 323 318 315 316 312 310
303 303 302 303 302 303 303 300 302 303 303 304 305 305 304 304 304 303 302 303 302 302 297 308 308 310 313 313 314 313 313 317 319 320 319 318 315 322 323 323 321 317 312 314 313 313 315
302 303 302 303 301 303 302 301 303 303 305 305 305 305 304 304 304 303 303 303 302 302 309 311 311 312 312 313 313 315 315 315 318 319 317 318 317 321 322 320 314 316 311 312 311 310 309
301 302 303 302 300 302 301 302 302 303 305 304 305 304 303 302 303 303 304 303 302 305 312 310 314 315 315 314 315 316 316 314 315 315 314 314 312 313 312 311 312 311 309 307 308 307 305
301 302 302 302 301 302 301 301 302 303 305 304 305 305 304 304 304 304 303 301 304 307 305 311 314 314 315 317 318 316 316 317 319 318 318 314 313 311 311 312 311 308 308 305 304 306 308
302 302 301 301 300 301 300 301 301 303 305 304 304 305 303 304 303 303 302 303 305 309 308 310 315 314 316 317 317 316 315 316 312 313 314 314 316 312 310 311 313 311 309 305 307 308 309
301 301 301 300 300 299 300 301 301 303 304 303 303 304 304 303 303 303 304 306 310 308 307 316 314 315 315 315 317 317 315 315 312 310 312 308 313 311 311 310 310 312 307 307 307 304 302
301 301 301 300 300 300 300 300 301 303 304 304 302 303 304 304 304 304 304 313 310 310 312 310 313 312 315 314 316 316 314 313 312 310 309 309 313 311 311 311 310 310 308 308 300 302 307
301 300 300 300 300 299 300 300 301 303 304 304 302 300 303 304 305 306 308 309 314 312 312 311 312 311 311 312 313 312 312 311 310 310 309 308 309 313 312 311 311 311 310 307 306 304 307
301 300 300 299 299 298 298 299 300 302 304 304 299 299 303 303 307 304 311 311 310 312 311 309 308 309 310 310 311 312 311 310 308 308 311 309 307 312 313 308 307 308 308 307 301 302 302
301 300 300 299 299 298 298 298 299 301 303 303 300 300 303 305 310 305 310 313 312 313 312 310 309 309 309 310 311 309 310 308 308 309 310 308 304 303 309 307 307 309 308 306 304 301 296
301 301 299 299 299 298 297 298 298 300 302 303 299 301 300 301 303 308 310 311 312 310 309 308 308 308 308 310 308 311 309 310 309 310 312 308 305 303 306 307 305 304 308 307 304 304 306
300 301 300 299 299 298 297 297 298 300 302 302 299 305 304 304 306 307 308 310 312 313 310 308 309 309 311 313 312 311 309 309 311 314 310 307 305 300 305 307 307 307 309 308 304 308 307
299 301 300 299 299 298 297 297 297 298 302 302 303 305 304 305 303 307 308 311 312 312 311 312 310 313 312 314 312 312 309 309 311 309 309 305 305 304 306 307 307 306 308 308 309 309 309
298 300 300 299 298 298 297 297 297 297 299 301 301 302 304 303 304 308 308 311 311 310 312 312 313 315 315 314 311 308 307 306 307 308 308 307 304 303 306 305 309 310 310 310 311 310 310
298 299 301 299 298 298 298 297 297 296 296 298 300 301 305 305 304 307 307 311 311 311 312 311 311 313 313 310 309 309 307 306 306 308 306 307 308 308 301 306 313 311 312 310 310 311 310
298 298 301 299 298 298 297 297 296 296 296 295 298 299 303 305 304 307 309 310 309 310 312 311 311 309 307 310 312 312 314 314 313 310 311 309 311 309 311 310 309 317 316 316 317 317 313
298 298 299 299 298 298 297 297 296 296 296 294 298 298 300 304 303 305 308 308 308 308 309 312 310 308 308 310 312 315 316 315 317 316 311 311 310 311 313 314 319 317 314 314 313 318 314
298 298 298 300 298 297 297 297 296 297 296 295 295 295 298 302 303 304 306 308 307 307 307 311 311 310 307 308 312 310 314 314 317 317 318 316 316 314 313 316 314 312 310 313 320 316 313
297 298 297 299 299 297 297 297 297 297 295 295 294 296 295 299 298 300 303 308 309 308 309 308 308 308 306 309 310 309 310 311 312 313 314 314 316 318 315 317 316 310 314 318 314 310 311
296 298 297 297 299 297 297 296 297 297 297 295 295 294 294 296 296 297 298 297 299 306 308 308 307 308 307 309 307 310 311 309 308 312 310 316 312 313 312 313 310 310 311 311 307 307 307

GFSGBSN_925_thetae_042.txt.gz
Theta_e
308 309 308 308 307 307 308 308 307 306 306 305 305 305 305 305 305 305 305 306 306 306 306 306 307 309 314 314 312 315 319 322 317 321 323 321 320 318 320 318 317 319 318 318 318 318 318
310 307 308 307 307 307 307 307 306 306 305 305 305 304 304 304 304 304 305 305 305 305 306 306 307 309 311 315 312 312 310 319 317 323 323 320 320 317 319 318 318 317 318 318 318 318 317
307 307 308 307 306 307 307 306 306 305 305 305 304 304 304 304 303 304 304 304 305 305 305 306 306 308 312 313 312 312 313 318 319 324 322 321 319 319 316 318 316 316 319 318 317 318 318
306 307 306 305 305 307 306 305 305 305 304 305 305 304 304 303 303 304 304 304 303 303 304 304 305 307 311 312 312 312 314 320 320 323 321 321 320 317 317 316 316 318 318 321 317 317 318
306 306 305 305 304 306 305 305 305 304 303 304 305 304 303 303 302 304 302 302 304 304 303 305 305 306 312 311 313 313 311 321 321 321 321 320 319 320 318 317 318 318 318 320 320 316 317
306 305 304 305 304 304 305 304 304 303 302 304 304 302 301 303 303 302 303 304 304 303 304 304 304 307 310 312 311 311 313 319 320 321 321 320 321 320 318 319 321 321 320 318 319 316 316
305 305 304 305 304 304 304 304 302 302 304 304 304 304 303 303 304 304 304 303 301 302 304 302 304 308 312 312 311 312 312 318 319 321 325 322 326 325 322 319 316 317 318 318 317 314 314
304 304 304 303 305 303 304 303 302 304 304 305 305 306 304 304 304 304 303 302 300 302 303 304 304 306 308 312 313 313 312 318 320 323 322 323 324 322 319 318 320 320 319 320 316 313 312
304 303 304 303 303 302 304 302 303 304 305 306 306 306 305 305 304 303 303 302 302 302 303 305 305 307 310 312 314 314 313 318 320 323 322 320 323 322 322 323 323 322 321 318 318 312 309
304 303 303 303 303 302 303 302 303 304 305 306 306 306 305 304 303 303 302 303 302 302 301 305 307 310 312 313 313 312 313 317 319 322 320 318 321 322 322 322 323 322 313 314 313 313 316
303 303 303 302 303 302 302 301 303 304 305 305 305 305 303 303 303 302 303 303 302 301 295 307 310 310 313 313 313 314 314 316 319 319 318 319 321 323 323 321 318 319 311 311 310 310 309
303 303 302 302 302 301 300 301 303 304 305 305 305 304 303 303 303 303 303 302 302 299 307 311 312 312 315 314 316 316 316 315 315 317 315 316 312 314 315 313 314 309 308 307 307 307 305
302 303 302 302 301 300 301 302 302 304 305 305 304 304 304 304 303 303 302 300 301 303 304 311 312 314 314 317 316 316 317 317 319 318 318 315 314 311 310 312 310 308 310 308 305 304 308
302 303 302 301 301 300 301 301 302 304 304 304 303 304 303 303 303 302 302 300 302 308 305 310 314 315 318 315 317 316 317 317 312 313 315 314 318 313 310 311 312 310 309 307 307 308 309
302 302 302 301 300 299 300 300 301 303 304 304 303 303 303 303 303 304 303 307 309 308 308 316 314 317 317 315 316 316 314 314 312 310 313 312 314 310 310 310 310 311 306 306 305 303 301
301 302 301 301 300 299 299 300 301 303 303 304 302 302 303 304 304 303 307 314 314 310 312 310 314 312 315 317 318 315 314 312 311 310 307 308 313 311 311 310 308 309 306 307 298 303 305
301 302 301 301 300 299 299 299 300 303 303 303 302 300 303 304 304 304 310 311 312 311 310 310 310 311 311 313 312 313 312 311 310 310 308 307 310 313 311 311 311 310 310 305 305 303 305
301 302 301 300 300 299 299 299 299 302 303 303 298 302 303 305 306 306 309 310 310 311 310 308 308 309 310 309 311 311 311 310 308 309 310 307 308 310 312 307 307 308 308 305 301 302 303
300 302 301 300 300 299 298 298 299 301 303 303 299 299 303 304 309 304 307 311 311 311 310 309 309 308 308 309 310 309 309 307 308 309 309 307 305 303 309 307 306 309 308 305 303 301 298
300 301 301 300 300 299 298 298 298 300 302 302 298 300 299 300 302 307 308 310 311 309 308 307 307 307 308 309 308 310 309 310 308 309 312 307 304 303 305 306 305 305 308 306 304 301 304
300 300 301 300 300 299 298 298 298 299 302 301 299 303 303 305 304 305 307 309 312 312 309 307 308 308 310 311 311 310 309 310 310 313 308 307 303 299 305 306 306 307 309 307 303 306 305
300 299 301 300 300 299 298 297 297 297 301 301 303 305 304 305 302 304 306 309 311 311 311 311 310 312 311 312 310 310 308 309 310 308 309 305 306 303 304 307 307 307 307 307 307 307 307
300 299 300 300 299 299 298 297 297 297 299 301 300 301 303 303 302 306 306 310 311 310 311 311 313 314 314 314 310 307 306 305 307 307 307 307 304 301 302 305 308 310 308 308 308 309 310
299 299 299 301 299 298 298 298 297 297 296 299 299 300 304 304 302 306 307 308 310 310 312 310 311 313 312 309 307 307 305 305 306 306 305 306 306 305 301 305 310 308 310 307 309 310 309
299 299 299 300 299 298 297 297 297 297 296 295 298 299 303 305 303 304 307 309 309 308 311 310 310 308 307 309 309 311 313 313 312 309 310 308 310 307 309 310 307 314 312 312 314 317 311
299 298 298 299 300 298 297 297 297 297 296 294 297 296 299 304 301 303 305 306 307 307 308 311 309 306 307 308 311 312 313 312 317 315 310 310 306 306 312 311 313 316 313 313 314 321 313
299 298 298 298 299 298 297 297 297 297 297 295 295 296 297 302 302 303 305 307 305 305 305 309 311 310 305 307 311 309 311 311 315 316 316 316 315 312 310 313 310 312 310 314 321 316 312
299 298 298 298 298 299 298 297 296 297 298 295 294 294 294 297 298 298 301 306 307 305 307 306 307 306 305 309 309 308 308 310 311 311 312 312 313 312 311 313 315 311 314 319 314 310 310
298 298 298 298 297 298 299 297 297 296 296 297 295 294 294 293 293 295 296 297 300 300 306 306 306 305 306 306 305 306 311 307 307 314 309 315 310 311 312 311 309 310 313 310 307 308 307

GFSGBSN_925_thetae_045.txt.gz
Theta_e
307 307 308 309 307 307 308 308 307 307 306 306 306 306 305 305 305 304 304 305 305 306 306 307 307 306 308 314 314 314 313 315 319 318 320 321 322 322 323 319 317 319 318 318 319 318 318
308 307 308 307 307 305 307 307 306 306 306 306 305 306 305 305 304 304 304 304 305 305 305 306 306 307 308 315 313 315 313 315 318 319 321 320 320 319 320 319 319 318 318 318 318 318 317
307 307 306 306 305 305 307 306 306 306 305 304 304 305 305 304 304 304 304 304 304 304 304 305 306 305 308 312 312 312 314 317 317 319 322 320 318 318 316 318 316 316 319 318 318 317 318
307 306 306 306 306 305 305 306 305 305 304 304 304 305 305 303 303 303 303 303 304 303 302 303 305 305 308 310 312 312 314 316 317 320 322 322 318 316 317 315 317 319 318 321 317 317 317
306 306 305 305 304 305 305 306 305 303 305 305 306 305 304 302 303 304 303 303 303 305 303 303 304 305 309 311 312 312 313 314 318 320 321 321 319 320 317 318 320 318 320 319 319 317 317
306 305 305 305 305 304 304 306 303 304 306 306 306 307 306 305 303 304 304 305 304 303 304 304 303 305 307 312 312 312 311 314 319 320 320 320 320 320 318 319 322 322 319 319 318 315 316
306 305 304 305 304 303 304 305 304 305 306 306 306 306 305 305 304 304 304 302 299 301 303 301 302 304 310 312 312 312 314 318 318 320 322 320 322 321 322 318 315 317 318 319 317 313 314
305 304 304 303 304 303 304 304 303 305 305 306 306 306 306 305 304 304 303 300 300 301 302 303 304 305 305 306 314 313 313 320 322 322 321 322 321 319 319 317 317 318 318 318 316 312 312
304 304 304 303 303 302 303 302 303 304 305 306 306 306 305 304 304 303 303 301 302 301 301 304 304 306 307 311 314 314 314 318 321 318 312 321 322 319 320 321 322 320 320 317 319 312 309
304 304 304 303 302 302 301 302 304 304 306 306 305 306 305 303 303 303 302 303 302 301 293 304 306 309 309 312 315 312 313 317 319 316 314 314 322 322 322 322 322 324 314 314 313 315 318
304 303 303 303 302 302 302 303 303 304 306 305 305 305 303 303 303 302 303 302 302 301 302 304 309 308 312 314 313 315 314 316 319 318 319 318 322 323 321 321 320 319 312 311 310 311 311
303 303 303 302 302 301 301 301 302 304 305 304 303 303 303 303 302 302 302 301 301 295 308 310 311 313 315 313 316 316 316 315 314 316 315 315 313 317 317 314 316 309 309 307 307 308 315
303 303 302 302 302 301 300 301 302 304 304 305 303 303 302 303 302 302 302 300 296 305 302 311 311 314 315 315 316 316 317 318 319 318 318 316 315 311 313 316 311 310 315 315 311 311 317
302 303 302 302 301 300 300 300 301 303 304 304 303 303 302 302 302 303 303 298 305 309 308 311 314 315 318 315 316 316 316 317 312 313 314 317 319 314 310 312 317 311 312 315 313 311 310
302 303 302 302 301 300 300 300 301 302 304 305 302 303 303 303 303 304 305 311 309 303 308 316 314 314 316 314 315 316 312 314 311 310 316 314 314 310 310 309 310 311 312 305 306 303 308
302 302 302 302 301 300 300 300 300 302 303 304 302 301 302 303 303 303 306 314 313 309 311 309 313 312 315 315 316 315 315 312 311 309 307 309 315 311 310 309 308 309 306 311 305 309 310
301 302 302 301 301 300 300 299 300 301 303 303 301 301 303 305 303 303 309 310 312 310 309 310 310 310 312 313 312 313 311 312 310 309 306 307 311 313 311 311 311 310 310 306 305 304 307
301 301 302 301 301 300 299 299 299 301 303 303 298 303 303 305 304 305 311 310 310 311 309 308 307 308 309 309 310 311 310 311 308 308 310 307 310 315 312 307 306 308 308 305 307 305 304
301 301 301 301 301 300 299 299 299 300 302 302 299 299 302 304 304 301 306 309 310 309 307 308 309 308 307 308 310 309 308 307 308 308 308 306 305 309 313 308 306 309 307 304 302 302 304
301 300 301 301 300 300 299 298 299 299 301 300 297 299 299 299 300 306 307 309 311 309 308 306 307 307 308 308 307 309 309 309 307 309 310 306 304 305 307 307 306 306 308 305 305 306 306
300 300 300 301 300 300 299 298 298 298 301 300 297 302 303 305 303 303 306 308 311 311 308 306 308 308 309 310 310 309 309 309 309 312 307 306 304 299 305 306 305 307 309 307 305 306 308
300 300 300 301 300 299 299 298 298 297 300 301 301 303 303 304 301 303 305 309 311 311 311 310 309 310 310 309 308 309 308 308 309 307 307 304 308 303 304 307 306 307 308 308 307 307 306
300 300 299 300 299 299 298 298 297 297 299 300 300 301 303 302 301 304 306 308 310 309 310 310 310 311 312 312 310 307 305 305 306 307 307 307 305 301 303 305 307 310 308 308 307 307 308
300 299 299 299 301 299 298 298 297 297 294 298 298 300 304 304 301 304 305 307 310 310 311 310 310 312 311 305 305 305 303 304 305 305 304 306 305 302 303 304 310 307 308 307 308 308 308
300 299 299 299 300 299 298 297 298 297 296 295 296 298 302 304 304 302 303 306 307 307 310 310 309 307 306 308 309 310 313 312 311 309 308 308 309 307 307 310 306 312 310 308 310 315 309
300 299 299 298 299 299 298 297 297 298 297 295 295 295 299 303 300 302 304 305 305 306 307 310 308 305 306 308 311 312 313 310 315 313 310 308 306 307 307 310 311 310 313 311 314 321 314
299 299 298 299 298 298 299 298 297 297 298 296 294 294 295 299 299 302 305 306 305 304 304 307 309 309 304 307 313 312 310 309 314 313 315 314 312 311 309 310 308 306 312 313 322 318 311
300 299 298 299 299 298 298 299 297 296 297 297 295 294 293 294 294 297 299 304 306 305 305 305 307 305 304 309 311 309 307 309 311 310 311 312 312 313 311 311 310 310 313 318 317 310 310
300 299 298 299 298 297 298 299 298 297 297 297 296 295 294 293 293 294 294 294 297 298 301 307 305 304 305 305 304 304 308 305 307 316 307 311 307 308 308 309 306 309 314 313 309 309 308

GFSGBSN_925_thetae_048.txt.gz
Theta_e
309 308 308 307 307 307 307 307 307 307 307 307 306 305 306 306 306 305 305 304 305 305 306 307 307 306 307 307 310 313 314 314 321 319 319 321 323 324 324 322 321 320 320 319 319 321 321
308 308 306 307 307 306 305 306 307 307 306 305 305 305 306 306 305 305 304 304 305 305 305 306 306 306 307 308 309 313 313 315 318 319 319 320 320 321 322 322 321 320 320 320 319 320 320
307 307 307 307 306 306 308 305 307 306 304 305 307 307 306 306 304 304 304 304 304 305 305 304 306 306 307 307 312 312 314 314 318 318 319 320 319 321 320 321 320 320 321 319 320 319 319
308 306 306 306 306 305 305 305 307 305 306 307 307 307 307 305 303 303 304 304 303 303 303 304 303 306 307 307 310 312 313 314 318 317 319 320 320 319 319 318 320 321 319 322 318 320 320
307 306 305 306 305 305 305 305 306 305 306 307 307 307 306 305 305 304 304 305 305 305 305 303 304 306 307 310 311 312 314 314 318 317 320 319 319 320 318 320 321 319 317 317 318 319 318
307 305 305 305 304 304 304 306 304 305 306 307 307 306 306 306 305 304 304 305 304 304 305 304 303 306 306 311 313 312 314 315 318 317 320 320 321 322 321 320 319 319 317 318 317 318 320
305 305 305 305 304 304 303 303 304 306 306 307 307 306 306 306 304 304 304 303 303 304 304 303 304 305 308 309 312 312 314 316 317 320 320 320 323 324 322 319 317 318 317 316 317 315 318
305 305 305 304 304 303 303 304 305 305 307 307 306 306 306 304 303 304 303 303 302 303 304 304 304 304 305 307 314 313 314 318 319 319 320 321 323 319 319 319 319 318 317 317 318 315 317
305 304 305 304 303 303 302 304 304 305 306 306 306 305 305 304 303 303 303 302 302 302 304 304 304 305 308 309 314 314 315 317 319 319 322 322 320 317 321 320 319 320 318 320 320 316 313
305 304 305 304 303 302 302 302 303 304 305 306 306 305 302 303 304 303 304 303 302 302 306 305 308 309 310 313 315 313 313 317 312 316 315 318 320 319 318 320 319 321 319 319 318 320 321
304 304 304 303 303 302 301 301 303 304 305 306 305 305 302 302 304 303 303 301 301 303 313 304 309 307 312 313 314 316 314 317 314 315 317 318 320 322 321 320 319 319 316 316 316 319 318
304 303 304 303 303 302 301 301 302 303 304 305 306 303 302 301 303 302 301 301 302 309 312 310 309 313 314 314 316 316 316 315 316 318 317 315 315 317 317 315 318 311 313 312 313 316 325
304 303 303 303 303 302 301 301 302 302 304 304 306 303 302 302 304 302 302 303 312 313 307 312 314 314 315 317 316 317 317 319 321 321 322 317 315 314 314 315 313 316 320 325 326 325 324
303 303 303 303 303 302 301 301 301 302 303 304 305 303 303 302 302 303 304 307 315 310 312 311 315 315 316 316 315 315 317 318 315 318 320 322 320 315 312 317 319 318 321 324 323 316 314
303 303 303 303 302 302 301 301 301 301 302 304 303 302 304 303 303 304 307 314 313 311 310 315 314 315 316 315 316 316 315 317 314 315 320 320 319 312 311 311 314 316 321 309 313 308 315
302 302 302 302 302 301 301 300 301 301 302 304 302 303 304 303 303 305 314 314 315 310 312 311 315 314 315 315 316 316 317 314 313 311 309 314 318 312 311 311 310 314 310 317 316 319 319
302 302 302 302 302 301 301 300 300 301 302 303 302 309 303 303 304 312 312 313 313 312 311 311 313 314 314 314 315 315 314 313 311 311 310 313 316 314 313 315 315 312 314 311 311 311 312
302 301 302 302 301 301 301 300 300 300 302 303 303 316 303 304 315 311 315 313 310 312 309 310 311 312 313 313 314 314 315 313 311 310 312 310 315 317 315 309 309 311 313 311 316 314 310
301 301 301 302 301 301 300 300 299 300 301 301 306 307 303 305 318 315 311 312 312 311 310 310 310 310 309 312 314 312 311 309 310 311 312 311 314 316 315 312 310 312 311 309 308 310 314
301 301 300 302 301 300 300 299 299 299 300 300 306 314 310 308 306 311 312 313 312 310 309 308 309 309 310 311 310 312 311 311 309 311 309 309 309 314 314 313 313 314 312 309 313 315 312
301 301 300 301 301 300 299 299 298 297 300 300 304 304 303 313 311 309 309 311 313 312 311 309 310 310 311 312 311 311 312 311 311 311 309 311 315 308 309 310 310 311 312 310 310 313 317
300 300 300 300 301 300 299 299 298 296 299 302 304 303 304 306 305 308 309 312 313 312 312 311 310 312 311 311 310 311 311 312 312 310 310 308 313 309 311 309 309 311 311 311 311 311 311
300 300 300 300 301 300 299 298 298 297 297 301 301 301 303 305 307 309 311 311 312 311 312 312 311 313 313 313 311 310 309 310 310 311 311 311 311 312 314 308 310 314 312 311 311 310 311
300 300 299 299 299 300 298 298 298 298 295 298 298 299 304 307 306 308 307 308 311 312 312 312 312 313 309 306 307 308 309 309 310 309 309 310 311 311 313 311 317 311 310 310 310 310 310
300 299 299 299 299 299 299 297 298 298 297 295 295 298 301 304 304 305 305 306 309 309 312 312 311 310 309 310 312 313 313 312 312 310 310 309 311 313 313 313 312 312 311 311 312 315 310
299 300 298 298 299 298 299 298 298 297 298 296 294 294 298 300 303 302 304 305 310 311 312 312 309 308 309 313 314 315 314 313 314 313 311 309 310 312 311 312 315 316 315 312 313 323 315
300 300 299 299 299 299 298 299 299 298 297 297 294 294 296 299 299 301 304 305 306 307 310 311 312 311 308 314 315 316 314 312 315 313 314 313 313 314 312 312 311 310 313 313 321 321 316
299 300 300 299 299 299 298 298 299 298 297 296 296 295 294 296 295 296 300 301 303 307 310 309 311 310 311 315 314 313 314 314 313 312 312 312 313 313 312 312 313 309 313 317 317 313 313
298 300 300 299 297 298 298 298 298 297 298 298 296 295 294 295 296 294 295 295 295 296 298 303 310 309 312 314 311 311 313 312 314 316 311 314 312 312 311 311 309 312 316 315 312 312 311

GFSGBSN_925_thetae_051.txt.gz
Theta_e
309 308 309 308 308 308 307 307 308 308 307 306 306 308 308 307 307 306 306 306 305 306 306 307 307 305 307 309 308 313 318 320 321 320 318 319 319 323 323 321 320 321 320 320 320 321 321
309 308 308 307 308 307 307 306 307 308 306 307 308 308 308 308 306 306 305 305 305 305 305 305 306 304 307 310 307 307 314 317 321 320 316 318 318 321 321 321 320 320 320 320 320 321 321
308 308 307 307 306 306 307 306 308 306 306 307 308 308 308 307 305 305 304 305 305 305 305 305 305 305 307 308 308 312 314 316 318 320 317 317 316 321 321 322 320 320 320 320 320 320 321
308 307 307 307 307 305 306 306 306 306 307 308 308 307 307 307 306 305 304 305 305 303 303 305 305 305 307 306 306 310 314 315 317 320 316 317 318 319 320 319 320 320 321 322 319 320 319
307 307 307 306 305 305 305 305 305 307 307 308 308 307 306 307 307 305 304 305 306 306 306 303 304 306 307 306 309 309 315 314 319 319 316 319 320 320 320 321 322 321 319 320 319 318 320
307 307 306 306 305 304 304 306 306 306 307 308 307 306 307 307 306 305 304 302 303 305 305 304 304 306 306 309 310 313 315 314 319 318 320 320 320 322 321 320 320 319 318 317 316 320 318
306 306 306 306 305 304 303 304 305 305 307 307 307 306 305 305 304 304 305 305 306 306 305 305 305 306 307 309 311 313 313 316 318 318 320 321 322 322 320 318 316 316 317 315 316 318 319
306 306 306 305 304 304 303 303 304 305 306 307 307 306 305 305 304 302 305 304 304 304 305 304 304 304 306 306 314 315 314 319 317 319 320 322 322 320 318 317 317 317 317 317 318 317 317
306 305 305 305 305 304 303 303 303 305 306 306 306 306 305 303 303 304 304 304 304 303 306 305 305 307 307 308 314 315 314 317 316 319 319 321 319 319 320 318 318 316 317 316 318 318 317
305 305 305 305 304 304 303 303 303 304 305 305 305 306 303 303 305 305 304 304 304 304 310 308 309 307 310 311 315 313 313 316 315 320 320 319 320 320 320 319 317 318 317 318 320 319 317
305 304 305 304 304 304 303 303 303 303 304 305 305 306 302 304 305 304 303 303 303 305 313 309 309 308 311 315 315 313 313 314 316 316 318 317 320 321 321 320 317 320 320 320 320 320 321
305 304 304 304 304 303 303 302 302 303 303 304 305 305 303 306 305 303 304 304 304 312 315 312 310 314 314 315 317 314 316 315 315 314 315 316 314 318 319 317 318 317 318 318 318 320 326
304 304 304 304 304 303 303 302 302 302 302 304 305 304 304 305 307 304 305 306 313 316 310 314 316 315 315 317 318 315 316 317 318 319 319 314 313 315 315 317 315 317 322 326 327 328 325
304 303 303 304 303 303 303 303 302 302 302 303 304 302 305 305 305 305 306 311 318 314 315 313 316 315 318 316 317 316 318 320 318 319 321 321 320 311 314 317 319 320 322 326 324 325 322
303 303 303 303 303 303 303 302 302 301 301 303 304 306 307 307 305 306 310 316 317 315 313 315 315 316 317 316 317 317 318 318 317 317 321 321 320 313 313 315 317 317 323 313 316 312 316
303 303 303 303 303 303 302 302 301 301 301 303 306 307 308 306 306 306 315 315 315 312 314 313 316 315 316 316 318 318 319 315 316 314 313 317 319 313 312 313 312 319 317 322 321 324 320
302 302 302 303 303 302 302 301 301 301 300 303 307 312 308 304 307 314 315 316 313 312 312 313 314 314 315 316 316 317 317 315 314 313 313 316 317 316 314 316 317 315 317 315 316 315 319
302 302 302 303 302 301 301 301 300 300 300 304 309 318 307 307 318 318 318 314 311 313 311 312 313 314 315 315 316 316 317 316 312 312 315 314 317 318 317 312 311 314 316 316 320 319 314
302 302 301 302 302 301 301 301 300 300 300 303 309 311 307 309 320 318 313 313 313 312 311 312 312 312 312 314 315 314 314 312 312 313 314 313 317 318 317 314 312 314 314 313 312 314 320
301 301 301 301 302 301 300 300 300 299 299 303 308 314 314 312 312 315 314 313 314 312 311 310 311 311 312 313 313 314 314 312 311 312 309 311 314 317 319 317 316 317 315 314 315 319 315
301 301 301 301 301 300 300 299 299 296 300 303 307 307 304 316 315 313 313 313 313 313 312 310 311 311 313 314 313 313 313 313 312 310 311 313 317 312 312 312 313 314 314 313 314 314 319
300 301 300 300 301 300 299 298 299 297 300 303 305 304 305 308 309 311 311 314 313 313 313 312 312 311 311 312 312 312 313 313 313 312 312 312 316 312 313 311 311 313 312 313 312 312 312
300 300 300 300 300 300 298 298 298 298 297 301 301 303 304 308 311 312 314 313 313 312 313 313 312 312 312 313 312 312 311 311 312 312 312 313 314 314 316 310 311 314 313 312 313 312 312
300 300 300 300 299 299 299 298 298 299 297 298 298 300 304 308 309 310 309 310 313 313 313 313 313 313 311 309 310 310 311 311 311 311 311 313 313 314 316 312 317 314 312 312 312 312 312
299 299 299 298 299 298 299 299 299 298 297 297 297 298 301 302 305 307 307 308 310 312 313 313 313 312 310 311 313 313 313 312 312 311 311 311 312 314 316 315 314 312 311 312 314 316 312
299 299 298 299 300 299 299 299 298 299 297 298 297 296 298 300 304 303 305 306 309 312 313 313 311 310 312 314 314 315 314 313 314 314 312 311 311 313 313 315 316 318 314 312 313 321 313
299 299 300 300 300 299 298 298 299 298 298 297 297 296 297 299 298 301 302 305 307 310 312 313 313 312 310 315 314 314 314 312 314 313 314 313 313 314 313 313 313 311 315 314 321 322 316
299 298 300 300 299 298 298 298 298 298 298 298 298 296 296 297 296 296 297 299 301 304 311 310 313 313 314 315 314 313 313 314 313 312 312 313 313 313 313 314 313 310 315 317 317 315 313
298 299 300 301 299 297 296 298 298 298 298 298 298 297 296 296 296 296 296 296 296 296 296 301 307 311 313 314 313 312 312 314 313 314 312 313 312 313 312 312 311 311 315 316 315 314 312

GFSGBSN_925_thetae_054.txt.gz
Theta_e
310 309 310 308 308 307 307 308 307 309 307 308 309 309 309 309 309 308 305 306 306 306 306 306 307 307 306 308 309 308 313 313 319 321 319 320 316 322 323 321 321 322 320 319 320 321 320
309 309 309 308 308 307 307 307 308 307 307 308 309 309 308 308 308 306 306 305 306 306 306 305 305 305 306 309 307 307 310 317 320 320 319 319 317 319 321 320 320 320 320 320 319 321 321
309 308 308 308 307 307 306 306 307 307 308 308 309 308 307 307 307 306 305 305 305 305 305 306 306 305 306 307 307 312 308 315 318 320 320 317 316 319 321 322 319 320 320 320 320 320 321
309 308 308 307 307 306 306 306 307 307 307 308 308 308 307 307 307 305 305 305 305 306 304 305 306 305 306 306 305 309 312 313 316 319 318 317 316 318 320 320 320 321 320 322 319 320 320
308 308 307 307 307 306 305 305 306 306 307 308 308 307 306 307 306 305 304 304 306 306 306 304 305 306 306 306 307 307 310 314 316 319 319 317 319 320 320 322 322 321 322 321 321 319 319
308 308 307 307 306 306 305 305 305 306 307 307 307 307 306 305 305 305 301 302 304 305 305 305 305 306 305 308 307 307 308 315 317 320 319 319 320 322 321 323 326 322 321 320 320 318 319
307 307 307 307 306 305 305 304 305 305 306 307 307 307 306 305 302 302 305 305 306 306 305 305 306 306 307 306 309 311 312 315 319 319 322 320 321 323 321 320 318 317 318 318 317 318 318
307 306 306 306 305 305 305 304 304 305 305 306 306 306 306 306 304 305 305 305 304 304 306 304 305 304 307 308 311 311 313 317 321 320 319 321 322 319 319 319 318 317 317 316 316 317 318
306 306 306 306 305 305 304 304 304 303 304 305 306 306 306 304 304 305 304 304 305 304 307 307 307 308 307 307 311 313 314 317 318 318 320 319 319 317 318 319 318 317 317 315 317 317 316
306 306 306 306 305 305 304 304 304 303 304 304 305 306 306 303 305 305 304 304 304 304 310 309 309 308 309 305 308 313 314 316 317 318 319 320 319 320 321 320 318 317 315 316 319 319 317
305 305 305 305 305 305 305 305 304 303 303 303 305 306 305 303 306 305 304 304 304 305 313 309 308 309 309 312 312 312 313 316 318 318 319 318 320 321 322 321 317 318 318 319 320 320 320
305 305 305 305 305 305 304 304 304 303 303 303 304 306 304 307 306 304 305 305 306 311 316 311 310 314 314 315 314 313 316 315 315 316 313 316 315 318 321 319 318 319 318 318 319 320 324
305 304 304 305 305 304 304 304 304 303 302 303 304 304 303 305 307 305 305 306 311 316 311 314 316 312 315 316 314 315 318 319 319 319 319 312 312 314 316 319 319 318 319 320 323 323 323
304 304 304 304 305 304 304 303 303 303 302 300 304 303 306 305 306 305 306 311 314 313 315 314 316 316 317 316 316 314 316 320 316 319 320 320 317 313 314 318 318 318 320 321 322 324 319
302 304 304 304 304 303 303 303 303 302 300 302 306 307 307 308 306 305 309 314 314 315 311 316 316 317 317 317 316 317 319 319 319 318 320 321 318 312 314 316 317 319 322 312 316 312 316
302 303 303 303 304 303 302 302 302 301 299 304 306 308 310 307 307 306 313 315 315 313 314 313 315 315 315 318 318 318 319 316 316 314 313 316 318 314 314 315 314 317 318 320 315 318 319
301 303 303 303 303 302 302 302 302 301 299 304 308 312 307 306 307 312 312 313 314 313 312 313 315 314 314 316 317 317 318 315 315 312 313 316 317 317 315 317 317 316 319 318 316 314 318
301 302 303 302 303 302 302 301 301 300 300 303 309 317 308 308 317 321 318 314 312 313 312 312 313 314 315 314 315 316 317 316 312 313 315 314 316 319 317 312 312 313 317 316 322 322 311
301 302 302 302 302 301 300 301 301 298 301 302 308 311 309 310 322 319 313 313 313 313 311 312 313 313 313 315 315 314 315 313 312 313 314 314 316 316 316 314 312 314 314 314 311 312 314
300 301 301 301 302 302 300 300 300 296 301 303 308 313 310 314 312 314 314 314 314 312 312 311 312 312 313 313 313 314 314 313 311 312 310 311 314 315 314 316 315 313 314 313 310 310 314
299 300 301 301 301 301 301 300 299 295 302 303 307 307 305 311 315 311 313 314 314 314 312 311 311 312 313 314 313 314 314 313 312 310 311 313 310 305 312 313 313 314 314 314 308 312 310
299 300 301 301 301 301 300 300 299 296 300 302 304 303 304 306 309 311 312 315 314 313 313 312 312 311 312 312 312 313 313 313 314 311 312 312 311 310 313 311 311 310 312 312 312 312 312
300 300 300 300 300 300 300 300 299 298 298 300 299 301 304 306 310 312 312 312 314 313 313 312 313 312 312 314 312 311 310 310 311 312 311 313 310 310 313 310 311 311 311 311 312 312 312
300 299 299 298 300 300 300 300 300 299 297 298 297 298 302 306 307 309 308 309 311 312 314 313 313 313 310 310 310 310 310 311 311 311 310 312 312 312 312 310 311 312 312 311 311 312 311
300 299 299 298 299 299 300 299 299 299 296 298 297 297 299 300 299 303 305 307 308 311 313 313 313 310 309 311 312 313 313 312 312 311 310 310 311 312 311 310 311 311 311 312 312 312 310
300 299 299 299 299 299 298 299 298 298 298 298 297 297 298 299 300 298 300 304 307 310 313 314 311 310 311 314 313 315 315 313 314 313 311 310 309 311 314 311 314 318 312 312 312 319 312
300 300 300 300 299 299 298 297 299 298 298 298 298 297 297 298 298 297 301 302 305 307 310 312 313 312 310 313 313 312 314 312 314 313 314 313 311 312 312 313 310 313 313 313 320 320 314
300 300 300 300 299 299 297 296 298 298 297 298 298 298 296 297 296 296 296 296 299 301 308 304 311 312 312 313 313 312 311 312 312 312 311 312 312 313 313 315 311 312 314 317 314 313 312
301 298 299 300 300 298 296 297 299 298 298 298 298 297 296 297 296 296 296 296 296 296 297 298 303 307 312 313 311 311 311 310 311 314 309 311 310 311 310 311 310 310 314 313 312 311 311

GFSGBSN_925_thetae_057.txt.gz
Theta_e
310 310 309 309 309 308 307 308 308 308 309 309 310 310 309 308 308 308 307 305 306 307 306 306 307 306 305 307 308 308 309 313 313 319 319 319 318 322 323 323 322 323 321 321 320 319 320
310 310 309 309 308 307 307 306 307 308 308 309 309 309 308 307 308 308 305 306 306 306 306 305 306 304 305 307 306 307 307 312 316 318 319 318 313 319 321 322 320 320 321 320 318 320 320
310 309 309 308 308 307 306 306 307 307 308 308 309 309 307 308 308 306 306 305 306 306 305 305 306 305 306 306 306 308 310 310 315 317 319 318 316 319 319 320 318 318 322 320 319 319 320
309 309 308 308 307 307 306 305 306 307 308 308 308 308 306 307 306 304 305 304 305 304 305 304 306 305 306 304 305 306 309 311 314 317 318 318 317 316 319 319 318 320 320 323 319 319 319
309 308 308 308 307 307 306 305 305 306 307 308 308 308 305 306 305 304 301 301 305 306 306 306 305 305 306 306 306 306 306 310 314 316 318 318 317 319 319 320 321 321 322 321 320 318 320
308 308 307 307 307 306 306 305 304 305 306 307 308 307 306 306 304 302 304 302 304 305 305 305 305 306 305 307 307 307 307 308 315 318 320 319 319 319 321 320 324 322 320 321 319 318 319
308 307 307 307 306 306 305 305 305 305 305 305 306 306 307 302 306 305 305 305 303 304 305 305 306 305 306 306 309 310 308 310 315 319 320 319 319 321 321 319 318 318 319 320 319 317 319
307 307 307 307 306 306 306 306 304 304 304 304 305 306 306 303 304 305 304 303 304 303 305 305 306 305 307 307 309 310 308 315 318 319 319 320 319 317 318 319 320 317 318 317 316 317 317
307 306 306 307 306 306 306 305 306 305 304 304 304 305 306 306 304 304 303 304 304 304 305 307 306 307 306 307 307 310 312 315 316 318 318 318 317 317 319 319 320 315 314 315 316 316 315
306 306 306 306 306 306 306 305 305 305 304 303 304 305 305 303 306 305 303 303 303 304 306 310 308 308 307 304 311 312 313 314 317 319 318 319 317 317 317 319 317 316 314 316 317 316 317
306 306 305 306 306 305 305 305 305 304 304 303 304 305 305 305 304 304 304 304 304 304 309 309 308 308 305 307 311 312 312 315 318 316 316 319 318 320 320 319 318 317 316 317 317 316 317
305 305 305 305 305 305 305 305 305 304 303 303 303 305 304 306 306 304 304 305 305 304 314 311 307 307 309 307 313 311 315 314 315 316 314 315 314 318 320 320 319 317 316 316 316 317 318
304 302 304 305 305 305 304 304 304 304 303 302 304 305 303 305 306 305 305 305 307 308 310 315 315 315 315 315 315 316 317 317 318 319 317 315 313 313 316 319 318 317 317 314 315 314 317
303 302 303 304 305 304 304 303 304 304 301 300 304 303 306 305 306 305 306 307 308 312 311 314 316 316 317 316 315 315 318 317 316 314 312 315 317 316 314 317 320 318 315 314 316 317 317
301 301 303 303 304 304 303 303 303 303 299 302 307 306 307 308 306 305 308 306 306 308 309 315 316 317 317 317 315 318 317 318 317 316 317 317 315 312 314 316 317 318 315 312 312 311 309
300 301 303 303 303 304 303 303 302 302 298 302 305 307 308 307 306 306 308 311 313 311 314 314 315 314 315 318 317 317 317 316 318 316 315 317 317 314 315 316 315 317 316 318 309 315 315
300 301 302 302 302 303 302 302 302 302 300 303 307 306 306 306 307 307 310 307 313 313 311 312 314 314 314 316 316 316 316 314 313 312 311 314 313 317 315 317 320 317 319 317 315 310 314
300 300 303 302 302 302 302 301 301 301 302 303 303 305 306 307 310 304 305 312 312 312 311 312 312 313 313 315 314 316 315 313 311 312 316 314 314 317 317 314 314 314 317 316 316 318 308
300 300 302 302 302 302 301 299 298 299 302 302 301 304 307 308 310 309 312 313 313 312 311 311 312 312 312 313 314 313 313 312 311 312 313 313 314 314 315 312 312 315 315 316 311 311 315
300 299 301 302 302 302 301 299 298 296 300 303 301 304 301 305 306 311 312 313 314 311 311 310 311 310 312 312 311 313 313 312 311 310 310 311 312 311 314 315 313 313 314 312 310 307 311
299 299 299 301 301 301 300 299 298 296 301 303 299 304 303 301 308 307 309 313 313 313 310 310 310 310 311 312 312 313 313 312 311 309 310 310 306 301 310 314 311 312 313 313 310 311 309
299 298 299 301 300 300 299 300 299 296 298 299 298 299 299 301 303 308 309 313 313 313 311 312 311 310 310 312 311 312 312 311 312 309 310 309 306 305 310 310 310 309 310 311 312 310 311
299 298 300 299 299 300 299 300 299 297 297 297 297 298 302 302 305 308 309 310 312 311 312 311 311 312 312 313 310 309 308 308 309 309 309 310 306 303 305 309 309 308 309 310 311 311 312
300 298 300 298 298 299 300 299 299 297 298 297 296 297 296 300 299 300 305 307 308 308 311 311 312 312 310 308 308 308 308 309 309 309 307 310 308 305 303 306 306 306 309 309 309 310 309
299 299 299 298 299 299 298 298 299 298 297 298 296 296 295 296 297 298 299 303 304 305 309 312 312 310 306 310 310 311 310 311 311 310 310 308 309 308 308 305 306 311 311 311 310 310 309
300 299 299 298 299 299 298 298 298 299 297 298 297 296 294 295 297 297 298 300 305 306 310 312 310 308 309 311 312 312 312 310 311 313 310 309 310 308 311 308 313 315 310 310 312 315 310
301 300 300 299 299 299 298 297 299 298 297 298 298 297 296 294 295 295 296 297 300 304 304 310 308 310 308 309 310 307 311 310 312 313 313 311 311 311 312 313 308 307 311 311 318 315 311
301 301 300 300 300 299 297 296 299 298 298 298 297 298 296 294 293 295 295 296 296 298 303 303 307 309 309 310 309 308 308 309 310 309 311 310 309 311 312 313 310 310 313 316 312 312 311
301 300 299 300 300 298 297 297 298 299 298 298 298 298 297 296 294 296 296 295 296 296 295 296 302 304 309 311 308 308 309 306 307 310 306 309 307 309 308 310 307 309 313 311 309 311 310

GFSGBSN_925_thetae_060.txt.gz
Theta_e
310 310 309 309 309 308 307 307 307 308 308 309 310 309 307 308 308 308 307 305 306 307 306 306 306 307 305 306 307 307 308 307 314 313 319 316 317 321 322 322 324 322 323 323 325 326 326
310 310 309 309 308 308 307 306 307 307 308 309 310 308 307 308 308 307 306 306 306 306 306 304 306 305 305 306 304 305 305 308 314 314 318 318 316 319 320 322 324 322 322 322 321 320 324
310 309 309 309 308 308 307 306 305 307 308 309 310 308 307 307 307 306 305 305 306 306 305 305 306 304 305 304 304 306 308 310 312 315 318 318 315 319 317 321 319 320 323 320 320 318 319
309 309 308 308 308 307 307 306 306 306 307 307 309 307 307 306 306 306 304 304 305 306 306 306 306 305 305 303 304 304 307 309 313 315 317 318 317 316 318 317 317 319 321 324 320 319 319
309 308 308 308 308 307 307 306 306 305 306 306 307 306 307 306 306 305 305 304 305 304 305 306 305 305 305 305 306 305 305 309 312 314 312 318 316 316 318 318 320 320 323 322 321 318 319
308 308 308 308 307 307 307 307 306 305 305 305 306 305 306 307 302 306 307 304 304 305 305 305 305 305 305 307 306 308 308 307 309 315 315 320 317 319 316 319 323 323 321 322 321 319 319
308 308 307 308 307 307 307 306 306 307 305 305 305 305 306 307 303 304 305 304 301 302 304 303 304 305 304 306 308 309 308 308 309 317 320 318 319 320 319 317 317 318 319 321 319 317 319
308 307 307 307 307 307 306 306 305 306 305 304 304 305 305 306 304 304 303 303 303 303 304 305 305 307 307 306 309 308 308 309 315 321 318 320 321 317 317 318 318 318 317 319 317 317 317
307 307 306 307 307 306 306 306 305 305 305 304 304 304 305 306 305 304 303 304 304 303 305 307 306 306 306 306 309 309 308 310 315 319 318 319 317 317 319 319 320 317 317 315 316 316 315
306 306 306 306 306 306 306 306 305 305 305 304 303 304 305 306 306 305 303 303 303 304 301 310 309 308 308 305 311 309 309 314 313 319 318 318 316 318 318 319 317 319 313 314 315 317 320
304 305 306 306 306 306 306 305 305 305 305 303 303 305 305 305 304 304 303 303 305 304 312 311 309 306 307 309 308 313 311 315 316 318 316 320 317 317 318 318 316 316 314 315 315 316 315
301 301 304 305 306 305 305 305 305 305 305 303 304 305 304 306 306 304 304 304 304 302 314 310 307 310 311 310 311 310 313 315 315 316 314 315 313 316 319 318 318 315 315 314 314 315 318
299 299 303 305 305 305 305 304 304 304 304 302 304 304 304 305 306 305 305 303 302 310 309 315 317 313 314 315 314 311 317 317 318 318 318 314 314 314 315 319 317 316 314 317 319 319 316
299 298 301 304 305 305 304 304 304 304 303 302 306 303 304 305 306 305 306 302 306 310 310 313 316 315 316 315 314 317 316 317 314 313 315 317 319 317 314 317 319 318 314 311 317 316 315
299 298 301 304 304 304 303 303 303 303 299 302 306 305 307 307 305 305 302 302 305 304 306 314 314 317 318 316 315 317 315 317 315 313 315 316 315 313 314 316 317 318 320 312 310 309 308
300 299 302 302 302 303 303 303 303 303 299 302 306 306 307 307 306 306 303 310 309 310 312 313 315 313 315 317 318 317 318 316 317 315 312 313 316 314 316 315 315 317 314 317 308 312 314
300 300 302 301 301 302 302 302 302 302 300 304 307 305 307 306 306 303 304 305 312 312 311 312 313 313 314 315 315 317 315 316 313 315 312 311 311 315 316 319 319 318 320 316 313 309 314
300 300 302 302 301 301 301 300 299 301 302 303 301 305 306 306 311 301 302 309 311 312 310 311 310 312 313 313 313 315 314 313 310 310 314 313 311 316 316 315 315 314 317 317 317 312 305
300 299 302 302 299 300 299 298 298 297 302 302 301 302 306 307 308 305 310 312 312 312 310 310 311 311 311 312 313 313 312 311 310 311 313 312 310 309 316 312 313 317 315 314 311 309 305
300 299 300 299 298 298 298 298 298 296 300 303 299 300 299 303 303 309 310 312 313 310 310 309 310 310 311 311 310 313 312 311 310 309 311 311 311 311 312 311 310 310 315 313 313 312 315
299 299 299 299 298 298 298 298 298 296 298 302 296 301 301 300 306 304 307 311 313 313 310 309 310 310 311 312 312 313 312 311 311 309 309 308 305 302 309 313 310 311 314 313 313 316 316
299 298 299 299 298 298 298 298 297 296 297 297 297 297 297 299 301 305 308 311 313 313 311 311 310 310 309 311 309 311 311 310 311 309 310 306 305 304 308 310 310 309 310 312 312 312 310
299 298 299 298 298 298 299 297 297 297 295 295 296 296 298 299 299 307 308 309 311 309 312 310 310 311 311 311 309 308 307 307 309 308 309 308 304 301 303 308 307 308 308 309 310 310 311
299 298 299 298 299 298 298 299 298 298 297 296 296 295 294 297 296 299 299 302 307 307 309 310 311 311 309 306 307 307 307 307 307 308 307 307 305 302 301 304 305 306 308 307 308 309 309
299 299 299 298 299 298 298 299 299 298 298 297 296 295 293 295 296 297 297 298 301 305 308 309 312 309 306 308 308 309 308 310 310 308 308 306 307 307 307 303 305 309 310 309 308 309 307
300 299 299 298 299 298 298 298 299 297 297 297 297 296 293 294 296 295 296 297 304 306 308 311 309 306 307 309 310 311 311 309 311 311 307 309 308 306 309 307 310 308 311 308 309 312 310
301 300 299 298 299 298 297 298 299 298 298 298 297 297 295 293 293 295 294 294 296 300 302 305 305 306 306 307 310 307 310 308 311 311 311 310 311 309 310 312 308 305 306 311 315 311 310
301 300 299 299 300 298 296 297 299 299 297 298 297 297 296 294 293 294 295 295 295 296 299 302 306 308 308 309 309 307 306 307 308 308 309 309 311 310 312 311 308 305 312 314 311 311 311
301 301 299 300 300 298 297 298 298 299 298 298 298 298 297 296 296 296 296 296 295 295 295 295 301 302 305 310 306 306 307 304 306 309 305 309 306 307 307 307 305 306 310 310 308 311 311

GFSGBSN_925_thetae_063.txt.gz
Theta_e
311 310 310 310 309 309 308 307 306 307 309 309 311 309 307 308 308 307 306 306 307 307 306 306 305 307 305 305 306 306 307 309 311 310 314 316 316 317 321 322 322 323 325 324 327 326 326
310 310 310 309 309 308 308 307 306 306 308 308 310 308 307 307 307 306 305 306 307 306 306 305 306 306 305 304 303 305 304 305 309 312 314 316 315 316 320 322 323 322 322 325 325 325 326
310 310 309 309 309 308 308 307 306 306 306 308 308 308 307 306 306 305 305 305 306 306 304 305 306 304 304 303 303 305 304 305 310 314 314 317 314 318 317 320 319 321 323 322 323 323 324
310 309 309 309 308 308 308 307 307 306 306 306 307 308 306 307 306 306 306 306 306 307 306 306 306 305 303 303 305 304 304 305 312 313 313 314 316 316 317 316 317 320 322 324 321 320 320
309 309 309 309 308 308 307 307 307 307 307 305 305 305 306 306 307 305 305 307 305 306 305 306 305 304 304 305 306 305 307 308 311 313 311 315 315 317 317 317 318 319 322 322 321 320 321
307 309 308 308 308 308 307 307 307 306 307 305 304 305 305 306 307 307 304 304 304 305 304 305 305 304 304 305 306 306 307 308 309 314 314 319 316 317 316 317 322 321 320 321 321 320 319
303 308 308 308 308 308 307 306 306 306 306 305 304 304 305 306 307 306 303 304 300 300 303 304 304 305 305 306 307 308 308 308 308 314 316 319 318 320 317 316 316 316 318 321 318 318 320
301 307 308 307 307 307 307 306 306 306 306 305 304 304 305 306 306 305 303 303 302 302 304 305 305 305 306 305 309 308 307 309 311 315 314 317 317 316 317 317 317 317 319 320 318 317 319
301 306 307 307 307 307 307 306 306 306 305 305 304 304 305 306 305 304 303 304 304 303 304 307 306 306 306 306 309 308 308 309 312 315 314 315 317 316 319 319 318 316 317 316 318 315 314
302 305 306 306 307 307 306 306 306 305 305 305 304 304 305 306 305 304 303 303 303 303 298 310 309 308 308 305 311 307 308 311 312 316 317 318 317 318 318 319 317 318 314 314 316 317 319
302 304 304 305 306 306 306 305 305 305 305 304 304 305 306 305 304 303 304 303 304 303 306 310 309 306 308 309 310 311 311 313 314 318 317 318 318 318 319 318 315 317 312 314 315 316 315
301 302 302 305 305 306 305 305 305 305 305 304 304 305 305 305 306 305 304 304 303 299 308 311 309 311 311 311 311 310 313 314 315 317 315 315 312 315 319 318 316 314 313 313 313 314 316
301 299 301 304 305 305 305 304 304 304 304 303 304 304 304 305 305 304 304 301 303 306 308 314 316 312 313 314 315 314 315 316 317 318 320 317 315 314 315 318 317 314 313 316 319 319 317
300 298 300 303 304 304 304 303 303 304 303 302 304 304 304 305 305 305 305 299 307 311 312 313 315 314 316 314 315 316 316 317 314 314 315 318 319 316 313 316 318 316 312 312 317 318 316
299 298 300 302 301 301 303 303 303 304 301 302 305 305 307 307 305 305 302 301 305 301 303 312 314 316 316 314 315 314 315 317 314 312 314 314 315 313 315 315 315 317 315 309 308 306 308
299 299 300 299 298 298 301 303 303 303 302 302 306 306 307 306 305 305 300 306 308 308 310 313 314 312 316 315 316 315 316 314 316 313 311 311 317 314 316 315 315 316 313 317 306 309 312
299 300 299 297 298 297 298 300 303 303 301 302 306 305 306 306 306 301 300 300 311 310 311 311 312 313 314 315 314 315 315 315 314 314 310 309 311 315 317 318 318 319 319 316 312 307 311
300 299 297 297 298 297 298 298 299 302 301 302 300 305 306 306 310 300 301 308 311 311 310 310 310 311 313 312 314 314 313 313 310 312 313 310 310 315 317 313 315 317 318 313 311 310 304
300 299 297 298 298 298 298 297 298 301 301 302 300 301 305 307 305 302 307 311 311 311 310 309 310 310 310 311 314 313 312 310 310 310 312 311 307 315 317 314 313 318 316 314 310 306 304
300 298 298 299 298 298 298 297 298 299 298 303 298 300 298 300 301 308 308 311 311 309 309 308 309 309 310 311 309 312 311 310 309 309 311 311 309 307 310 310 311 316 317 314 311 312 316
300 298 299 298 298 298 297 297 297 297 297 301 295 299 298 299 306 304 306 309 312 312 309 308 309 309 310 311 311 312 311 310 310 309 308 309 309 302 307 312 309 309 312 315 311 316 315
299 298 299 298 298 298 297 297 297 297 295 297 295 296 295 297 299 303 306 309 312 310 310 310 309 310 309 310 309 311 310 310 311 308 309 305 304 302 308 309 309 308 308 313 315 315 314
299 298 299 298 298 298 297 297 297 297 295 294 294 296 295 298 297 303 303 304 309 308 311 309 310 311 310 311 308 306 307 306 308 307 308 307 303 301 302 306 306 307 307 308 311 310 313
299 298 298 298 298 298 297 298 297 297 296 295 295 294 293 297 296 298 298 298 304 303 306 309 309 310 308 305 306 306 305 306 306 306 306 305 304 301 300 304 306 306 305 306 307 308 308
299 300 298 298 298 298 297 298 298 297 297 297 296 294 292 295 295 296 296 297 300 304 307 308 310 308 305 307 307 308 307 308 309 307 307 304 305 306 306 303 305 308 309 308 308 308 305
299 300 298 298 299 298 297 299 297 297 297 297 297 295 292 294 296 295 295 296 298 301 305 308 306 303 307 309 309 311 310 309 309 310 306 308 307 308 304 309 309 304 310 307 307 310 309
300 300 298 299 299 297 296 296 298 298 297 297 297 296 294 293 292 294 294 294 294 295 297 301 302 304 304 308 312 311 309 307 309 310 310 310 311 309 310 308 307 304 304 308 313 309 309
301 300 299 299 300 297 296 297 298 298 297 297 297 297 296 295 293 294 294 294 294 294 296 298 302 307 308 309 311 309 306 305 307 307 308 308 311 313 311 312 308 304 311 312 309 310 310
301 301 299 300 299 297 297 297 298 298 297 297 297 297 297 296 294 295 296 295 295 295 294 293 299 301 302 308 305 304 306 302 304 308 304 308 305 306 307 307 304 304 308 309 308 309 311

GFSGBSN_925_thetae_066.txt.gz
Theta_e
311 311 310 310 310 309 309 308 307 306 307 308 309 310 308 307 307 306 306 307 307 307 307 306 306 306 305 305 305 304 307 309 311 313 314 315 317 316 318 320 321 323 324 324 326 325 325
311 310 310 310 309 309 308 308 308 307 306 306 308 309 308 307 306 306 305 306 306 306 305 306 306 306 304 302 303 304 304 305 307 310 311 314 317 315 317 320 322 321 323 325 326 326 326
311 310 310 309 309 308 308 308 307 308 309 306 306 307 308 307 307 306 306 306 307 307 305 305 306 304 304 302 303 305 304 304 305 307 313 313 315 316 317 321 319 320 326 326 326 326 327
311 310 309 309 309 308 308 307 307 307 308 307 305 306 307 306 307 306 307 308 308 306 306 306 306 304 302 302 305 304 304 304 307 311 313 314 316 315 316 316 318 322 323 328 324 325 324
311 309 309 309 309 308 308 307 307 306 307 306 305 304 305 305 306 307 307 307 307 306 304 305 304 303 303 304 306 305 305 307 309 313 314 314 315 316 315 317 319 322 322 321 324 323 324
310 309 309 308 308 308 308 307 307 306 307 307 305 304 304 305 306 307 306 304 304 304 304 305 305 303 304 305 306 306 306 306 310 312 312 313 315 316 315 318 321 320 319 320 322 321 324
309 306 308 308 308 308 308 307 307 306 307 306 305 304 304 305 306 306 304 304 300 300 302 303 303 304 305 306 306 307 306 307 309 313 312 309 316 318 317 315 314 315 317 319 318 320 322
310 302 307 307 307 307 307 307 306 306 306 306 305 304 304 305 306 306 303 301 301 302 304 303 306 304 306 305 308 307 307 309 312 314 312 311 316 314 315 314 316 316 316 319 317 317 320
310 301 305 307 307 307 307 306 306 306 306 305 305 304 304 305 305 304 303 304 303 303 304 307 307 306 307 306 309 308 308 309 311 313 312 315 314 315 318 316 317 315 316 316 317 315 314
310 301 303 306 306 306 307 306 306 306 306 305 304 304 305 305 305 303 302 303 303 303 302 310 308 307 308 306 310 307 309 310 312 315 314 315 316 317 318 318 315 318 314 314 315 316 320
310 301 302 303 304 306 306 306 305 306 305 305 304 305 305 305 303 303 303 303 304 302 304 311 309 306 308 310 310 310 310 312 312 316 313 317 318 317 319 318 315 316 312 313 314 314 315
308 301 303 302 301 304 305 305 305 305 305 304 304 306 305 305 305 304 303 304 303 298 304 309 311 311 311 311 311 310 313 313 313 316 315 316 313 315 318 316 314 312 312 312 311 312 312
307 301 302 301 300 300 304 304 305 305 304 304 304 304 304 305 304 304 304 301 300 306 308 310 315 313 314 315 315 314 316 314 314 318 318 317 316 315 314 317 316 312 313 312 315 313 314
307 301 301 300 299 302 304 304 304 304 303 303 304 304 305 305 305 305 305 298 305 308 313 313 315 314 316 315 315 314 316 317 313 314 315 316 320 315 313 315 317 315 312 311 316 317 314
306 300 299 298 298 303 303 304 304 304 302 302 305 305 306 306 305 305 301 298 303 300 303 312 315 316 316 314 315 314 315 316 313 312 315 312 316 313 315 314 314 316 316 308 306 305 306
304 299 298 297 298 301 301 303 303 303 300 301 305 305 306 306 305 305 299 305 307 306 309 312 312 311 316 314 314 313 314 314 315 312 310 310 315 314 315 314 314 315 311 316 305 310 313
303 299 298 297 298 298 299 302 303 303 299 302 305 304 305 306 305 300 300 299 309 309 310 311 311 312 312 312 313 314 313 315 314 312 308 308 310 315 314 315 315 318 316 314 310 307 310
302 299 298 297 299 298 299 300 302 301 299 301 300 304 305 306 308 301 301 306 310 310 309 310 309 310 312 312 314 313 314 312 311 311 312 309 309 315 316 312 313 315 317 312 312 310 303
302 299 298 298 298 298 298 298 299 298 297 301 300 300 303 306 303 300 306 310 310 310 309 309 310 309 309 310 313 312 311 309 309 310 311 310 308 316 315 313 313 318 317 316 309 305 304
302 299 298 299 299 298 297 297 298 297 297 303 297 300 298 299 300 306 308 310 311 309 309 308 308 308 310 310 309 311 311 310 308 309 312 309 307 307 309 309 310 317 315 317 315 319 317
301 299 298 299 299 298 297 297 298 296 296 300 294 298 296 299 302 303 305 308 311 312 308 306 308 309 309 310 311 311 310 310 308 312 307 309 307 300 307 309 308 310 312 314 315 317 318
299 298 299 298 299 298 297 297 297 296 295 296 294 295 294 296 298 304 304 307 310 309 310 310 309 310 309 310 309 310 310 309 310 307 308 303 303 301 308 308 310 307 308 311 314 315 314
299 299 299 298 298 297 298 297 297 297 296 294 293 294 295 296 296 303 299 299 307 304 309 308 310 310 309 310 308 306 305 305 307 307 307 306 302 301 303 305 305 307 307 308 310 311 313
299 299 298 298 299 297 298 297 297 297 296 296 295 292 292 295 296 297 297 297 300 301 304 305 308 309 307 305 304 304 303 305 306 305 304 304 303 301 299 303 305 306 304 305 307 307 308
299 300 298 298 299 297 298 297 297 297 297 296 295 293 292 295 295 296 295 297 299 301 306 307 308 306 302 307 307 308 306 308 308 306 307 303 304 306 305 302 304 307 308 307 308 308 305
300 301 299 299 298 297 298 297 297 297 297 296 296 295 291 293 295 294 294 294 295 296 298 305 303 300 306 308 309 311 310 307 308 309 304 306 307 308 304 310 308 303 308 306 306 309 308
301 301 299 299 298 296 296 297 297 297 297 297 296 296 293 293 292 294 293 293 293 293 293 298 299 302 304 310 311 310 309 306 308 309 309 310 310 309 311 312 307 303 303 305 312 307 309
302 301 300 299 297 297 297 298 298 297 297 297 297 297 295 292 292 294 293 294 294 292 295 294 301 303 308 309 310 309 305 305 306 305 306 308 310 310 310 311 309 303 309 312 307 307 309
302 301 299 300 297 297 297 297 298 297 297 297 297 297 296 295 293 295 295 295 295 294 293 292 298 300 301 306 305 303 306 301 303 307 303 307 305 306 306 306 303 302 306 307 306 307 309

GFSGBSN_925_thetae_069.txt.gz
Theta_e
313 312 311 310 310 309 309 308 308 308 309 307 307 309 310 308 306 306 306 306 306 306 306 306 306 305 305 304 304 303 306 307 310 312 314 317 318 317 317 321 323 325 326 324 325 325 325
313 312 311 310 309 309 309 308 308 308 309 309 306 307 308 308 308 307 306 307 307 307 305 305 306 305 303 301 302 304 304 305 311 311 313 314 317 315 317 320 323 322 323 325 326 326 325
312 312 310 310 309 309 309 308 307 307 308 308 307 305 307 308 306 308 306 307 308 307 307 306 306 303 303 301 302 303 304 304 307 310 310 313 314 316 315 320 320 321 324 324 326 326 326
312 311 310 310 309 309 308 308 307 307 307 308 307 305 305 306 305 307 307 307 308 307 305 306 305 303 302 302 304 305 304 304 307 308 308 313 313 316 316 316 320 321 323 326 326 326 324
313 311 310 309 309 309 308 308 308 307 307 307 306 305 304 304 305 306 307 307 306 305 305 304 304 303 302 304 305 305 306 307 308 310 311 314 314 317 315 320 321 322 324 324 326 325 325
315 311 309 309 308 308 308 308 307 307 307 306 306 305 304 304 305 306 306 303 304 304 304 304 304 302 303 304 305 306 306 307 309 311 314 314 311 317 316 320 321 323 321 321 324 326 324
318 312 308 307 308 308 308 308 307 307 306 306 305 304 304 304 305 306 304 303 299 300 302 303 303 304 304 306 306 306 306 307 309 312 314 308 310 317 318 315 314 316 319 320 320 322 325
318 313 308 305 307 308 308 307 307 307 306 306 305 304 304 304 305 306 303 300 301 302 304 303 305 304 305 305 306 307 306 309 309 313 310 311 314 313 315 315 315 317 319 318 316 320 322
319 313 307 302 303 306 307 307 307 306 306 306 305 304 305 305 305 305 302 303 303 303 305 307 307 306 307 306 308 307 308 308 310 312 312 313 315 312 316 315 316 315 317 317 318 317 315
318 313 307 302 299 305 306 306 306 306 306 306 305 305 305 305 304 303 302 303 303 302 300 311 309 307 308 307 309 307 309 310 311 313 313 313 314 316 317 316 315 318 314 315 316 318 323
319 313 306 301 298 303 306 306 306 305 306 305 305 305 305 305 303 303 302 303 303 301 309 310 309 306 308 309 309 310 310 312 313 314 313 316 315 318 318 317 314 315 312 314 314 315 315
318 313 306 300 298 302 305 305 305 305 305 305 305 306 305 305 305 303 302 303 303 298 304 310 311 311 311 311 311 311 313 312 314 313 313 316 313 315 317 315 313 310 312 311 311 314 321
319 311 306 299 298 300 304 305 305 305 305 304 305 304 305 305 304 303 304 301 299 305 305 310 314 313 314 314 314 314 315 314 317 315 317 316 317 315 314 317 314 312 312 318 321 320 319
316 309 305 299 298 300 304 304 304 304 304 303 304 304 305 304 304 304 304 299 305 306 312 312 315 314 316 315 314 315 314 316 314 315 317 320 319 316 313 315 317 314 311 314 317 318 316
315 309 303 299 298 300 300 303 304 304 303 303 304 305 305 305 305 305 302 296 305 301 303 312 315 314 315 314 315 315 315 316 313 311 314 315 319 314 315 313 314 316 313 307 307 304 310
313 309 301 299 298 299 298 300 303 302 302 301 305 305 306 305 305 304 298 305 306 304 308 311 312 311 314 314 315 313 314 314 315 311 309 310 317 315 315 313 314 314 309 315 309 311 315
312 308 301 299 298 299 298 299 300 299 299 302 305 303 305 305 305 300 298 299 308 307 309 310 310 311 311 312 312 313 313 314 313 310 307 308 311 316 314 315 319 317 316 311 310 309 314
311 307 300 298 298 299 298 298 298 298 298 302 300 304 305 306 307 301 299 305 309 310 309 309 309 310 311 310 312 312 313 312 311 309 311 308 309 316 315 313 312 313 313 312 314 312 304
311 305 299 298 299 299 298 297 297 297 297 301 299 300 302 305 302 298 305 309 309 310 308 308 309 309 309 311 313 311 311 308 310 310 310 309 309 314 315 313 311 316 314 312 309 309 306
310 304 299 298 300 299 298 297 298 297 298 302 296 299 297 298 298 305 307 309 310 308 308 307 307 307 310 310 308 311 310 309 307 309 312 308 307 308 311 310 310 314 315 315 314 317 315
310 302 298 299 299 299 297 297 297 296 299 299 293 297 296 298 302 302 305 307 311 311 307 306 307 308 309 310 310 311 310 309 307 310 306 308 307 300 307 308 310 311 313 315 317 315 316
308 301 298 299 299 298 298 297 297 296 297 296 294 295 292 295 297 303 301 305 308 307 308 309 308 309 308 309 308 309 309 309 310 307 307 304 304 301 308 307 309 308 309 310 313 314 313
305 300 299 299 299 298 298 297 297 297 296 293 293 294 295 295 296 302 298 298 305 302 308 306 308 309 308 308 306 305 305 304 306 307 307 309 304 303 305 304 305 307 307 308 310 311 312
303 300 299 299 299 298 297 297 297 297 297 296 294 292 293 296 296 297 296 296 299 301 303 304 307 308 306 303 304 303 303 304 304 304 303 303 303 305 307 303 307 306 304 305 307 307 309
302 300 299 299 298 298 297 297 297 297 297 296 295 292 292 295 295 295 295 296 297 297 303 306 308 305 300 306 307 307 306 308 307 304 305 302 304 306 307 303 304 307 308 306 307 308 304
301 300 300 299 298 298 297 297 297 297 296 296 295 294 291 294 294 294 293 293 294 294 295 301 301 299 305 309 309 311 309 307 308 309 304 304 304 308 304 309 309 304 307 305 305 310 307
301 301 300 299 297 297 297 297 297 297 297 296 295 295 293 292 291 292 292 293 292 293 293 294 295 301 305 310 311 308 309 305 308 309 309 310 309 310 309 311 308 303 303 303 311 307 307
300 302 299 298 297 297 298 298 297 297 297 296 296 296 294 291 292 293 294 294 293 292 294 293 298 302 306 310 311 307 305 304 305 304 305 308 310 309 309 312 310 303 308 310 306 306 308
302 301 299 297 297 297 298 297 296 297 296 297 297 295 295 292 292 294 294 294 294 293 292 291 296 299 300 304 305 302 305 300 302 307 302 307 304 306 306 307 303 301 305 305 304 307 308

GFSGBSN_925_thetae_072.txt.gz
Theta_e
314 313 312 311 310 310 309 309 308 308 309 309 309 307 308 309 308 308 307 307 307 307 306 306 306 306 305 304 303 303 305 308 311 311 314 316 318 319 320 320 323 325 324 325 324 326 325
315 314 313 311 310 310 309 309 308 307 308 309 310 307 306 308 308 307 308 307 309 308 307 306 306 304 303 302 302 304 304 307 311 311 314 315 318 317 317 319 323 322 323 325 325 326 326
316 314 313 311 310 310 309 309 308 307 307 308 309 306 306 306 307 307 308 307 308 308 307 306 306 304 304 302 302 304 304 306 310 312 314 314 317 316 316 317 320 322 325 325 325 326 326
318 315 313 311 310 309 309 309 309 308 307 308 308 306 305 304 306 306 307 308 308 308 305 307 306 304 303 302 304 305 305 305 308 310 309 312 314 316 318 318 320 323 323 327 326 326 326
320 317 313 311 310 309 309 309 309 308 307 307 307 306 304 304 305 305 307 307 307 305 305 305 305 305 305 304 306 306 307 306 308 310 308 313 314 316 318 320 321 322 323 325 326 325 326
322 319 315 311 308 308 309 309 308 308 307 307 306 305 304 304 305 305 307 304 305 304 305 305 305 306 305 306 306 306 307 308 308 310 311 314 311 315 318 320 321 320 322 322 325 327 326
322 320 316 312 306 306 308 308 308 307 307 306 306 305 304 304 305 305 305 303 304 305 304 306 306 305 305 304 306 307 307 308 308 308 314 311 313 316 317 317 315 317 320 322 322 325 326
323 321 317 313 305 304 307 308 308 307 307 306 305 304 305 304 305 305 303 303 303 304 307 305 306 306 305 304 307 307 307 309 309 308 311 313 316 315 315 316 316 319 320 322 323 325 326
324 322 318 313 305 302 305 307 307 307 306 306 305 305 305 305 305 305 303 304 303 303 308 308 307 307 308 307 308 307 308 309 308 311 313 314 315 314 317 317 318 318 319 321 322 325 323
325 322 319 313 305 300 303 303 306 306 306 306 305 305 305 305 305 303 303 303 303 303 312 311 310 308 308 308 309 307 308 309 311 313 313 314 314 316 318 316 317 320 318 320 322 324 322
325 323 320 313 305 299 301 301 305 306 306 305 305 305 305 304 304 305 303 303 303 304 317 310 310 307 309 309 309 310 310 311 312 313 313 315 316 317 319 317 317 318 318 319 320 319 319
325 323 319 311 304 299 299 299 303 305 305 304 304 306 305 305 304 303 302 303 303 311 317 310 311 311 312 311 311 311 313 312 312 313 315 316 314 317 318 316 316 314 317 318 319 319 322
325 322 318 311 302 299 299 299 302 305 305 304 304 305 305 305 307 303 304 304 313 317 309 314 315 313 313 311 311 314 314 315 316 319 319 317 316 317 316 317 315 317 319 322 321 323 320
325 322 317 310 301 299 299 300 301 303 304 303 304 305 304 304 304 304 304 307 318 311 314 312 315 314 315 314 314 315 315 317 315 316 318 321 322 318 316 317 318 319 318 320 318 319 318
324 321 315 309 300 299 299 300 300 301 303 302 304 304 305 304 304 304 305 315 316 314 313 315 315 315 315 315 315 316 315 317 315 316 320 318 319 316 316 316 316 317 319 311 315 312 317
324 320 313 307 300 299 300 300 299 299 302 301 304 306 306 304 305 304 308 313 311 306 311 313 315 314 314 314 316 316 317 314 316 313 311 315 320 316 316 316 316 317 313 318 320 321 318
322 319 311 305 300 299 300 300 298 299 300 302 305 310 305 305 305 305 314 313 311 309 310 313 313 314 314 315 315 315 315 315 314 312 311 313 316 318 316 317 320 318 318 317 316 317 317
320 318 310 303 299 299 300 299 298 299 298 304 306 312 304 305 309 304 312 309 309 312 311 311 311 313 314 314 315 315 316 314 314 311 313 311 316 318 317 314 314 316 318 317 320 319 315
320 316 309 302 299 300 300 299 298 298 298 301 307 308 302 305 314 313 310 311 311 311 310 310 311 311 311 315 316 314 314 310 313 312 313 312 315 318 316 314 313 317 318 316 315 316 319
319 315 308 301 299 301 300 298 298 297 297 301 304 310 304 305 304 310 311 312 312 309 309 308 309 309 311 313 312 314 313 311 310 312 311 311 313 315 317 315 315 317 316 317 318 322 318
317 312 306 299 300 301 299 298 298 297 299 300 300 304 303 311 308 308 308 310 312 312 310 309 310 311 311 313 313 314 312 311 311 311 310 312 318 310 310 311 314 315 315 317 318 318 320
315 309 304 299 300 300 299 298 297 296 300 297 302 302 299 302 302 307 306 310 311 310 310 311 311 311 310 311 310 313 313 312 314 310 311 309 315 309 311 310 312 313 313 314 316 316 316
313 307 301 299 301 300 298 298 297 296 297 297 294 296 303 298 302 308 306 305 306 305 308 308 310 311 311 311 310 307 308 308 310 312 313 315 312 313 317 308 309 312 311 312 313 314 315
312 305 300 300 300 298 298 297 297 297 297 297 295 297 302 301 303 303 300 299 302 303 306 306 310 311 308 305 306 306 308 307 308 308 310 314 314 312 316 309 316 310 307 308 310 311 312
310 302 299 300 299 298 298 297 297 297 297 297 295 296 299 300 300 298 299 299 300 300 306 307 308 305 304 308 310 311 310 310 310 308 308 308 311 313 315 314 311 310 309 309 310 311 308
309 301 300 300 298 298 297 297 297 297 297 297 295 294 298 300 298 296 297 296 299 299 301 303 301 298 307 311 312 314 312 311 311 311 307 307 308 312 312 314 313 309 309 308 308 312 311
305 301 300 299 298 297 297 297 297 297 297 296 295 295 297 298 295 294 297 298 296 297 299 299 297 305 306 310 313 313 311 308 311 312 312 312 312 314 312 313 311 309 306 307 311 311 310
304 302 300 299 298 298 297 297 297 297 296 296 295 295 296 297 296 294 295 296 296 296 300 297 302 304 307 312 314 312 310 310 309 308 311 312 313 313 313 314 312 306 307 311 310 309 310
302 300 300 298 297 298 297 297 297 297 296 296 296 295 295 297 296 294 294 293 294 294 296 296 300 300 301 305 307 307 309 307 309 311 306 311 310 311 311 311 308 305 308 308 308 309 308

GFSGBSN_925_thetae_075.txt.gz
Theta_e
318 317 315 313 312 311 311 310 310 309 309 309 310 310 308 306 309 309 309 308 308 310 308 306 307 306 306 305 305 304 306 307 310 312 312 316 318 319 320 319 320 326 325 325 327 326 326
320 318 316 314 312 311 311 310 309 309 309 309 309 310 308 306 306 309 308 309 308 309 307 306 307 303 305 304 302 304 305 308 310 311 312 315 316 317 318 317 319 320 322 325 326 325 325
322 320 317 315 312 311 310 310 310 309 308 308 309 309 307 306 305 307 308 308 308 308 308 307 306 305 305 304 304 305 305 307 311 311 313 315 316 317 317 317 318 320 322 324 327 327 328
325 321 319 316 313 311 310 310 310 309 308 308 308 308 307 306 305 306 307 307 308 308 307 306 306 306 306 304 306 305 305 306 310 312 312 313 315 317 318 317 319 321 322 326 324 325 326
325 325 321 317 314 310 310 310 310 309 308 308 308 307 306 305 305 306 306 307 307 306 305 304 306 307 307 305 306 306 307 306 309 310 311 312 314 317 318 319 322 322 322 323 323 324 326
325 325 323 319 315 310 309 309 309 309 308 308 307 306 305 305 304 305 306 306 306 305 306 306 306 308 306 306 307 307 307 307 309 310 312 314 313 318 318 322 321 320 320 321 321 325 325
324 325 324 320 315 311 305 309 309 309 308 307 307 305 305 304 305 305 306 306 307 308 306 307 307 307 307 306 307 307 307 307 309 310 313 312 315 318 318 318 315 314 316 320 319 323 326
323 326 324 321 316 311 304 303 309 308 308 307 307 305 305 305 305 305 306 306 306 306 309 307 307 307 306 306 307 308 307 308 310 311 309 313 316 315 317 316 318 317 317 320 320 323 325
323 326 324 321 318 311 304 301 308 306 307 307 306 305 305 305 305 305 305 305 305 305 309 310 308 308 308 306 309 308 309 309 309 310 309 316 316 315 317 319 320 317 317 321 323 323 323
322 325 325 322 320 311 303 300 305 305 306 306 305 305 305 305 305 306 305 305 305 305 312 312 310 308 309 309 309 307 309 309 309 310 308 316 315 314 319 318 316 319 316 319 320 324 324
322 325 325 322 320 310 303 300 304 304 304 305 305 305 305 305 307 307 306 304 305 306 318 312 311 309 310 311 310 310 310 311 310 311 315 316 316 317 320 317 316 316 318 319 321 323 319
322 323 326 323 320 310 302 300 302 302 304 304 304 305 305 306 306 305 304 304 306 313 317 312 312 312 312 312 312 312 311 310 311 314 315 315 315 317 319 316 317 318 319 319 319 318 322
321 324 325 323 319 309 301 300 302 301 304 303 303 305 306 307 308 305 305 307 313 320 311 315 316 313 312 311 312 314 315 314 317 317 320 317 317 318 318 318 317 318 319 321 321 323 322
321 323 324 322 317 309 301 300 301 301 303 301 304 305 305 306 305 304 306 310 319 314 315 313 315 314 315 313 313 315 315 318 316 317 317 320 323 318 317 316 317 318 317 319 318 318 317
322 323 322 320 315 306 301 300 301 301 302 301 305 307 307 306 304 305 308 318 319 316 312 315 316 316 315 315 315 316 317 318 316 315 319 319 320 317 318 317 317 319 321 314 318 316 318
323 323 322 320 313 304 301 300 300 300 302 302 307 308 308 306 305 306 309 315 314 311 313 315 317 315 316 315 316 317 318 316 316 316 313 316 320 317 318 318 317 318 317 317 320 321 317
324 323 321 319 312 303 301 300 300 300 300 302 307 309 307 305 305 308 312 314 313 311 313 315 314 314 314 315 316 317 318 315 315 314 313 316 317 319 318 319 318 318 317 318 317 318 320
324 323 321 319 308 303 300 301 299 300 299 304 309 313 306 305 310 308 314 313 310 313 312 313 313 315 315 315 315 316 318 316 314 313 314 313 317 319 318 316 316 318 317 316 319 319 317
323 323 318 316 306 303 300 301 299 299 299 306 310 308 304 305 312 315 313 313 312 312 313 312 313 313 314 316 316 316 315 313 315 313 314 314 318 319 318 316 315 317 317 317 317 320 323
323 323 317 314 304 302 301 300 298 298 298 304 309 312 307 305 310 313 313 313 313 311 311 310 312 311 313 314 314 316 315 313 314 313 311 312 315 318 319 317 316 318 315 317 319 322 318
323 322 318 313 303 301 301 299 298 298 297 303 305 308 310 311 312 312 312 313 313 313 311 310 312 313 313 314 314 315 314 313 314 312 312 314 318 313 312 314 316 316 316 316 318 319 321
322 317 313 309 302 300 301 298 298 297 299 301 304 305 302 308 309 311 310 313 313 313 312 312 312 312 312 313 313 315 314 314 315 313 314 313 316 313 315 313 313 315 315 315 316 317 318
321 317 314 307 300 301 300 298 298 297 301 301 299 299 306 304 308 310 311 312 312 311 310 311 312 312 313 313 311 309 310 311 312 314 315 316 314 315 318 311 311 314 313 314 315 315 316
316 311 311 304 300 301 299 298 298 297 299 300 300 303 306 305 306 308 305 307 308 309 311 310 312 312 310 308 309 309 310 310 311 311 313 316 316 317 318 312 318 312 308 309 311 312 311
312 310 310 303 301 299 298 298 297 297 297 299 297 301 303 305 305 302 303 304 304 305 309 310 309 305 308 310 311 312 312 312 312 311 311 312 315 316 317 316 314 312 309 310 310 311 311
308 308 306 301 300 299 298 297 297 297 296 297 296 298 303 303 302 301 302 302 305 307 306 306 303 304 310 312 313 313 313 312 313 312 310 310 311 314 314 315 313 312 310 309 309 312 312
307 306 303 301 299 298 298 297 297 296 296 297 296 297 301 301 297 298 301 301 299 301 305 304 304 309 308 312 314 314 313 310 312 312 313 313 313 314 314 313 313 310 309 309 311 313 311
307 308 303 301 299 299 298 297 297 297 297 298 297 297 300 300 297 297 297 299 298 300 303 301 306 307 308 311 311 313 311 310 310 310 311 312 313 313 312 316 314 309 307 309 312 311 310
306 303 302 300 298 299 297 297 296 296 296 297 298 297 298 300 297 295 294 294 296 296 299 300 303 303 303 308 308 311 310 310 310 311 309 311 311 312 311 312 309 309 310 309 307 308 309

GFSGBSN_925_thetae_078.txt.gz
Theta_e
323 322 320 318 316 314 312 312 311 310 310 310 310 310 310 309 307 307 310 308 309 308 309 308 307 306 306 306 304 305 306 306 307 310 312 314 317 318 320 319 322 325 326 325 325 326 327
324 324 322 320 317 315 313 311 311 311 310 309 309 310 310 309 307 306 308 309 309 308 309 308 307 305 306 306 303 304 305 307 310 311 312 313 316 317 317 317 320 322 322 325 324 325 324
323 323 324 321 320 316 313 310 311 311 310 309 309 309 309 307 306 306 307 308 308 308 309 307 307 307 306 305 304 305 305 307 310 311 313 313 315 317 317 319 317 318 324 326 325 326 325
321 321 323 324 321 317 314 308 309 310 310 309 309 309 309 307 305 305 306 306 308 309 308 306 306 307 307 305 306 306 306 307 310 312 312 314 315 316 318 318 317 320 321 325 324 326 325
321 320 321 325 321 319 316 310 309 310 310 309 309 308 307 306 305 306 305 306 308 307 306 305 307 307 308 306 306 306 306 308 310 311 312 313 314 317 317 320 320 322 324 322 324 322 323
320 320 320 324 322 320 317 310 308 310 310 309 308 307 306 305 305 305 305 305 306 304 307 307 307 308 307 306 306 307 306 307 309 311 312 313 314 316 317 322 323 322 320 321 321 324 321
321 320 319 323 324 321 317 312 307 310 309 309 308 307 306 305 305 306 305 308 308 307 307 307 307 307 308 306 307 307 307 307 309 310 312 310 315 319 317 315 318 317 317 318 318 322 325
324 319 319 323 324 321 319 312 305 309 309 308 308 306 306 305 305 305 306 308 307 307 309 308 308 307 307 306 307 307 307 308 309 312 311 312 316 315 317 316 319 318 317 318 319 324 326
320 324 318 321 324 322 320 312 305 306 307 308 307 306 305 305 305 305 308 306 306 306 310 310 308 308 308 307 309 308 308 308 309 310 310 315 314 314 316 318 320 320 318 319 323 324 323
316 324 322 320 324 321 320 313 304 302 304 306 306 306 305 305 305 308 306 306 305 306 312 312 310 308 309 308 308 308 309 309 309 311 310 310 314 316 316 318 319 320 317 319 322 324 326
314 318 324 320 323 322 320 312 303 301 303 305 305 305 305 305 308 307 307 305 305 306 317 312 310 309 310 310 308 309 309 310 310 310 312 315 315 316 319 318 318 319 317 320 322 323 321
308 313 321 321 322 321 319 311 302 301 303 304 304 304 305 305 307 306 305 305 306 312 314 312 313 312 312 312 311 310 311 308 311 310 311 315 315 316 319 318 317 317 320 320 321 321 318
307 311 317 323 322 323 318 309 301 301 302 303 302 305 306 308 308 306 306 307 313 317 312 313 314 312 311 312 312 311 312 313 316 315 318 317 318 318 318 319 318 318 321 320 318 317 318
309 310 315 322 322 322 316 307 301 301 302 302 303 305 306 307 306 306 306 310 315 314 314 313 315 313 314 313 314 315 314 314 316 317 316 316 318 319 318 318 318 318 317 318 317 317 317
305 311 314 321 322 321 315 305 301 302 301 300 305 307 307 307 305 305 309 313 319 315 312 315 314 316 315 315 314 316 316 316 316 314 318 318 319 316 318 317 318 318 319 314 318 315 315
308 313 316 318 323 318 314 304 301 301 300 303 307 307 307 307 305 307 309 314 315 314 314 314 319 316 317 315 316 316 317 316 317 316 313 316 317 316 318 317 317 319 316 317 315 315 316
306 308 314 319 323 319 312 304 303 301 299 305 308 309 307 307 305 309 310 313 314 312 313 315 315 315 313 315 316 317 318 315 315 315 313 316 316 318 318 319 318 318 320 318 316 315 319
308 312 314 317 322 317 309 304 303 300 299 306 308 312 306 305 310 308 311 313 311 313 312 314 313 315 314 315 316 316 317 316 315 313 315 314 318 317 320 317 317 318 317 316 316 318 315
308 307 312 316 317 314 307 305 302 299 301 307 310 307 304 305 311 311 313 313 313 313 313 313 314 313 315 315 317 316 316 314 313 313 315 314 316 317 317 316 315 317 318 318 316 315 317
308 308 312 315 317 313 306 303 301 299 303 307 310 309 306 306 307 311 314 314 313 312 312 311 312 312 313 315 314 316 315 314 314 314 312 313 315 317 317 316 316 315 316 316 318 316 318
306 307 311 315 315 313 304 301 300 299 303 305 307 311 307 309 310 311 313 313 313 312 311 311 312 313 313 314 315 316 314 314 314 312 312 314 314 306 312 314 316 316 315 314 314 316 313
306 308 310 313 315 312 303 301 300 299 299 303 305 306 305 310 310 311 311 313 313 313 312 312 312 313 312 314 313 315 314 314 315 312 313 312 313 311 314 313 313 314 314 314 315 315 315
306 308 313 314 315 311 302 301 299 299 300 302 301 301 305 307 309 311 311 313 313 312 311 312 313 312 313 313 311 309 309 310 312 314 314 314 311 312 313 311 311 312 312 314 314 314 315
307 308 314 310 311 307 302 300 299 298 300 302 301 302 306 304 306 309 309 310 311 311 312 312 312 313 310 308 309 309 309 310 311 311 312 315 314 314 312 310 313 312 308 308 312 313 313
306 312 311 310 310 305 301 300 298 297 300 300 300 302 304 305 304 305 306 309 306 306 309 311 308 305 307 310 311 312 312 312 312 311 311 314 315 316 317 316 313 309 308 309 310 311 309
306 312 309 310 307 303 301 299 298 297 299 298 298 300 303 304 302 303 304 305 306 308 307 307 304 306 310 313 312 313 313 311 313 311 310 310 311 315 314 313 314 311 309 308 309 310 310
305 310 308 311 306 302 300 298 297 298 301 297 297 299 302 299 297 299 301 302 300 302 305 305 306 309 308 311 312 313 313 310 312 312 312 311 311 310 311 311 311 309 307 308 310 312 310
307 309 307 306 304 301 298 298 297 298 298 298 297 299 301 298 297 298 299 299 299 300 303 301 306 308 309 309 310 311 311 310 309 310 311 310 312 311 311 314 312 306 307 309 309 307 307
311 307 308 305 303 299 298 297 297 297 297 297 297 298 299 298 296 295 295 295 296 297 299 301 303 303 304 310 308 308 309 308 308 309 308 309 309 311 309 310 307 307 308 305 305 307 307

GFSGBSN_925_thetae_081.txt.gz
Theta_e
322 323 325 324 322 320 318 314 313 312 311 311 310 310 310 310 309 307 307 309 309 310 308 309 308 307 306 307 305 304 308 305 306 308 310 313 314 317 319 317 321 323 325 325 325 327 326
321 322 322 322 324 322 319 317 313 311 311 311 310 309 310 309 307 306 306 307 309 309 308 309 308 307 306 307 303 305 305 306 305 308 309 311 314 315 317 317 321 322 323 324 325 326 325
324 321 321 321 322 324 320 319 313 308 310 311 310 310 309 309 307 306 305 307 308 308 309 309 307 307 307 307 304 305 306 306 309 310 310 312 313 316 316 317 317 321 322 322 323 325 325
323 325 320 321 320 323 322 320 315 308 309 311 310 309 309 308 306 305 306 306 307 308 308 308 307 307 309 305 305 306 306 308 309 311 312 313 314 316 317 316 319 322 322 325 322 325 325
317 321 325 320 321 322 323 321 316 310 308 311 310 309 308 307 306 305 305 306 307 308 307 307 307 307 308 305 306 306 307 307 310 311 312 311 314 316 316 319 320 321 322 325 324 323 325
313 315 319 324 320 321 323 320 318 312 307 310 310 309 307 306 305 305 306 305 305 307 305 307 307 307 307 307 306 306 307 306 310 311 311 312 313 314 316 320 322 322 321 322 324 323 323
311 312 315 318 324 321 322 321 320 313 306 310 309 308 306 306 306 306 305 307 306 306 305 307 308 307 307 306 307 307 307 307 309 309 312 310 311 314 314 317 317 318 319 320 321 323 323
308 309 312 315 318 323 321 322 319 313 305 308 308 307 306 305 306 306 305 306 305 306 308 308 308 307 306 306 307 308 307 308 309 311 310 310 313 315 315 315 318 319 318 318 320 323 323
305 307 307 311 316 322 321 322 319 313 305 307 307 306 306 305 305 305 306 307 305 306 307 310 308 308 308 307 308 308 308 308 309 309 310 312 314 314 316 316 318 319 317 318 321 323 323
303 305 306 308 312 315 322 322 319 314 305 305 306 306 305 305 305 307 307 305 303 306 305 312 310 309 309 307 308 307 309 309 308 309 310 310 311 315 317 317 318 321 317 318 322 323 326
303 303 305 305 309 312 320 321 319 312 304 304 305 305 304 305 307 307 306 305 304 306 313 312 310 308 310 310 307 308 309 310 308 309 309 310 316 316 318 316 316 320 317 317 321 323 320
301 303 304 305 305 311 314 321 316 313 304 305 304 304 305 305 306 306 305 304 305 307 304 313 311 312 310 311 311 310 311 308 308 310 311 314 314 315 318 317 317 318 319 321 321 321 321
300 301 303 303 304 309 312 322 317 311 305 304 303 303 305 307 308 306 306 305 310 307 310 311 313 311 312 313 313 310 311 311 313 311 314 317 317 317 318 319 318 319 317 322 323 322 320
300 303 303 302 304 307 311 321 315 308 305 304 302 305 307 307 307 306 306 309 310 312 309 312 313 312 313 312 314 313 313 312 312 313 316 315 317 317 317 319 318 320 318 314 319 319 315
300 302 302 304 306 307 312 318 312 307 306 303 305 306 306 306 305 306 309 306 309 309 309 315 314 314 314 315 314 316 315 314 315 313 315 317 318 316 317 317 316 318 319 312 315 312 314
301 302 303 304 304 305 311 318 311 306 304 303 307 307 307 307 305 307 308 309 312 312 313 313 317 315 316 315 316 316 317 314 316 314 312 313 316 316 317 317 316 317 315 313 308 314 316
301 300 301 302 306 309 314 314 308 305 302 306 307 307 306 307 306 308 308 306 313 311 312 315 317 316 313 314 314 316 315 314 314 314 311 313 312 317 317 317 317 316 318 316 313 311 316
301 300 302 308 309 309 314 310 307 303 301 307 306 310 306 306 308 308 308 311 311 312 311 313 312 314 313 312 314 315 315 314 313 312 314 315 312 317 317 315 316 316 317 316 312 316 310
301 301 303 308 308 310 312 308 307 303 304 307 306 307 305 306 309 307 307 312 312 313 312 313 313 312 314 314 316 315 314 313 312 312 314 313 311 315 317 314 314 318 317 317 314 311 309
302 301 304 307 308 310 310 307 306 302 305 308 304 307 305 306 306 309 311 312 313 311 311 310 311 311 312 316 313 314 314 314 313 313 312 312 313 310 309 312 312 314 315 316 314 307 314
301 302 303 306 309 312 308 307 304 300 306 307 304 305 304 307 306 307 308 311 313 312 310 309 311 311 313 314 315 314 313 313 313 312 311 312 310 302 311 314 314 314 314 314 311 314 314
302 301 303 306 310 310 308 306 303 300 306 305 303 305 303 303 305 305 308 311 312 312 310 310 311 311 311 312 312 314 312 313 314 311 312 310 310 309 312 311 313 313 312 313 313 314 315
302 300 303 306 309 309 308 305 303 300 305 301 301 300 301 304 306 307 308 310 311 310 310 311 311 310 313 311 309 309 307 308 311 311 311 311 307 305 309 309 309 310 310 312 312 313 313
301 300 304 305 311 309 308 305 304 300 302 302 300 300 301 303 304 308 309 310 311 309 310 310 308 311 308 307 308 308 308 309 309 309 310 314 313 311 310 308 310 308 307 308 311 312 311
301 302 304 313 312 308 306 304 303 299 301 301 301 302 300 301 302 305 307 305 305 306 309 309 305 303 304 308 308 309 309 311 311 309 309 314 311 314 311 307 310 309 307 309 308 309 307
300 304 305 311 310 308 305 304 301 299 300 300 300 300 299 300 299 298 303 303 303 304 306 305 303 305 308 309 310 310 310 309 311 311 308 309 311 310 313 309 313 309 308 307 306 310 309
301 304 305 310 308 306 304 303 300 299 300 299 298 300 298 297 295 297 299 300 300 301 303 303 306 307 306 307 308 308 309 309 311 310 310 309 309 310 308 313 309 307 307 307 308 307 308
302 304 306 309 307 305 303 303 299 301 300 298 298 300 298 294 294 295 295 297 297 297 301 300 304 305 305 306 310 308 308 308 307 307 309 308 307 308 308 310 310 306 306 308 307 305 306
303 304 310 308 306 304 303 300 298 303 301 298 298 298 297 295 294 295 295 295 295 296 297 298 300 301 301 301 302 305 307 304 304 307 306 308 306 308 307 308 305 305 304 304 303 304 305

GFSGBSN_925_thetae_084.txt.gz
Theta_e
323 324 324 322 322 322 322 322 319 315 313 313 312 311 310 310 310 308 307 307 308 310 310 309 309 308 306 306 306 303 307 307 305 308 309 310 313 315 317 316 318 323 325 325 326 326 326
317 320 322 324 323 321 322 322 320 318 313 312 312 311 310 310 309 308 307 306 308 309 309 309 309 308 306 307 304 303 305 306 304 306 308 311 313 314 316 316 317 320 324 324 326 326 324
314 315 316 321 323 324 321 322 323 319 313 312 312 311 310 309 308 307 306 306 308 308 308 309 309 307 307 307 305 305 306 307 308 307 308 310 312 314 316 317 315 319 324 324 322 323 326
311 313 314 315 318 323 323 321 322 319 314 312 312 311 310 309 308 307 305 306 307 307 308 309 308 307 307 307 305 305 305 309 310 309 309 310 312 315 316 315 317 320 322 326 324 325 326
307 309 312 313 314 317 321 323 321 321 316 312 311 310 309 308 307 306 305 307 307 306 308 308 308 307 307 306 306 305 307 307 310 311 311 312 313 315 316 317 319 320 323 323 324 322 325
305 306 307 308 311 313 317 320 321 321 317 312 311 309 308 307 306 306 306 306 305 305 305 307 307 307 306 307 306 306 307 306 310 310 310 311 312 315 316 318 320 321 320 321 324 324 323
304 305 305 305 308 308 312 316 321 321 317 312 310 309 307 306 306 306 306 307 305 305 305 306 307 307 307 305 306 307 307 307 308 309 310 309 315 316 315 317 319 318 320 321 320 322 322
303 304 304 304 305 307 309 312 315 321 318 311 309 309 306 305 306 306 305 306 305 305 306 307 307 307 307 306 308 307 307 308 308 309 310 311 314 314 315 317 318 318 318 321 321 323 321
303 302 303 303 303 305 307 308 312 318 318 311 308 308 305 304 305 305 305 307 305 305 306 309 308 307 307 307 307 307 309 308 308 308 310 312 312 312 316 317 319 319 320 319 322 323 322
302 302 301 301 302 303 305 306 307 314 318 311 307 307 305 304 305 306 306 305 304 305 301 309 310 308 308 307 307 306 309 309 306 309 310 312 310 316 315 316 317 320 317 318 322 323 327
302 302 302 301 301 302 301 305 306 312 317 311 306 306 304 305 307 306 305 305 303 305 302 309 309 308 309 310 306 308 308 309 307 309 310 310 315 316 316 316 316 319 318 318 322 322 322
302 302 302 301 301 301 304 305 305 309 315 310 305 305 303 305 306 306 305 304 305 307 303 310 310 311 310 311 311 310 310 307 307 310 312 315 314 315 316 316 316 318 318 318 321 322 325
302 302 301 301 300 301 303 303 306 306 313 309 305 304 304 306 307 306 305 304 309 305 307 309 312 311 311 313 311 310 311 309 309 305 313 316 316 315 317 318 318 319 317 319 324 322 320
302 301 301 300 301 302 303 303 306 307 311 306 304 303 306 307 306 305 306 304 309 307 308 311 310 310 313 313 312 313 312 312 311 313 318 313 316 318 317 319 319 320 316 316 321 321 316
302 300 301 301 301 302 302 305 305 307 310 304 303 306 306 306 306 305 304 305 304 307 307 314 312 313 314 313 313 314 313 311 314 312 318 317 318 316 317 317 316 318 316 312 313 310 312
303 301 301 302 301 302 302 303 304 305 308 303 306 306 306 306 305 306 307 306 308 311 311 312 313 313 313 314 314 314 315 313 315 312 311 313 319 316 316 315 314 315 314 313 308 314 316
303 301 301 303 301 300 301 302 305 308 305 304 306 307 306 306 305 307 307 304 309 310 312 313 315 316 313 314 314 314 313 313 313 314 311 311 313 315 315 315 316 315 316 314 311 311 313
301 301 301 302 300 300 304 307 307 309 303 306 306 308 306 306 307 307 307 306 311 311 311 312 312 313 311 312 314 316 314 313 311 311 313 314 311 312 316 315 315 315 316 313 310 312 307
301 301 301 301 301 304 307 309 309 305 306 306 307 306 305 306 307 308 306 308 311 312 311 312 312 312 313 312 315 314 314 312 310 312 312 313 309 316 317 313 311 316 316 316 311 308 308
300 301 301 301 303 301 306 309 307 304 307 307 305 307 306 306 306 306 307 311 313 310 311 310 310 310 312 315 313 314 314 313 312 312 312 311 310 308 309 310 311 314 315 316 311 307 312
300 301 301 301 302 302 305 310 306 306 306 308 303 304 306 307 306 307 308 310 312 311 309 308 310 310 311 314 314 313 313 313 313 311 311 311 308 300 310 314 313 313 313 314 312 313 311
300 300 300 302 301 302 307 310 305 305 307 305 304 303 302 302 304 305 308 309 311 310 309 309 310 310 310 312 311 313 312 312 313 311 311 309 307 308 311 311 312 312 311 312 312 313 313
300 300 300 302 301 303 308 308 305 306 307 301 300 300 302 304 303 306 306 308 310 309 310 309 309 310 311 310 308 307 306 307 310 310 310 310 307 306 308 307 308 310 309 310 311 311 312
300 300 301 301 302 305 309 307 304 305 306 301 301 299 301 305 304 307 308 309 310 309 310 308 308 310 308 306 307 307 307 307 308 308 309 309 309 306 306 306 309 309 306 308 309 310 310
300 300 302 302 304 307 308 307 304 305 304 301 301 301 299 301 302 306 307 306 306 306 308 307 304 303 304 306 307 309 308 310 309 306 309 310 310 312 309 306 308 310 307 308 308 310 308
300 301 301 303 304 310 309 307 304 304 302 300 300 301 298 300 299 297 303 305 305 304 304 304 303 304 307 307 308 309 310 309 310 310 306 308 308 309 314 309 312 307 308 306 305 309 308
300 301 301 304 305 311 308 306 304 304 301 299 299 300 297 296 294 296 301 301 301 301 302 303 306 307 304 305 307 306 307 307 310 309 309 309 309 312 308 312 309 306 306 305 308 306 306
300 300 303 304 309 310 307 305 303 304 301 299 298 299 297 293 293 294 294 297 297 299 302 301 304 304 304 305 307 306 307 306 306 306 307 308 306 306 307 313 309 304 305 306 304 305 305
299 302 303 307 308 307 306 304 303 304 300 298 297 296 297 294 294 294 294 295 295 295 297 297 299 301 302 300 301 303 306 303 302 308 304 307 305 306 306 307 304 303 305 303 302 304 305

GFSGBSN_925_thetae_087.txt.gz
Theta_e
314 314 316 317 318 320 321 323 322 323 321 317 314 313 312 311 310 310 309 308 307 308 310 310 309 309 306 305 305 303 304 308 306 305 307 310 311 311 313 314 315 318 317 321 326 326 324
310 310 312 314 316 316 318 321 323 323 322 319 314 311 312 311 310 310 308 307 307 308 309 309 309 309 306 306 304 304 305 305 306 306 305 309 311 312 313 315 315 317 320 319 326 325 324
307 308 308 309 311 313 314 316 319 322 322 320 315 311 312 311 310 309 308 306 307 309 308 309 309 308 306 305 304 305 305 307 307 308 306 308 310 313 313 315 314 316 321 319 326 323 326
305 306 306 307 307 308 311 311 315 319 322 321 316 312 311 310 309 309 307 306 307 307 308 309 309 308 307 306 306 305 306 307 309 308 306 308 309 312 315 314 316 318 319 319 324 324 323
305 305 305 305 306 306 307 309 310 314 317 321 316 311 309 310 308 308 306 307 307 308 308 309 308 306 306 306 305 305 306 307 309 309 309 311 310 312 315 315 316 318 322 320 323 321 323
305 305 305 304 304 305 305 306 307 310 312 319 317 311 309 309 307 306 306 307 305 306 306 306 307 307 305 306 306 306 307 306 309 308 307 311 313 309 315 316 316 319 321 320 320 324 321
305 305 305 305 304 304 303 304 306 308 308 314 317 311 308 307 307 305 307 307 305 305 305 306 306 307 306 305 306 306 306 306 308 309 310 308 314 314 317 316 316 316 319 321 321 323 322
304 304 304 304 304 304 303 303 304 305 307 312 316 312 307 307 306 306 305 304 304 305 304 305 306 307 306 305 307 306 308 307 307 309 309 308 314 314 315 317 318 317 319 320 321 321 321
305 304 304 304 304 304 304 303 303 304 305 306 312 311 306 305 305 306 304 306 305 305 305 308 307 307 307 306 306 306 308 307 307 308 309 311 313 312 316 318 319 318 319 320 322 322 321
304 304 304 304 303 303 303 303 302 304 304 306 308 310 306 305 305 305 305 306 304 305 299 306 309 308 307 306 306 306 308 308 306 308 310 312 311 315 316 318 318 320 317 319 322 322 328
304 304 303 302 302 301 302 303 302 302 304 304 307 310 305 304 306 305 305 304 303 305 300 306 308 307 308 308 304 306 307 308 307 308 309 313 312 315 315 315 316 320 318 319 321 322 323
303 303 303 303 303 302 301 301 302 303 303 305 307 309 305 306 306 306 305 303 305 305 303 309 309 309 311 310 310 309 309 306 307 310 313 315 314 314 315 316 317 317 319 320 320 322 323
303 303 303 303 303 302 301 301 302 303 303 305 306 308 306 305 306 305 304 303 304 309 306 307 310 310 311 313 310 309 310 308 306 310 316 315 316 315 317 318 316 318 317 321 322 322 322
303 303 303 301 303 302 301 302 302 303 302 305 304 306 304 305 307 305 305 303 307 304 307 309 309 310 312 313 311 312 310 310 311 313 316 314 313 317 316 318 319 320 314 318 323 322 315
303 304 304 301 303 302 302 300 302 302 302 303 306 305 306 307 306 305 302 303 303 303 305 312 311 312 313 312 313 312 311 310 311 311 315 315 319 315 317 317 318 318 312 312 311 310 313
304 305 303 303 303 302 302 303 301 302 302 305 307 305 306 306 305 306 303 306 305 308 310 310 310 311 311 312 314 312 313 311 314 311 311 313 317 316 317 315 314 317 314 315 311 315 315
304 303 303 302 302 302 303 302 302 301 301 303 305 307 306 306 305 305 303 302 306 309 311 311 311 312 311 312 313 313 312 312 313 313 310 311 312 316 313 315 315 315 316 312 311 310 312
304 303 302 301 301 301 301 301 300 302 304 305 306 305 306 305 306 305 303 305 309 310 310 311 311 313 310 311 314 316 312 311 311 311 314 312 310 314 315 314 313 314 315 311 310 312 305
305 303 302 301 301 301 300 302 301 305 305 305 306 306 305 305 306 305 305 306 308 311 311 311 311 311 312 311 315 314 313 311 310 311 313 311 308 305 308 309 311 316 315 312 308 306 306
304 303 302 301 301 301 302 302 305 308 307 305 306 306 306 306 306 304 305 308 312 309 310 310 310 310 313 313 311 313 314 313 311 311 313 310 308 308 307 309 310 313 315 314 309 306 311
303 303 301 301 301 301 302 303 306 308 306 306 304 306 306 307 307 305 305 309 311 311 309 308 309 310 312 314 312 312 312 313 312 311 310 308 306 300 310 313 311 312 313 313 308 310 309
303 301 301 300 301 302 301 302 307 307 306 305 305 304 302 303 306 306 308 308 311 309 308 309 309 309 310 312 312 312 311 311 312 310 310 307 307 307 310 309 309 312 311 312 312 313 313
301 301 301 301 301 301 302 304 307 307 308 303 300 301 302 305 305 305 308 307 309 309 309 307 308 309 310 309 306 306 306 307 309 310 309 309 305 304 307 306 307 309 308 309 310 311 312
301 300 300 301 303 301 303 306 307 306 307 303 300 300 303 305 304 305 306 306 308 309 310 306 308 309 308 305 305 305 304 305 306 306 307 308 307 305 306 305 308 307 306 307 309 309 309
301 300 301 302 300 302 306 309 307 308 304 304 301 299 300 302 302 303 306 306 305 305 306 305 304 303 303 305 306 308 307 309 308 305 308 308 308 310 309 304 306 309 306 306 308 310 308
300 300 301 301 302 305 309 308 306 308 303 300 299 299 298 301 297 296 304 306 304 303 303 304 304 303 305 305 307 309 310 309 310 310 305 307 306 311 312 309 312 306 307 306 304 307 308
300 300 301 301 303 306 308 307 306 307 302 300 299 297 296 295 293 295 302 303 301 300 302 304 306 307 303 304 306 306 307 306 309 309 311 312 312 312 313 312 308 305 305 304 308 305 306
300 300 300 303 305 308 308 307 306 306 300 300 296 297 297 293 293 293 294 297 299 300 304 301 304 304 302 305 306 305 305 305 306 305 306 308 308 308 311 314 308 304 305 307 303 304 305
300 300 302 307 309 309 308 306 306 305 300 300 297 296 297 294 293 294 294 295 295 295 297 296 299 300 301 300 300 302 306 302 302 307 303 307 304 305 305 306 303 302 304 302 302 303 304

GFSGBSN_925_thetae_090.txt.gz
Theta_e
308 309 309 309 310 310 312 314 314 316 319 321 323 319 314 312 312 311 310 311 308 307 308 310 310 309 305 304 304 303 304 304 307 307 306 306 310 310 310 312 312 314 314 317 318 319 321
307 307 307 307 308 307 308 309 312 312 314 318 322 320 315 312 311 310 310 309 308 308 310 309 310 309 305 304 304 304 304 305 305 307 306 306 309 309 310 311 313 313 315 316 318 318 321
306 306 306 306 306 306 306 307 307 308 312 315 317 320 317 312 310 310 310 308 308 308 309 308 309 307 305 305 305 305 305 305 306 308 309 306 308 310 311 313 312 312 317 318 315 318 325
307 307 307 306 306 305 306 306 306 306 308 312 313 319 317 312 309 309 309 308 307 307 308 308 309 307 305 305 306 306 305 307 309 308 306 307 307 308 310 311 314 314 316 320 318 313 317
306 306 306 306 306 306 305 305 305 305 306 308 307 315 316 312 309 309 308 307 307 308 308 309 308 306 306 306 305 305 306 307 309 307 308 309 309 309 309 313 315 316 318 320 318 316 322
306 305 305 305 305 305 305 305 305 304 304 305 307 311 315 311 308 306 306 307 307 307 307 307 307 307 304 306 305 305 306 306 309 307 306 310 309 309 312 313 314 316 319 319 320 321 318
306 306 306 306 306 305 305 305 304 304 303 304 305 308 314 311 307 306 305 306 305 304 304 305 305 306 306 305 305 306 307 306 308 309 309 309 309 314 314 314 314 315 318 319 317 318 320
306 306 305 306 305 305 305 304 304 304 303 304 306 306 312 309 306 304 307 305 304 304 303 304 305 306 306 305 306 305 307 306 306 308 309 308 314 312 315 316 316 317 319 321 320 318 319
305 305 305 305 305 305 304 305 304 304 303 303 305 306 311 308 305 306 306 305 305 304 303 306 306 306 306 306 305 305 307 306 306 307 309 307 312 312 315 317 318 317 317 318 319 320 320
304 304 304 304 305 305 305 304 304 304 303 303 304 307 310 306 305 305 304 304 305 304 297 306 308 307 306 305 304 306 307 307 305 308 309 310 312 314 315 316 317 319 317 319 321 320 324
304 304 304 304 305 304 304 304 304 303 303 303 303 306 309 305 306 306 306 305 304 303 299 305 307 307 307 307 303 305 307 306 307 307 309 312 315 315 316 315 316 320 317 319 320 322 323
304 304 305 304 304 304 304 303 304 302 303 303 303 306 305 306 304 306 305 304 303 300 299 310 308 308 311 309 310 308 308 306 306 309 312 313 312 314 316 316 316 317 319 320 320 322 319
304 304 303 303 304 304 304 303 304 302 302 303 303 304 305 306 305 306 304 303 302 300 304 308 309 309 310 311 309 309 309 307 306 313 317 313 315 314 316 317 315 319 319 322 323 323 321
303 304 303 304 305 305 303 303 303 302 302 302 302 302 303 305 306 306 303 303 301 303 306 307 309 310 311 310 310 310 308 308 309 310 313 308 306 314 315 317 316 319 315 320 322 319 319
303 303 304 305 304 303 303 303 303 302 302 302 303 304 307 305 304 304 304 305 303 304 305 311 309 310 311 312 311 311 309 309 310 309 313 313 315 316 315 317 318 318 314 311 312 310 314
303 303 304 304 303 303 302 302 302 302 302 302 303 303 305 305 305 304 306 306 304 304 309 308 309 309 311 311 311 313 310 309 313 311 311 314 317 314 316 316 314 316 312 314 312 318 315
302 303 303 304 303 303 302 302 303 302 302 302 301 305 305 305 305 306 308 302 305 306 310 309 309 310 309 311 310 310 309 311 313 313 310 311 311 315 313 315 315 314 314 311 310 310 313
302 303 303 305 303 302 302 302 302 302 301 300 302 305 305 305 306 306 307 304 306 309 309 310 309 311 310 310 312 312 311 310 311 310 312 310 309 312 315 313 312 314 314 309 309 312 304
302 304 303 304 302 301 302 302 302 301 301 302 305 306 305 305 307 308 305 305 306 310 310 311 311 311 308 310 313 313 311 311 310 311 313 310 307 312 312 309 310 315 314 309 306 306 307
303 304 304 303 301 301 301 301 300 302 302 304 304 306 306 306 305 305 305 305 309 308 309 310 310 309 312 311 310 313 313 312 310 311 312 309 306 306 306 309 310 313 314 311 308 307 310
301 301 303 302 301 301 301 301 302 304 306 304 305 306 306 307 307 304 303 307 310 311 309 308 309 310 312 312 312 312 312 312 311 310 309 307 306 299 308 311 311 312 313 313 306 309 308
301 301 302 301 301 300 301 301 303 305 304 305 304 305 303 305 305 305 304 308 309 309 309 309 309 309 309 311 311 312 311 311 312 308 309 305 305 306 308 306 308 311 311 311 312 312 311
302 301 301 301 302 301 303 302 305 305 305 303 300 301 304 306 306 305 304 306 309 308 308 306 307 308 309 309 307 306 306 306 308 309 308 307 305 303 306 305 307 308 308 309 310 310 310
302 302 301 301 301 301 302 305 307 306 306 304 300 301 303 305 305 305 305 306 307 308 309 306 307 308 308 303 303 303 303 304 305 306 306 307 307 305 304 304 307 306 305 307 308 308 308
301 301 301 301 301 302 304 307 308 306 305 305 302 299 301 304 303 302 305 305 304 303 304 304 303 302 302 304 306 308 306 309 307 304 307 306 306 308 307 303 305 308 306 305 308 308 308
300 301 301 301 302 304 307 308 305 306 306 305 300 299 296 299 298 295 304 304 303 302 303 305 304 303 303 303 306 309 309 308 310 309 306 306 305 307 310 308 310 305 306 305 303 305 307
300 301 301 303 304 306 308 306 306 306 304 302 297 296 295 294 292 294 301 303 300 300 301 304 306 307 302 304 306 305 307 305 309 308 311 313 312 308 311 312 307 304 305 303 307 305 305
300 301 303 306 306 308 308 306 305 304 303 301 296 296 296 292 293 293 293 298 299 300 304 302 304 304 302 305 305 304 304 304 305 304 307 309 308 307 310 308 307 303 304 306 302 304 304
300 301 306 308 309 310 308 306 304 302 300 300 297 296 296 293 293 293 293 294 294 295 297 296 300 300 301 300 299 301 305 300 301 306 302 307 304 305 305 306 302 302 303 302 301 303 303

GFSGBSN_925_thetae_093.txt.gz
Theta_e
307 307 307 307 307 307 307 306 307 308 309 312 315 316 318 319 315 311 312 309 311 310 308 309 310 309 306 304 304 303 306 304 305 305 306 306 306 309 310 309 308 310 309 312 314 315 318
308 307 308 308 307 307 306 306 307 306 307 309 311 313 315 319 315 312 309 309 310 309 309 310 308 309 305 304 303 304 304 305 305 306 306 306 306 309 309 309 310 311 311 312 314 316 318
308 307 306 307 307 307 306 306 305 306 306 307 308 309 312 318 315 311 308 309 310 308 308 309 307 308 305 304 305 305 306 305 305 307 308 307 306 308 309 309 310 308 309 314 314 316 318
305 307 307 307 307 307 306 306 306 305 305 305 306 307 311 317 315 311 308 309 307 307 308 307 308 306 306 305 305 306 305 306 308 306 306 306 307 308 308 307 309 312 313 316 316 317 314
305 306 308 308 308 307 307 306 306 305 305 305 305 306 308 314 313 310 308 306 307 308 308 308 308 306 306 305 305 304 305 306 308 307 308 308 308 309 308 307 309 314 316 317 319 315 317
304 306 307 308 307 307 307 306 305 305 305 304 304 305 306 310 312 309 306 307 307 306 306 307 307 306 304 305 305 305 305 306 308 306 306 310 308 309 309 309 316 315 316 316 319 318 316
305 306 306 306 307 306 306 306 306 305 305 304 303 304 305 308 311 307 305 306 306 305 304 307 306 305 305 305 305 305 305 306 308 309 310 308 310 310 313 310 313 315 316 317 320 318 317
305 305 305 306 306 306 306 306 305 305 304 304 303 304 305 309 309 306 305 305 305 303 305 304 305 305 306 305 305 304 307 305 306 308 308 309 314 311 309 311 315 316 318 319 318 317 316
306 306 306 306 306 306 306 305 305 305 305 304 302 304 306 311 307 305 306 305 305 304 303 305 305 306 305 305 305 305 307 306 306 307 308 307 312 312 315 316 317 317 318 318 319 319 316
304 305 305 305 305 305 305 305 305 305 305 303 302 304 305 308 305 305 305 304 304 304 303 306 308 306 306 304 304 305 307 307 304 307 308 310 312 314 314 316 317 319 317 317 318 320 322
304 304 305 305 305 304 304 305 305 305 305 303 303 304 305 306 305 305 305 304 305 303 310 306 307 306 306 305 302 303 307 306 306 307 308 314 315 315 313 317 316 319 317 319 319 322 322
304 304 304 304 304 304 304 305 303 305 304 303 303 304 302 306 305 306 305 304 303 307 309 310 308 307 310 309 310 307 307 305 306 309 312 313 312 314 316 315 317 317 318 318 319 320 322
303 304 304 304 304 304 304 303 301 302 304 303 302 303 303 303 305 305 305 303 308 309 305 310 308 308 309 310 310 308 308 306 307 310 315 312 314 313 316 315 316 317 319 322 322 319 321
303 303 303 303 303 304 305 302 303 301 303 302 301 303 302 302 304 305 303 306 309 306 307 306 308 308 310 309 309 309 308 307 308 311 311 305 308 314 314 316 318 318 317 319 320 320 323
303 303 302 304 304 305 301 303 303 303 302 301 301 302 304 304 306 304 303 308 309 306 305 309 308 309 311 312 310 310 308 308 308 310 312 312 317 315 314 316 317 318 315 311 312 311 320
302 301 302 304 304 304 301 303 303 302 301 302 302 302 301 305 305 303 306 309 306 304 307 306 308 308 310 310 309 310 310 308 312 310 310 313 315 313 316 316 314 315 312 314 313 316 316
302 301 302 303 304 305 303 303 303 302 301 301 301 303 304 304 304 303 307 307 304 304 308 308 309 309 308 310 308 309 309 309 312 312 310 311 312 318 313 315 315 314 314 311 311 310 315
301 302 302 303 303 303 301 302 302 302 302 300 301 305 304 304 305 305 307 305 306 308 307 309 309 309 309 309 310 311 310 309 310 309 312 309 309 317 316 311 311 313 312 308 313 314 306
302 302 301 301 302 301 301 302 302 301 301 299 303 301 305 305 307 308 306 306 306 309 309 310 311 310 307 310 313 312 311 310 310 310 312 309 307 312 311 309 310 313 312 307 306 307 308
302 302 302 302 301 301 301 302 302 301 300 299 303 303 306 305 305 306 308 307 306 307 309 309 309 309 309 311 309 312 313 311 309 311 311 307 305 306 306 309 309 313 314 310 308 309 310
302 302 302 302 302 302 300 300 302 302 301 302 303 304 305 306 307 306 306 305 307 311 308 307 309 310 310 312 311 312 312 311 310 309 307 306 306 300 307 308 310 312 313 312 307 308 310
302 302 302 302 301 302 302 302 302 306 305 303 305 306 303 305 305 306 306 306 309 308 309 309 308 308 310 311 310 311 311 310 312 308 308 304 305 305 308 306 306 311 310 311 312 311 311
301 301 301 302 301 300 301 303 306 305 304 301 300 301 304 306 306 307 304 307 309 307 307 306 306 307 309 309 307 305 305 304 307 308 307 306 305 303 307 304 306 308 308 310 310 309 310
300 300 301 302 302 302 304 306 306 305 306 303 301 302 304 307 306 306 304 306 308 308 307 305 305 308 307 302 301 303 302 303 304 304 304 306 305 304 304 303 307 305 304 306 308 308 308
300 300 301 302 303 305 307 308 306 305 304 304 301 300 301 303 304 304 304 306 305 303 303 304 303 301 302 303 307 308 308 309 306 304 304 304 305 307 308 305 304 306 305 306 308 307 307
300 300 301 303 304 307 308 307 305 306 305 304 299 299 298 300 301 297 304 304 305 303 303 306 304 302 302 302 305 309 310 308 310 309 305 305 303 306 307 307 309 304 305 304 303 305 306
300 301 302 305 307 307 308 306 306 306 305 302 296 297 296 294 292 294 303 304 300 300 301 305 306 307 302 304 306 305 306 304 308 308 313 312 311 307 307 305 306 303 304 303 307 305 305
300 300 303 309 307 305 305 306 305 305 305 305 295 297 296 292 292 293 293 298 299 300 304 302 305 305 303 306 305 303 303 303 304 304 306 308 307 307 307 305 306 303 304 304 302 302 303
300 301 305 309 308 305 305 304 303 303 303 301 296 296 296 292 292 293 293 294 293 295 297 296 300 300 301 300 298 301 304 299 301 306 301 306 303 305 305 305 301 301 303 301 300 302 303

GFSGBSN_925_thetae_096.txt.gz
Theta_e
308 308 308 308 308 308 307 308 308 307 307 307 307 309 310 313 318 318 314 312 312 311 309 309 310 310 307 307 306 303 307 305 305 307 307 307 308 308 310 309 309 309 308 307 308 309 311
307 306 308 308 308 308 307 307 307 307 307 306 307 307 308 310 313 318 314 310 310 310 309 309 310 309 307 309 304 303 304 304 306 306 307 307 307 307 308 310 310 308 308 308 308 309 311
306 306 307 308 309 308 308 308 307 306 306 306 306 306 307 307 311 317 313 309 311 309 307 309 309 308 306 309 304 305 305 306 306 307 308 308 307 307 308 310 309 309 309 310 311 310 313
306 306 306 307 308 308 308 308 307 307 306 306 306 305 305 306 310 316 312 309 308 305 308 308 308 307 309 305 305 305 307 306 309 307 307 308 308 307 308 309 309 307 311 313 311 311 313
306 306 306 307 307 308 308 308 307 307 306 306 305 305 305 305 309 314 310 308 306 307 307 309 307 306 308 305 306 305 305 307 309 308 309 307 307 310 310 310 309 309 318 316 316 314 316
304 307 307 307 307 307 307 307 307 305 305 306 305 305 305 304 308 311 308 306 307 307 307 308 306 307 307 306 305 305 306 306 308 308 309 310 310 312 310 311 312 316 316 315 316 317 317
305 304 306 307 307 307 307 307 307 307 306 306 305 304 304 306 308 309 305 305 306 306 306 306 308 308 306 306 305 306 306 308 309 310 312 309 311 311 312 311 308 310 316 317 319 318 318
304 303 305 306 306 306 306 306 306 306 306 306 305 302 304 306 310 308 305 307 305 305 307 306 306 307 306 306 306 305 307 308 308 311 310 311 312 313 311 311 312 313 316 318 319 318 318
303 303 304 305 306 305 306 306 305 306 306 306 304 301 303 307 308 305 306 306 305 304 305 305 306 306 307 306 306 305 308 307 308 310 311 312 312 312 315 314 316 317 314 318 319 318 317
303 304 304 305 305 305 305 305 305 305 305 306 304 302 302 305 306 306 306 305 304 304 308 308 308 308 307 306 306 306 308 308 307 311 310 312 312 314 315 315 317 316 315 317 318 320 322
303 302 304 304 305 304 304 305 305 305 303 303 304 302 302 304 306 306 305 304 305 304 318 308 308 306 307 307 304 305 308 308 308 310 312 314 315 316 316 316 317 318 318 318 318 320 321
302 303 303 304 304 304 304 305 305 303 302 303 303 302 302 304 305 306 304 305 304 311 315 312 309 309 310 309 310 307 308 307 308 311 312 314 312 314 316 315 317 319 319 319 321 321 323
302 301 302 303 302 303 304 305 303 301 301 302 303 301 302 303 305 305 304 303 312 315 306 312 309 309 310 311 310 309 309 309 312 317 316 313 315 313 315 317 318 318 320 323 323 325 324
301 302 302 302 303 302 304 302 301 303 301 301 301 301 303 303 304 304 302 307 314 308 308 308 309 310 311 309 310 310 309 309 310 313 314 315 317 314 314 317 318 317 319 323 321 323 324
302 301 302 301 303 304 304 302 303 302 301 301 301 301 303 303 303 304 305 311 313 310 308 310 310 311 312 310 310 310 310 311 311 313 316 316 318 315 315 316 316 319 318 313 318 320 322
301 302 302 302 302 304 301 300 302 302 301 302 302 302 302 303 304 303 307 310 309 305 307 309 311 311 311 309 311 311 311 311 314 311 312 315 319 315 316 316 316 317 314 319 320 322 322
302 302 303 302 302 301 301 301 302 302 301 301 302 303 302 304 304 305 309 310 307 306 306 309 310 311 311 312 311 312 312 312 314 314 313 313 315 318 315 317 318 317 316 315 315 315 319
302 303 303 302 301 301 300 301 302 302 301 300 302 304 302 304 304 305 309 308 306 308 307 311 311 311 311 312 312 313 314 313 311 312 314 312 315 319 317 314 313 315 316 313 319 316 313
302 303 303 303 302 302 302 302 301 301 301 300 303 304 303 304 309 310 306 306 306 308 310 312 313 311 311 313 314 314 314 312 311 312 314 312 314 320 317 315 314 317 315 313 312 315 316
302 302 303 303 302 302 300 299 300 301 300 300 302 304 304 304 305 307 309 309 309 307 310 311 311 310 313 314 313 315 315 313 311 313 310 310 311 312 316 315 314 318 316 314 315 322 315
301 301 302 301 302 302 302 302 302 300 300 300 302 304 305 308 307 307 307 308 307 310 310 309 311 312 313 315 315 315 314 313 312 310 311 311 315 310 311 311 314 314 316 316 316 313 317
301 301 301 302 303 303 304 305 305 305 301 302 303 306 306 306 305 307 307 309 308 309 311 311 312 312 312 314 313 315 314 314 314 311 312 310 315 310 313 310 311 313 314 315 315 313 314
301 301 301 302 303 304 305 306 306 306 302 303 302 303 306 306 305 308 307 307 308 309 308 307 310 312 313 311 310 311 310 310 311 312 312 312 313 315 316 310 311 314 311 313 313 313 314
301 301 301 303 303 305 306 306 304 303 303 303 303 304 307 308 307 307 306 305 308 308 310 307 308 312 307 305 307 309 310 310 311 310 309 311 312 313 315 311 316 310 307 308 311 310 311
300 301 302 303 305 306 307 306 305 305 305 304 302 304 306 306 306 306 305 307 306 305 307 308 307 305 305 307 313 313 313 313 311 310 310 310 312 313 316 313 310 309 308 309 311 311 311
300 301 303 308 307 307 307 306 305 305 304 303 299 300 303 306 303 298 306 306 308 308 309 307 306 304 305 308 311 314 313 312 314 314 310 309 310 312 312 314 313 310 307 306 306 310 310
300 301 305 307 307 307 307 306 306 305 302 301 297 298 300 301 296 298 306 306 302 306 309 308 308 309 305 310 311 311 311 307 313 314 313 313 312 313 312 313 310 308 307 304 310 311 310
300 301 307 307 307 307 306 305 306 305 304 302 296 297 298 299 296 295 295 301 302 305 311 308 309 309 310 312 311 309 309 309 309 308 311 311 312 312 311 312 312 306 306 308 307 307 309
298 302 307 308 306 306 305 306 305 305 303 301 297 297 297 298 296 293 293 294 294 296 303 302 305 307 308 311 307 307 309 306 308 310 305 311 310 311 311 310 305 305 305 304 306 308 307

GFSGBSN_925_thetae_099.txt.gz
Theta_e
308 308 308 308 308 310 310 309 308 307 306 307 308 307 307 307 309 312 315 317 314 311 311 309 310 310 309 310 309 305 309 307 306 306 308 308 309 309 311 309 308 309 308 308 308 308 309
307 308 308 308 308 308 310 309 309 308 308 308 307 307 307 307 307 310 314 317 312 312 309 309 310 309 310 311 306 304 306 305 306 307 308 308 308 307 309 310 310 310 310 309 309 309 308
306 306 307 307 307 308 309 309 309 309 308 308 307 306 306 306 306 309 313 314 309 310 308 309 310 309 309 310 306 305 305 306 306 308 309 308 308 308 308 310 309 311 311 310 310 309 309
307 306 306 308 308 308 308 308 308 308 307 308 307 306 306 306 306 308 315 312 311 309 307 308 308 309 309 308 307 306 306 307 307 309 309 308 309 309 308 309 310 310 310 311 310 309 310
306 306 306 305 307 308 308 308 308 308 308 306 305 307 306 305 305 308 313 310 307 305 307 308 308 308 310 306 307 306 306 306 308 310 309 308 309 309 309 312 312 311 313 313 313 312 311
306 305 305 305 305 307 307 308 308 307 306 305 307 307 306 305 305 308 310 306 308 307 308 308 308 308 309 308 306 305 305 307 308 310 310 310 310 312 312 312 314 313 315 315 320 315 313
306 305 304 304 305 306 306 306 307 307 307 307 305 306 304 304 305 307 307 306 307 306 306 308 309 309 307 307 306 306 306 308 309 310 312 311 313 313 311 311 312 312 313 314 318 314 314
307 306 305 304 304 305 306 306 306 306 306 306 306 305 303 304 308 309 305 307 307 307 309 306 307 309 307 307 307 306 307 309 309 311 312 312 312 311 312 313 313 314 314 316 318 318 316
307 306 305 303 304 304 305 305 305 305 306 306 305 305 303 304 308 306 307 307 305 305 309 307 307 307 307 308 307 306 308 308 309 309 311 313 313 312 314 313 314 314 316 317 320 319 318
308 307 303 302 303 303 304 304 304 305 305 305 304 305 304 303 306 306 305 306 305 305 313 310 309 308 308 308 308 306 308 309 308 310 311 312 312 314 315 315 315 319 315 316 317 322 325
308 304 303 303 303 303 304 303 304 302 303 303 302 303 303 303 306 307 306 306 306 305 318 310 309 307 308 308 306 306 308 309 309 310 311 314 314 316 317 318 316 318 315 317 316 318 323
305 304 303 303 303 303 303 304 303 304 303 302 304 303 301 303 305 307 304 305 304 312 319 313 309 309 310 309 307 307 308 308 309 311 312 313 313 315 316 316 316 315 317 317 318 322 328
305 303 303 303 303 303 301 305 302 301 302 302 302 302 302 304 306 306 305 303 312 316 309 312 310 310 310 311 311 307 308 311 312 318 316 314 315 314 315 315 316 319 317 325 326 326 327
303 303 303 303 303 304 304 302 303 302 301 301 301 301 302 303 305 305 303 307 316 311 311 310 309 310 311 310 311 309 309 311 311 313 316 317 319 315 315 317 318 320 321 327 323 327 327
302 304 304 303 303 304 302 301 302 301 300 300 301 303 304 304 304 304 306 312 316 312 309 311 310 311 310 309 310 309 309 313 313 314 317 317 319 315 315 314 315 319 321 315 321 320 321
303 304 304 303 303 302 302 302 303 301 301 301 303 303 304 304 304 304 307 310 312 307 309 310 313 312 310 309 310 311 313 312 315 313 313 318 322 315 316 317 317 319 316 322 322 324 322
303 303 304 303 302 302 302 303 302 301 301 301 304 304 303 305 304 305 308 312 309 307 308 311 312 311 310 309 312 312 313 314 314 315 314 315 317 319 317 318 319 319 317 316 316 317 320
304 303 303 303 302 301 302 301 302 301 300 302 303 305 302 303 305 306 311 309 305 310 308 311 312 312 311 311 313 314 315 316 314 314 316 314 317 321 319 315 314 316 315 315 320 318 319
303 302 302 302 301 300 301 300 301 301 301 302 305 302 303 304 309 309 307 308 308 310 312 313 314 312 311 313 314 314 315 314 313 314 315 313 316 321 319 317 316 318 316 315 316 320 320
303 301 301 302 303 303 303 302 300 301 300 303 304 306 303 303 306 308 309 310 310 309 311 312 312 312 313 314 314 315 315 314 313 314 311 313 315 317 320 318 316 319 316 315 319 324 318
302 301 301 302 303 304 305 306 302 300 301 303 305 307 306 309 309 308 308 308 309 311 312 312 313 312 314 315 314 316 315 314 313 312 313 314 317 313 313 314 315 316 316 315 318 316 319
302 301 302 303 304 305 305 306 305 302 301 303 306 307 306 307 307 308 307 309 309 311 312 313 313 313 313 314 315 315 315 315 315 314 314 313 318 314 314 313 314 316 316 315 315 314 315
301 301 302 304 304 305 306 305 307 304 301 304 305 306 307 306 307 308 308 309 309 310 310 310 312 312 314 313 313 313 313 313 313 314 314 314 316 318 317 313 313 315 313 314 315 315 315
301 301 303 305 306 306 306 305 305 303 303 306 306 307 309 308 307 308 308 307 309 310 312 310 311 313 310 310 311 312 313 313 313 312 312 313 314 316 318 314 319 312 309 310 313 313 313
301 302 304 306 307 307 306 304 304 303 303 306 305 306 308 307 306 307 307 308 308 309 310 311 309 308 307 310 314 314 314 314 313 313 313 313 314 315 318 315 312 311 310 311 313 313 311
301 302 305 307 307 307 306 305 304 303 303 304 301 301 306 308 306 305 307 308 309 311 311 310 307 307 308 312 313 314 314 314 314 315 312 312 312 314 315 317 315 312 309 308 308 312 311
297 303 305 307 306 307 305 305 303 302 301 302 299 300 304 305 301 301 307 307 307 309 312 311 309 310 308 313 313 313 312 310 313 313 314 314 313 315 314 315 312 310 308 307 311 314 311
296 304 306 307 306 307 307 305 304 301 303 300 298 299 303 304 300 299 299 306 306 309 312 311 311 311 313 314 313 312 310 311 310 310 312 311 312 313 313 314 314 309 307 309 310 311 311
295 303 306 307 306 306 305 305 304 305 303 301 301 297 299 303 300 296 296 296 297 299 306 307 309 311 312 314 311 310 310 309 310 310 309 312 311 312 312 312 308 308 308 307 309 311 310

GFSGBSN_925_thetae_102.txt.gz
Theta_e
309 308 308 308 309 309 309 309 310 310 310 309 309 309 308 308 307 307 308 312 314 315 312 311 310 310 309 310 310 309 311 310 308 307 308 308 308 308 309 308 309 309 309 309 308 308 308
309 309 308 308 307 309 310 309 309 309 310 309 309 309 308 307 307 307 307 311 313 314 312 310 310 310 310 312 306 307 308 307 306 306 307 308 308 308 308 309 310 309 309 310 311 311 309
309 308 308 307 307 306 308 309 309 309 309 309 309 309 308 307 307 306 307 311 316 313 310 310 310 309 310 310 307 305 306 306 306 307 308 309 308 308 308 309 309 311 310 311 311 311 311
309 308 308 307 307 306 306 308 309 309 309 309 308 307 308 307 307 306 308 313 312 310 308 308 309 310 310 309 308 306 306 307 307 308 309 308 309 309 309 308 309 311 312 313 311 310 310
310 309 308 307 307 306 306 306 308 308 308 307 305 305 307 307 306 305 310 312 311 308 306 310 308 310 310 307 306 307 306 307 307 310 309 308 309 310 309 310 310 311 312 313 312 311 312
310 310 309 308 307 306 304 306 306 307 306 306 305 305 304 307 306 305 308 308 307 308 307 308 309 309 308 308 307 305 305 306 308 310 311 310 309 311 312 312 312 314 314 314 314 315 315
310 310 309 308 304 304 303 305 305 304 306 304 306 305 304 305 306 307 307 307 307 307 308 309 308 309 308 307 306 306 305 307 308 309 311 311 313 311 310 311 311 311 313 314 312 314 316
310 310 306 304 302 304 304 304 304 304 301 305 306 305 304 305 304 308 307 307 307 308 309 307 307 308 308 308 308 307 306 308 309 310 311 312 310 310 311 311 313 314 315 313 313 318 315
311 306 304 304 305 304 304 304 304 304 304 305 305 304 304 303 304 307 306 307 306 305 309 309 307 309 308 308 308 307 307 308 309 310 309 313 312 311 313 314 316 313 314 313 317 315 317
307 305 304 305 304 304 304 304 305 305 303 304 301 303 303 304 304 306 305 304 305 306 311 309 308 308 307 308 308 306 306 309 308 309 309 311 312 313 315 316 316 315 315 317 319 318 323
306 304 305 305 304 304 305 305 304 305 303 302 301 302 304 303 305 307 306 306 305 307 316 310 309 307 308 309 306 306 308 309 308 309 310 312 314 315 315 316 315 315 316 318 319 319 317
304 304 305 304 304 304 304 304 302 301 301 302 304 302 304 303 303 306 305 305 305 311 316 312 309 310 309 309 305 307 308 308 309 311 311 311 311 314 316 316 315 315 317 318 317 320 325
303 305 305 304 304 303 303 304 302 301 302 303 303 303 302 305 306 306 304 304 311 314 311 310 310 309 311 310 310 307 306 310 312 314 314 314 315 314 315 315 315 317 319 322 325 327 326
303 305 305 304 304 303 303 304 302 302 301 302 301 302 303 304 305 304 304 307 313 312 314 310 309 310 313 310 311 309 309 310 311 312 316 317 319 315 314 316 317 319 319 323 327 327 329
304 304 305 304 303 303 303 304 302 301 300 300 303 304 304 304 304 304 306 310 312 312 310 310 310 310 310 310 310 309 309 312 313 313 319 318 319 315 314 314 315 320 321 316 321 322 325
304 304 304 304 303 303 303 303 301 301 301 302 304 304 304 304 304 304 306 312 310 308 310 310 313 310 309 309 309 310 311 313 315 314 313 317 319 314 314 315 316 318 317 319 321 328 329
304 303 303 303 303 302 302 300 301 300 300 303 304 305 303 304 303 305 309 310 309 308 308 312 314 311 308 309 312 315 314 314 314 315 314 315 313 319 316 320 319 318 317 316 315 316 320
303 303 302 303 302 302 301 300 301 301 302 303 304 304 303 303 304 305 310 309 306 309 309 311 313 312 311 311 313 315 316 316 314 314 315 315 318 320 318 315 314 316 315 314 317 318 317
303 303 302 302 303 303 303 302 300 301 301 304 304 302 302 304 308 308 307 307 308 310 312 313 313 312 312 314 315 315 315 314 313 314 313 313 315 319 318 316 315 317 314 315 318 319 315
302 302 302 303 303 304 305 305 301 300 301 303 305 306 304 305 306 308 308 308 310 310 312 312 312 311 313 314 314 315 315 314 313 313 313 313 313 315 317 317 316 316 314 314 316 315 316
302 302 302 303 304 304 305 306 305 301 301 303 307 306 305 308 310 308 308 307 309 312 312 312 312 313 314 314 315 316 314 314 314 313 313 314 313 306 312 314 315 315 315 314 313 315 315
302 302 303 304 305 305 305 306 306 302 301 304 307 307 307 307 307 307 306 309 310 312 313 313 313 313 313 315 315 315 314 314 314 313 313 313 313 314 313 312 313 313 313 314 315 314 314
302 302 304 305 307 307 306 306 305 303 301 304 306 306 307 306 306 308 308 309 310 311 311 311 312 313 314 313 312 312 312 311 312 312 312 313 313 313 313 312 312 313 311 313 314 313 314
301 302 305 306 307 307 305 306 305 304 304 306 307 307 308 307 306 308 308 309 310 310 312 311 310 313 310 307 309 312 311 312 311 311 311 313 313 313 313 311 313 312 309 309 312 312 313
301 302 305 306 308 307 304 305 305 304 304 306 306 306 309 306 306 307 307 309 309 309 311 311 309 307 306 308 313 313 314 314 313 312 311 311 313 314 313 311 311 310 309 310 312 312 311
301 302 305 306 308 307 304 304 304 302 303 304 303 302 306 307 305 306 307 308 308 310 311 311 308 307 307 311 312 314 313 312 313 314 312 311 311 312 311 314 314 311 308 308 308 310 310
300 302 306 306 308 306 305 305 304 304 303 302 302 300 304 304 301 302 306 307 307 309 311 310 309 310 308 312 312 311 311 310 312 312 313 313 312 312 313 312 312 308 307 307 310 311 309
297 299 305 306 307 306 305 304 302 302 300 301 300 299 303 303 300 300 300 304 306 308 311 310 310 310 311 312 311 310 308 309 309 309 311 310 310 311 311 312 310 306 306 308 308 309 309
296 299 305 307 306 306 305 304 302 305 302 301 303 300 301 301 299 298 297 297 297 298 302 307 309 310 310 311 309 308 308 307 307 307 309 308 308 310 309 310 307 306 307 306 308 308 309

GFSGBSN_925_thetae_105.txt.gz
Theta_e
311 310 310 310 310 309 309 308 310 310 310 310 310 310 310 310 309 308 307 307 309 314 317 313 310 310 311 310 310 308 312 314 310 308 309 308 308 308 308 307 307 308 308 308 308 309 308
312 311 311 310 309 309 308 308 307 309 310 310 310 310 310 309 309 308 307 306 309 312 315 312 311 312 310 311 309 312 312 309 307 306 307 307 308 308 308 307 308 308 309 309 308 309 310
312 312 312 311 311 309 308 307 307 307 308 309 309 309 308 308 308 308 307 307 309 313 314 311 312 311 310 310 306 308 307 305 306 306 308 308 308 309 308 308 308 309 310 310 309 309 310
312 312 312 312 311 310 308 308 305 305 308 308 308 308 306 307 308 308 306 312 311 314 311 309 312 310 311 309 306 306 306 306 306 307 309 308 308 309 308 307 308 309 309 310 309 310 311
312 312 312 312 309 306 305 305 304 306 306 306 304 307 305 305 305 307 305 311 312 310 308 309 309 310 310 308 307 305 306 307 307 309 308 309 309 309 307 307 307 308 306 308 311 311 311
312 311 308 308 307 306 305 305 305 305 305 304 302 303 303 303 305 306 306 305 309 310 310 308 308 308 307 309 307 307 306 306 309 310 310 309 308 308 310 308 305 311 309 311 311 312 312
309 309 307 306 305 306 305 305 305 305 305 304 303 305 304 304 306 303 307 306 306 305 308 309 309 310 308 307 305 305 305 307 308 310 310 311 310 309 307 308 308 310 311 311 311 312 315
308 307 305 306 306 305 305 306 305 305 305 304 304 304 304 305 303 307 306 306 307 304 308 308 308 309 308 307 308 307 305 308 309 307 310 311 311 308 309 309 310 311 313 313 312 313 316
308 305 306 305 306 306 305 306 306 306 305 304 303 303 303 303 302 307 306 306 306 305 309 310 308 309 308 308 308 308 307 308 309 308 307 308 309 310 310 313 314 314 314 312 313 312 314
305 305 306 305 305 305 305 304 304 304 305 304 302 303 303 303 304 304 303 304 305 306 310 310 310 309 308 308 309 307 306 308 307 307 307 308 308 311 312 314 315 316 313 315 318 318 319
304 306 305 305 305 304 304 304 304 304 303 303 302 303 303 303 304 306 306 305 305 306 312 309 308 307 308 309 306 306 307 308 308 308 309 308 314 314 314 314 315 315 315 316 316 320 317
304 305 305 304 304 305 304 304 303 304 304 304 303 304 302 302 304 305 306 305 305 309 311 311 308 310 309 309 307 308 309 307 307 310 309 309 310 312 314 315 315 315 316 317 317 319 322
304 305 305 304 304 304 304 304 303 304 302 302 301 303 304 304 306 305 304 304 307 311 311 309 311 309 309 309 308 308 307 309 309 308 312 312 312 314 313 313 314 315 318 318 322 324 325
304 304 305 304 304 304 304 304 303 302 300 303 303 303 304 305 305 304 304 307 311 312 310 310 309 311 312 311 311 308 307 307 308 311 311 309 312 314 314 315 317 316 319 321 322 327 326
304 304 304 303 303 303 303 304 302 301 301 303 303 303 304 304 303 304 304 308 311 312 310 310 310 309 309 309 308 308 307 310 312 310 316 316 317 315 314 314 315 319 322 318 320 323 323
303 304 303 304 303 303 303 303 302 300 301 303 304 303 303 303 303 303 302 311 310 309 310 311 312 308 308 308 308 310 310 313 315 314 313 316 315 314 314 315 315 316 316 320 319 322 326
303 304 303 303 304 303 303 302 301 301 302 303 304 300 303 303 303 301 307 309 309 308 309 313 312 309 306 308 312 313 315 314 314 315 313 313 313 318 316 319 317 317 317 317 315 316 323
303 303 303 303 303 304 304 304 301 300 302 304 301 301 303 303 300 305 307 307 307 309 308 310 311 310 308 310 313 315 317 316 314 313 316 314 316 316 317 314 314 314 316 313 314 317 314
302 302 303 303 303 304 304 305 305 300 301 302 301 302 302 303 302 303 305 307 307 310 311 312 311 310 311 314 314 315 315 314 314 314 313 313 312 313 314 311 311 315 313 314 316 313 314
302 303 304 304 304 305 305 305 305 301 301 303 299 297 299 301 303 305 306 306 310 309 311 311 312 310 312 313 312 314 315 314 312 312 312 312 311 312 311 314 313 314 314 312 313 311 315
302 303 304 305 306 306 306 305 305 303 301 303 300 301 300 302 305 305 306 306 311 311 310 310 311 312 312 314 313 314 313 313 313 312 312 311 310 304 311 313 313 311 313 313 313 312 315
302 303 304 305 306 307 307 306 305 304 301 303 302 302 304 306 304 305 305 308 311 311 311 310 312 312 311 312 312 313 312 311 312 310 311 310 308 312 311 310 310 310 310 312 313 312 312
301 302 304 305 307 308 306 305 306 305 301 303 305 305 301 304 302 305 305 308 310 310 310 310 310 311 311 310 307 307 309 309 310 311 310 311 309 308 309 310 310 312 310 310 312 311 312
295 301 305 305 307 305 305 306 305 304 304 304 306 306 303 305 304 305 307 308 309 309 311 310 308 310 309 305 306 308 310 309 309 309 308 311 310 308 307 307 310 309 308 308 311 311 310
294 301 305 306 307 304 305 305 304 303 303 303 303 302 304 302 304 304 306 308 307 308 309 310 308 306 304 307 310 310 310 311 312 311 310 308 310 311 309 306 309 309 308 309 311 311 310
293 299 305 306 307 304 303 303 303 303 303 303 303 300 302 302 301 302 305 306 305 306 308 309 307 305 305 309 308 311 310 311 311 309 311 310 308 308 307 310 312 308 308 307 306 307 308
293 298 305 306 307 304 304 304 303 302 301 302 302 299 301 299 298 300 303 304 304 306 306 308 308 309 307 308 309 307 308 308 310 310 311 309 309 309 309 306 309 307 306 306 308 305 308
293 295 305 306 306 306 305 302 303 303 301 302 302 299 301 297 297 298 298 302 302 303 307 306 307 306 307 309 308 307 306 306 306 306 309 308 307 308 308 309 309 305 305 306 304 307 307
293 294 304 306 306 306 305 302 302 305 304 301 303 300 300 299 297 297 297 297 298 298 299 303 305 306 307 303 304 304 306 303 304 305 306 306 305 306 306 307 304 302 305 304 305 306 307

GFSGBSN_925_thetae_108.txt.gz
Theta_e
314 314 313 313 313 313 312 311 309 309 309 309 310 310 310 310 310 310 309 308 307 307 311 315 315 311 311 310 310 311 313 313 310 309 308 307 307 307 307 306 307 307 307 308 308 308 308
313 314 314 314 313 312 312 311 309 309 308 306 308 309 309 309 307 308 309 308 307 307 311 316 312 309 310 311 309 311 313 313 307 308 307 307 307 306 307 307 306 306 307 308 308 308 308
313 313 312 310 308 309 308 308 307 305 308 307 307 307 308 307 307 307 309 308 308 310 310 314 310 312 310 310 309 313 313 308 306 306 306 308 307 307 306 307 307 308 309 308 309 310 309
313 310 310 309 309 308 307 307 306 306 306 306 306 305 305 307 306 305 308 306 311 310 312 312 310 309 311 309 311 311 306 305 306 308 308 308 308 307 308 306 306 308 307 308 308 309 310
310 311 309 306 307 306 307 307 306 306 306 305 305 304 303 302 305 306 307 306 312 313 313 311 309 309 309 307 308 308 306 306 306 309 308 309 307 308 307 307 305 305 303 306 309 310 310
311 309 306 307 306 306 307 306 307 306 306 305 303 302 303 303 304 305 306 303 310 309 310 308 308 310 307 309 306 305 305 306 308 309 310 309 309 308 308 307 301 307 306 308 309 309 309
309 305 307 306 305 306 306 305 307 307 306 306 304 304 303 303 305 305 305 302 304 307 307 310 308 310 309 307 306 306 306 306 309 310 308 310 307 308 305 306 306 307 309 310 309 309 311
305 306 306 306 305 305 305 304 305 306 306 305 303 304 304 304 304 306 306 306 303 304 307 308 309 308 307 306 307 306 306 307 308 308 309 309 310 307 306 306 308 309 311 311 311 311 312
305 306 305 305 305 305 305 304 305 305 305 304 304 302 303 303 305 306 306 306 305 306 307 308 308 309 308 307 308 307 306 307 308 306 306 306 306 308 308 309 312 313 312 312 311 311 314
305 305 306 305 304 305 305 304 305 306 304 302 303 303 303 302 305 303 304 305 305 306 309 310 310 309 308 308 308 306 306 307 307 307 307 307 307 308 309 311 312 315 312 313 316 318 318
306 305 305 304 304 304 304 304 304 305 303 304 303 303 300 303 305 306 304 303 305 306 310 309 309 306 307 309 306 306 306 307 308 307 309 308 311 314 313 313 314 315 313 314 314 316 316
306 304 305 304 304 304 304 304 303 304 302 303 303 304 304 304 305 305 305 305 305 304 305 310 307 310 309 308 307 308 307 306 307 309 308 308 309 311 311 313 314 314 315 315 315 318 319
305 304 305 304 304 304 304 304 304 304 303 303 304 303 305 305 304 304 304 303 305 308 309 311 309 308 309 308 307 307 307 308 307 308 310 310 311 311 312 314 313 315 317 315 316 319 320
304 304 304 305 304 304 304 304 304 303 302 303 303 303 304 304 303 304 304 301 308 310 309 309 309 309 310 310 310 307 305 305 306 309 309 314 308 313 313 314 317 315 317 318 322 324 322
304 304 303 304 305 304 304 303 301 300 301 303 303 303 303 303 303 303 300 306 312 311 310 310 310 309 310 309 308 307 307 307 311 308 313 315 311 314 313 314 315 318 321 317 319 320 322
303 303 303 304 305 304 305 303 300 300 302 303 303 302 302 302 303 302 303 310 310 309 310 310 310 306 308 307 307 309 310 313 315 313 313 315 315 314 314 314 315 315 316 322 319 323 323
303 303 304 304 303 303 304 305 304 300 303 302 302 299 301 302 303 301 308 309 309 308 308 312 311 307 306 311 311 312 315 314 315 314 313 312 314 315 316 317 317 318 319 318 317 316 322
302 304 305 304 303 304 304 305 305 300 303 302 300 297 302 302 300 305 307 305 307 308 308 309 309 308 307 309 314 317 317 315 313 314 315 314 315 314 315 313 313 314 316 315 315 318 314
302 304 305 305 305 305 305 304 304 300 302 302 298 298 301 302 300 304 304 306 307 309 310 311 311 310 310 313 314 314 314 313 313 314 313 313 311 313 311 310 311 314 313 312 313 311 314
300 303 304 305 306 306 306 304 305 302 303 303 297 297 298 298 300 303 304 305 309 308 310 309 311 310 311 312 311 313 314 313 312 312 312 310 309 310 311 314 312 313 312 311 311 312 315
296 303 304 305 305 307 307 305 305 302 302 304 297 300 299 301 303 303 304 306 310 311 309 308 311 311 312 313 312 312 311 310 311 311 310 308 310 303 309 310 311 310 311 312 311 312 312
295 301 304 305 306 307 307 306 305 303 301 304 301 300 300 301 301 301 303 307 310 310 309 310 311 311 309 311 311 312 310 311 311 309 309 308 307 310 309 308 308 310 309 310 311 312 312
296 297 304 305 306 307 306 305 305 302 305 303 303 303 299 300 300 303 303 306 309 308 309 309 309 310 310 310 307 306 306 306 309 310 309 310 307 307 306 306 309 308 309 310 311 311 311
296 295 305 306 306 305 306 306 304 306 306 306 304 304 302 302 301 303 304 307 308 307 310 309 308 309 308 303 304 306 307 309 309 309 307 310 308 306 306 305 306 306 307 308 311 311 310
298 295 305 306 304 306 306 305 304 305 305 304 302 302 301 301 301 302 303 307 305 305 307 309 307 306 303 306 308 307 307 309 310 310 309 307 307 309 309 305 305 308 308 309 310 311 310
301 294 305 306 304 305 304 305 303 304 304 303 301 301 301 303 301 301 303 304 304 303 305 308 306 305 305 306 306 310 309 310 309 306 306 307 305 307 305 309 310 305 307 306 305 308 307
303 294 305 306 305 304 303 303 303 302 303 303 301 300 301 299 296 299 302 302 302 303 304 304 305 307 305 306 308 306 307 307 307 309 310 307 307 307 308 305 307 305 305 305 307 305 305
305 294 301 305 306 304 303 303 302 301 301 302 302 300 302 296 296 298 298 301 301 302 306 304 305 304 305 307 307 306 304 304 306 304 308 306 306 306 306 308 308 303 304 306 303 305 306
305 294 296 305 305 306 305 302 301 302 301 301 302 300 300 299 298 297 298 300 300 299 299 300 303 303 304 302 303 302 305 301 302 303 302 306 304 305 306 306 303 301 304 301 303 305 305

GFSGBSN_925_thetae_111.txt.gz
Theta_e
314 313 313 312 311 310 310 309 309 311 308 308 307 307 309 310 311 311 311 310 310 307 306 309 316 312 311 310 309 314 316 314 311 307 307 305 306 306 306 306 306 307 306 307 307 307 307
314 312 311 308 306 307 307 308 308 307 307 308 308 308 307 308 309 308 309 310 310 309 307 308 314 312 310 312 308 313 314 313 308 307 307 306 305 305 306 306 306 305 306 307 307 308 307
312 311 307 307 307 307 308 308 307 308 307 307 307 306 306 306 306 307 307 309 309 308 309 310 312 310 311 310 309 312 314 309 308 307 306 308 307 305 305 306 306 307 307 307 307 308 309
310 307 308 307 306 306 307 306 307 307 307 306 306 306 305 304 304 307 307 307 304 309 309 310 311 308 310 309 310 312 310 305 306 307 308 307 307 306 307 305 305 307 306 306 306 309 309
306 307 306 306 306 305 306 306 306 307 307 306 304 303 302 304 304 302 306 304 309 312 311 312 308 308 310 308 309 309 306 306 308 307 309 307 306 307 306 306 303 304 302 305 307 308 309
306 307 306 306 306 305 305 306 306 306 307 306 305 304 303 304 304 304 305 303 309 310 310 309 307 308 307 308 307 306 306 306 308 308 309 308 307 308 306 307 301 306 305 306 308 307 308
307 307 306 306 306 305 305 307 306 306 306 305 305 304 304 304 303 305 304 303 304 305 308 307 309 309 308 307 306 306 306 306 309 309 308 308 305 302 304 304 305 306 309 308 308 308 309
307 307 305 305 305 305 305 306 306 306 305 305 302 303 303 305 307 304 304 301 302 303 308 308 308 307 307 307 307 306 306 307 308 307 308 309 306 305 305 305 306 309 310 310 309 309 310
305 306 305 305 305 305 305 305 305 305 305 304 303 302 302 304 305 305 306 305 305 306 306 307 308 308 308 307 307 306 306 306 307 307 305 304 304 306 307 308 309 310 312 312 312 311 312
305 306 305 305 304 305 304 305 305 305 305 305 305 303 303 304 303 303 304 304 304 306 309 307 309 307 308 307 307 306 306 306 307 306 305 305 305 307 308 308 309 313 310 312 313 316 315
305 306 305 305 304 305 304 304 304 305 305 304 303 303 304 305 305 305 305 304 305 305 304 310 309 305 307 308 305 306 305 306 307 306 307 305 308 313 313 312 311 313 313 314 314 316 314
305 304 305 306 304 304 304 302 303 304 304 304 304 304 304 304 305 305 305 305 304 299 308 308 307 309 308 308 306 307 307 306 306 307 307 306 307 310 309 311 312 313 314 315 315 317 318
305 303 305 306 305 303 304 302 300 302 303 303 303 303 303 303 303 303 303 301 300 304 308 311 308 307 308 308 307 307 307 306 305 302 305 308 309 309 311 313 311 314 318 312 312 315 317
304 304 304 305 305 304 300 300 300 301 302 303 303 302 302 302 303 303 303 299 304 309 308 308 309 308 309 309 307 306 304 305 305 308 310 313 307 311 313 313 314 315 316 319 319 315 318
304 304 304 305 306 304 304 302 300 301 301 302 302 302 301 302 303 303 301 308 311 309 308 310 309 308 309 309 307 306 305 305 309 308 310 313 312 313 312 313 314 317 320 317 319 318 321
304 304 304 304 305 305 304 304 301 301 302 302 302 301 301 302 303 302 305 310 308 308 309 309 309 305 307 307 306 307 308 312 314 313 312 315 314 311 314 313 314 315 315 320 318 322 324
303 305 304 305 304 305 304 304 302 300 302 301 301 297 301 303 303 301 307 308 309 307 307 311 310 306 307 311 310 312 314 313 314 315 313 313 313 314 316 316 316 318 319 319 319 316 320
300 304 305 304 305 305 305 304 302 301 302 301 298 299 303 303 301 298 303 305 306 307 307 307 308 307 306 311 316 316 316 314 312 313 314 312 315 314 314 313 313 315 317 315 316 318 312
297 303 305 305 305 306 306 305 302 303 304 301 297 297 302 303 301 300 302 305 306 308 309 310 311 309 309 312 314 314 313 312 312 313 313 313 310 311 310 309 310 313 313 312 314 312 314
300 299 304 305 305 306 306 305 303 303 304 304 296 299 299 298 298 302 302 304 308 307 309 308 309 309 310 311 310 313 312 312 310 312 314 309 308 309 310 313 311 312 310 310 312 311 315
304 295 302 306 305 306 307 306 304 302 305 303 296 300 299 299 301 301 302 304 309 309 307 307 310 309 311 312 311 311 310 309 310 309 310 307 309 303 308 308 308 310 309 311 309 311 313
305 294 298 305 306 306 306 306 305 301 305 304 300 300 297 299 300 300 301 305 308 308 308 309 310 309 308 311 310 312 309 309 311 308 309 306 307 310 308 306 307 310 309 310 311 312 312
306 295 299 305 306 307 305 305 305 301 304 303 302 301 298 298 300 302 303 305 308 306 308 308 308 308 309 309 306 305 305 305 306 309 308 308 306 305 304 306 307 306 310 310 311 310 310
306 296 300 306 306 305 304 305 304 304 305 305 303 303 300 302 301 303 303 304 307 306 308 307 307 308 307 302 303 304 304 305 307 308 305 308 307 304 304 305 303 304 306 307 310 310 309
307 298 301 306 304 305 306 305 305 305 304 304 303 302 298 301 300 302 303 304 304 302 306 308 307 305 302 304 307 306 305 307 308 308 308 305 306 308 307 305 305 306 307 308 310 311 308
308 301 299 305 304 304 305 304 304 303 303 303 301 302 300 299 300 302 302 303 303 302 303 306 304 304 304 304 305 309 307 308 307 304 305 305 303 306 304 308 307 303 306 305 305 308 306
308 304 296 305 304 304 304 304 303 303 302 302 301 300 301 299 296 298 301 302 300 301 303 302 304 305 303 305 308 306 306 305 306 307 307 306 305 307 307 305 306 303 305 303 308 305 304
308 305 294 304 305 304 303 303 302 302 302 302 301 299 301 296 296 296 298 299 300 301 305 303 303 303 304 306 306 305 304 302 304 303 307 305 305 305 305 307 306 303 304 306 303 305 304
308 307 298 297 305 305 304 303 303 302 300 300 301 300 300 298 297 297 298 299 299 300 300 299 303 301 302 301 301 301 304 300 300 304 299 304 303 304 304 305 302 301 302 301 302 304 306

GFSGBSN_925_thetae_114.txt.gz
Theta_e
312 308 308 308 307 307 308 308 308 308 308 307 307 307 306 309 309 310 311 311 311 311 308 307 311 314 309 309 309 314 317 315 308 306 306 305 305 304 304 305 305 306 306 306 306 306 306
308 308 307 307 307 307 306 307 307 307 308 308 307 307 307 307 307 308 309 310 309 310 310 308 309 312 310 313 308 315 315 312 307 306 306 305 305 304 305 305 305 305 306 306 306 306 307
307 308 308 307 307 306 306 306 307 307 308 307 307 306 305 306 306 307 307 308 309 309 306 309 310 311 311 311 310 312 313 309 307 307 307 306 306 304 304 305 305 306 306 305 306 307 307
308 308 307 306 306 305 307 308 307 307 308 307 306 305 304 304 305 306 307 307 306 303 303 308 311 310 311 309 311 311 307 306 307 307 307 307 306 305 306 305 303 305 303 304 305 308 308
307 307 306 306 306 307 307 307 307 307 307 306 306 304 304 304 304 302 304 308 307 310 311 310 309 308 310 309 310 308 306 307 307 308 308 307 306 305 305 304 299 302 303 304 306 306 308
307 306 305 305 306 307 306 306 306 307 306 306 306 304 304 304 304 304 305 308 309 308 308 307 307 308 307 310 307 305 306 308 308 308 308 306 306 305 306 301 301 306 305 307 307 306 307
307 306 305 305 306 306 307 306 306 306 305 305 305 306 306 306 304 303 304 305 306 307 307 305 307 308 309 307 306 306 306 308 308 307 307 307 300 298 303 303 303 307 307 308 308 307 308
306 306 305 306 306 306 306 306 306 306 306 305 305 305 306 305 304 305 303 302 303 305 308 308 308 307 307 307 307 306 306 307 308 306 307 305 302 304 303 304 305 307 309 307 307 308 308
306 306 305 306 306 305 306 306 306 306 306 306 305 303 304 305 305 303 303 304 305 305 306 307 308 307 307 307 307 306 305 306 306 306 306 303 304 305 306 307 307 307 308 308 310 309 310
305 307 306 305 306 305 305 305 304 303 303 305 305 305 304 303 304 304 304 304 305 305 309 307 308 306 307 307 307 305 305 306 307 305 304 304 304 305 307 307 307 309 308 310 312 314 316
305 305 306 305 305 305 301 301 302 302 302 303 303 304 304 304 304 305 304 303 305 304 305 309 309 305 307 306 304 305 305 305 306 306 304 304 307 310 312 310 308 311 311 312 313 316 315
305 304 305 305 305 305 301 300 301 302 302 301 302 302 303 304 303 303 303 304 303 298 307 307 309 308 307 305 306 306 306 305 305 306 306 304 305 308 307 308 309 310 312 313 313 317 317
304 305 303 305 306 305 304 300 300 301 301 301 301 301 302 302 301 303 303 300 300 304 306 307 307 307 306 306 306 306 306 305 303 300 302 306 308 307 308 311 309 312 317 310 308 316 314
305 305 305 304 305 306 307 305 300 300 301 301 301 301 301 302 302 303 302 300 305 308 308 307 308 308 307 307 304 304 305 304 304 306 308 309 305 310 311 312 313 315 316 317 315 314 317
304 304 305 303 305 305 307 307 301 301 300 301 301 301 301 303 303 303 301 307 307 308 307 308 309 307 308 308 306 305 303 304 306 305 307 311 307 311 312 312 314 316 320 316 319 316 320
301 305 305 306 303 305 305 307 302 300 302 301 300 300 301 303 304 302 303 310 307 308 309 308 308 305 307 306 306 306 307 309 313 308 310 313 315 309 313 313 313 314 315 320 318 321 323
301 303 305 306 305 305 305 305 303 302 302 300 300 299 304 303 304 301 307 307 308 306 307 310 309 305 306 311 310 311 312 311 313 314 313 313 312 311 315 315 316 318 319 319 319 317 320
306 298 305 306 305 305 306 305 303 302 303 302 298 300 304 304 302 296 302 304 305 307 307 307 308 307 307 312 313 315 315 313 311 312 313 312 314 314 313 312 313 314 316 316 315 319 313
307 299 300 305 305 306 306 306 303 301 303 301 297 297 304 303 302 298 301 305 305 307 308 309 310 309 309 310 312 313 312 311 311 312 312 312 309 310 309 309 309 312 313 312 312 311 314
308 305 295 303 305 305 306 306 305 301 302 302 297 299 298 297 296 301 302 304 308 306 308 307 308 308 309 310 309 311 310 310 310 311 313 310 307 309 309 312 310 312 310 309 312 311 314
308 306 295 300 305 306 306 306 305 302 303 302 296 299 299 298 302 300 302 304 308 308 307 306 309 308 309 311 309 309 308 307 309 308 310 306 307 303 306 307 307 309 309 310 308 310 312
309 307 299 299 305 306 307 305 304 302 302 303 299 299 296 298 299 301 301 305 308 307 308 309 309 307 307 309 309 310 308 308 309 306 307 305 306 308 308 306 307 309 309 310 311 311 310
309 308 302 299 306 307 305 304 304 302 303 302 301 300 297 298 299 302 303 305 307 306 307 308 308 307 308 308 306 304 304 304 305 306 307 306 305 305 305 304 305 307 309 310 310 310 309
308 308 304 299 306 304 304 304 304 302 304 303 303 300 298 301 300 302 303 303 306 306 308 307 306 307 307 302 301 302 302 302 303 305 304 307 306 303 305 303 305 303 306 307 309 309 307
308 308 306 299 305 305 306 304 304 305 304 303 303 301 298 300 298 301 301 303 304 302 304 306 306 304 301 303 306 306 303 305 307 305 305 304 304 307 305 304 302 305 305 306 309 310 306
307 308 307 297 305 305 304 304 304 303 303 302 301 302 299 299 299 301 302 302 302 302 303 303 304 302 303 303 305 308 306 307 306 303 304 303 302 305 303 306 303 301 305 305 305 309 305
306 308 308 297 305 305 304 304 303 303 302 302 301 300 300 298 296 298 300 301 299 301 302 302 304 305 302 304 307 305 306 303 306 305 306 304 304 306 306 304 304 301 305 303 308 304 302
306 308 308 303 304 304 304 304 303 302 302 302 301 299 300 296 295 296 298 299 299 299 303 302 302 302 303 305 305 304 302 302 303 301 304 304 302 304 303 306 304 301 304 305 303 302 304
307 307 308 307 295 305 304 303 303 302 301 301 301 300 300 298 296 297 298 300 301 300 299 298 301 301 302 300 301 301 304 299 299 304 298 302 302 302 304 304 301 300 302 301 299 303 305

GFSGBSN_925_thetae_117.txt.gz
Theta_e
309 308 307 307 306 306 308 308 308 308 308 308 307 307 306 307 308 308 310 310 310 310 309 308 308 315 312 310 310 313 316 312 307 307 305 304 304 303 304 305 304 305 305 306 306 306 306
309 308 307 307 307 308 308 307 308 308 308 308 307 306 306 307 307 306 309 309 309 309 310 308 309 311 311 314 311 314 311 308 306 306 305 304 304 303 304 305 304 305 306 306 306 306 306
308 307 307 306 308 307 307 308 307 307 307 307 306 306 305 305 306 307 307 308 309 309 309 309 311 310 311 311 310 312 308 306 306 306 307 305 305 305 304 305 305 305 306 305 305 307 307
308 306 306 306 307 308 307 307 307 306 307 306 306 306 306 304 305 306 307 307 307 307 305 306 310 307 310 309 309 306 307 307 307 306 306 306 306 305 305 304 302 305 303 305 304 307 308
308 306 306 306 307 308 307 306 306 305 305 306 306 307 306 304 303 304 306 308 307 309 310 309 308 308 311 310 308 306 307 307 308 307 307 306 305 305 305 303 303 303 306 307 307 305 307
308 306 306 306 307 307 307 307 307 306 306 306 306 307 304 304 304 306 308 308 308 307 305 307 307 308 308 311 307 306 307 308 308 307 307 306 304 304 304 302 304 307 307 306 307 306 307
308 307 305 306 306 306 306 306 306 306 307 306 306 306 305 304 303 306 306 306 304 303 306 306 308 308 309 306 306 307 307 308 307 305 307 306 304 302 303 303 301 306 306 307 306 306 307
307 307 304 306 306 306 306 306 306 307 306 303 304 305 306 305 304 304 304 304 304 303 304 306 307 308 307 306 306 306 306 307 307 308 306 303 304 303 303 303 305 306 307 307 307 307 308
305 307 306 305 305 305 306 306 306 305 306 304 304 304 304 304 305 305 305 305 305 305 304 306 307 306 307 307 306 306 305 305 305 305 305 303 306 304 305 306 307 307 307 307 309 308 310
306 306 307 306 305 305 305 306 305 301 302 302 303 304 304 303 305 304 304 304 305 305 308 308 308 306 307 306 306 305 305 305 306 304 303 304 303 304 305 307 307 309 306 308 310 315 315
305 305 306 305 306 306 305 305 306 302 301 300 302 303 304 304 304 304 303 304 305 303 304 308 308 306 306 306 304 305 305 305 306 305 303 303 306 308 309 309 307 310 310 311 312 315 316
306 305 305 306 305 306 306 306 305 305 302 301 301 302 303 304 303 303 303 303 301 300 307 308 307 307 306 305 306 305 305 304 304 305 305 304 304 307 306 307 308 308 311 312 312 313 319
305 305 305 305 305 304 306 306 306 305 302 301 301 302 302 302 301 302 303 299 300 307 306 304 307 306 305 305 305 305 305 303 304 301 303 305 307 306 307 310 309 311 315 310 310 318 315
301 305 305 306 306 306 304 305 307 305 302 301 300 301 302 301 302 302 302 299 305 307 306 306 307 307 306 305 302 303 304 304 302 305 305 307 306 309 310 311 312 314 315 313 315 315 315
306 300 306 305 306 306 305 306 304 305 304 301 300 301 302 302 302 302 300 306 309 307 306 307 307 305 306 307 305 304 304 304 306 304 306 311 308 310 310 311 313 316 318 315 319 316 319
307 302 304 306 306 306 306 305 305 302 304 301 300 300 302 304 303 303 304 309 307 307 307 307 306 304 306 305 305 306 306 307 310 306 307 312 312 308 312 312 313 315 315 320 318 320 319
309 306 298 305 306 305 306 306 305 302 303 302 300 300 304 304 305 301 306 308 308 306 306 310 308 305 306 312 310 309 310 310 312 314 312 313 313 311 313 315 318 317 318 317 319 319 320
309 307 302 297 305 305 305 306 306 303 303 301 299 301 304 304 302 296 299 304 305 307 306 307 308 307 309 310 313 315 315 312 310 311 313 313 314 315 314 311 313 315 316 316 317 320 315
309 308 306 295 302 306 305 306 306 303 303 301 297 297 304 304 303 298 301 304 304 307 308 308 310 309 308 310 312 312 312 310 310 311 312 311 310 312 309 309 309 312 313 313 312 311 315
309 309 307 300 299 306 306 306 306 303 303 301 297 299 298 296 295 301 303 305 308 306 307 307 307 307 309 309 308 310 309 309 309 310 313 311 307 309 312 312 310 310 310 308 310 314 313
308 309 308 304 296 306 306 306 305 303 303 302 295 299 297 298 301 300 302 305 307 308 306 305 308 307 308 309 308 308 308 306 308 307 309 307 307 303 306 306 307 307 309 309 308 309 312
307 309 308 306 295 306 306 304 305 303 303 302 299 298 295 297 298 301 302 306 308 307 308 309 309 307 307 309 308 310 308 307 308 306 307 304 306 307 307 306 305 308 308 309 310 311 310
307 308 308 307 296 304 305 304 304 303 303 301 300 298 297 298 298 301 302 304 307 305 307 307 307 307 308 308 305 304 303 304 305 307 306 305 305 306 306 303 305 307 306 309 310 309 309
308 306 308 307 296 305 304 305 304 303 305 303 302 298 297 300 300 301 302 303 305 305 308 306 305 306 305 302 301 302 301 301 302 302 302 306 305 304 306 303 303 303 305 306 309 308 307
308 306 308 308 297 304 306 305 304 305 303 303 303 300 297 300 298 301 301 302 303 302 303 305 305 303 300 302 305 305 302 304 306 303 302 302 304 307 306 303 302 303 303 306 309 309 306
310 307 307 308 298 304 304 304 304 304 303 302 302 302 298 299 298 300 300 301 301 301 301 302 303 301 302 302 304 307 304 306 306 304 302 301 301 304 303 305 303 299 303 303 305 309 305
311 307 307 308 304 304 305 304 304 303 303 302 301 300 300 298 295 297 300 300 298 300 300 300 303 304 301 303 307 305 305 302 305 305 303 303 303 306 306 304 304 300 304 303 309 303 302
311 309 306 308 308 300 304 304 304 303 302 302 301 300 299 295 295 295 297 298 298 298 302 300 302 300 301 305 305 303 302 301 302 300 302 303 302 303 302 305 304 300 303 306 304 300 304
311 311 307 307 308 301 303 304 304 303 302 301 301 300 299 298 297 297 299 300 301 300 299 297 300 299 301 299 300 300 304 298 298 303 298 302 300 301 302 303 300 298 302 300 299 302 303